     2              OBSERVATION DATA    GPS                 RINEX VERSION / TYPE
teqc 1998Mar9 19981006 17:43:30UTC                          PGM / RUN BY / DATE
                                                            COMMENT
Original Marker Name: 1372                                  COMMENT
Campaign Name: HPGN 1998                                    COMMENT
4-Character Station Name: 1372                              COMMENT
6-Character Antenna Code: TRMCMP                            COMMENT
Vertical Measurement Point: BPA                             COMMENT
Vertical Offset to Rinex Ref. Point: 0.0000                 COMMENT
Radial Measurement Point: RRP                               COMMENT
Radial Offset to Rinex Ref. Point: 0.0000                   COMMENT
Antenna Height from Field Measurement: 2.0000 m             COMMENT
Original XYZ: -2356227.2966 -4569113.2816 3765028.4120      COMMENT
New XYZ position is based on association with SCEC monument COMMENT
E1F4S6V6+0011. Position of that monument is believed to be  COMMENT
valid to within 1 m horizontally; vertical accuracy         COMMENT
should be no worse than 3-times this value.                 COMMENT
                                                            COMMENT
Revised Rinex header created by UCSD GPS archive for        COMMENT
GSAC on 18-Apr-1999 (1999:108) 22:54:32 GMT                 COMMENT
For assistance contact dagnew@ucsd.edu or hjohnson@ucsd.edu COMMENT
                                                            COMMENT
X 1372                                                      MARKER NAME
unknown CALIF DEPT TRANSPORTATION                           OBSERVER / AGENCY
4872 TRIMBLE 4000 SSE NP 7.25; SP 3.07                      REC # / TYPE / VERS
728 TR GEOD L1/L2 GP                                        ANT # / TYPE
 -2356226.0000 -4569116.0000  3765028.0000                  APPROX POSITION XYZ
        2.0000        0.0000        0.0000                  ANTENNA: DELTA H/E/N
     1     1     0                                          WAVELENGTH FACT L1/2
     7    L1    L2    C1    P2    P1    D1    D2            # / TYPES OF OBSERV
     0                                                      INTERVAL
  1998     6    25    15     5    0.000000                  TIME OF FIRST OBS
  1998     6    25    20    35    0.000000                  TIME OF LAST OBS
                                                            END OF HEADER
 98  6 25 15  5  0.0000000  0  8G 2G 4G 5G 7G 8G 9G16G24
   2422844.82955   1885920.52154  23522607.2344   23522610.9494
     -2980.7194      -2322.6384
   -294501.47157   -216830.41956  20574788.7894   20574790.5354
       -23.2194        -18.0934
  -2072085.11555   -636449.91555  22624824.8834   22624828.7854
      2271.7504       1770.1954
   2189228.41256   1705892.46155  22308145.9844   22308149.7114
     -2634.9694      -2053.2224
  -2066291.32455  -1453676.71655  22584155.4694   22584159.3594
      2153.5944       1678.1254
    -57851.92256    -45079.83856  21233309.7974   21233312.2934
      -280.5624       -218.6204
    -26289.31853                  24622101.7584
       740.3594
  -2083064.50156  -1575603.82356  21326455.1484   21326458.7814
      2139.5944       1667.2164
 98  6 25 15  5 15.0000000  0  8G 2G 4G 5G 7G 8G 9G16G24
   2467599.60545   1920794.33944  23531124.0634   23531127.5664
     -2986.5314      -2327.1674
   -294059.33647   -216485.89046  20574872.8524   20574874.9494
       -35.7504        -27.8574
  -2106137.83545   -662984.48745  22618344.3204   22618347.5904
      2268.6254       1767.7604
   2228776.73546   1736709.34245  22315672.4304   22315676.3444
     -2638.1254      -2055.6824
  -2098521.90145  -1478791.40745  22578022.3054   22578025.9264
      2143.8444       1670.5284
    -53558.99946    -41734.70146  21234127.0704   21234129.9414
      -291.7664       -227.3504
    -37323.62243                  24620002.7344
       730.9694
  -2115094.23946  -1600562.04146  21320360.1564   21320364.1414
      2131.0944       1660.5934
 98  6 25 15  5 30.0000000  0  8G 2G 4G 5G 7G 8G 9G16G24
   2512439.68145   1955734.64744  23539655.5704   23539659.1564
     -2992.4224      -2331.7574
   -293428.76847   -215994.52746  20574993.1024   20574995.0704
       -48.5164        -37.8044
  -2140144.44545   -689483.11945  22611872.7504   22611876.7704
      2265.4064       1765.2524
   2268370.67746   1767561.75446  22323206.5004   22323209.9224
     -2641.3284      -2058.1784
  -2130608.56345  -1503794.01245  22571915.6094   22571918.4104
      2134.2664       1663.0644
    -49101.86046    -38261.61146  21234975.2194   21234977.9844
      -302.7034       -235.8734
    -48218.35944                  24617929.6564
       721.4534
  -2146996.35546  -1625420.81646  21314288.9454   21314293.0944
      2122.2664       1653.7134
 98  6 25 15  5 45.0000000  0  8G 2G 4G 5G 7G 8G 9G16G24
   2557367.48345   1990743.27344  23548205.3364   23548209.0984
     -2998.1874      -2336.2504
   -292609.78147   -215356.35946  20575148.6564   20575150.7774
       -60.9064        -47.4594
  -2174103.94045   -715945.06445  22605412.4614   22605416.0234
      2262.2814       1762.8174
   2308011.28346   1798450.52445  22330749.9064   22330753.5164
     -2644.2974      -2060.4914
  -2162556.36945  -1528688.36945  22565836.9534   22565841.7584
      2125.2194       1656.0154
    -44483.59246    -34662.96346  21235853.9694   21235856.7114
      -313.2814       -244.1154
    -58972.23945     -2223.70953  24615883.6414   24615888.2464
       712.2034        554.9634
  -2178768.22746  -1650178.11346  21308243.2734   21308247.1524
      2113.7194       1647.0544
 98  6 25 15  6  0.0000000  0  8G 2G 4G 5G 7G 8G 9G16G24
   2602380.84045   2025818.58344  23556771.8054   23556776.4104
     -3003.6254      -2340.4874
   -291606.15447   -214574.30746  20575339.7584   20575342.0314
       -72.9064        -56.8104
  -2208017.67745   -742371.34445  22598957.8594   22598962.3134
      2259.4844       1760.6374
   2347694.68746   1829372.64845  22338301.1334   22338304.9774
     -2646.8444      -2062.4764
  -2194367.87245  -1553476.54145  22559781.8204   22559785.9694
      2116.3284       1649.0874
    -39708.60046    -30942.19546  21236762.7734   21236765.3524
      -323.4224       -252.0174
    -69588.84945    -10496.35343  24613862.8674   24613866.9224
       703.3444        548.0604
  -2210412.39646  -1674835.89646  21302221.3754   21302225.0554
      2105.3914       1640.5644
 98  6 25 15  6 15.0000000  0  8G 2G 4G 5G 7G 8G 9G16G24
   2647482.65445   2060962.81844  23565353.8834   23565359.4734
     -3009.7504      -2345.2604
   -290418.49447   -213648.84846  20575565.8834   20575568.0864
       -85.1874        -66.3804
  -2241882.25245   -768759.32645  22592513.1094   22592516.8834
      2255.9844       1757.9104
   2387423.36646   1860330.05345  22345861.7504   22345865.9454
     -2650.0624      -2064.9844
  -2226039.88945  -1578156.00345  22553756.4224   22553760.5474
      2106.8284       1641.6844
    -34775.60246    -27098.29646  21237701.3834   21237703.9494
      -334.0944       -260.3334
    -80066.72444    -18661.00442  24611868.6954   24611874.6844
       693.9844        540.7674
  -2241922.84446  -1699389.47546  21296225.2274   21296229.2704
      2096.2504       1633.4424
 98  6 25 15  6 30.0000000  0  8G 2G 4G 5G 7G 8G 9G16G24
   2692674.70645   2096177.39744  23573954.2274   23573959.8054
     -3015.7034      -2349.8994
   -289048.42447   -212581.25446  20575826.5784   20575828.5004
       -97.4224        -75.9134
  -2275695.62545   -795107.37945  22586078.3754   22586081.7854
      2252.6094       1755.2804
   2427199.12346   1891324.14345  22353430.8524   22353434.7194
     -2653.2814      -2067.4924
  -2257571.32745  -1602725.96445  22547756.2034   22547759.0164
      2097.4064       1634.3434
    -29682.96246    -23130.00946  21238670.5084   21238673.0984
      -344.8594       -268.7224
    -90407.86844    -26718.97143  24609901.0864   24609905.7854
       684.9384        533.7184
  -2273298.49946  -1723838.01946  21290254.8364   21290258.7974
      2087.2974       1626.4654
 98  6 25 15  6 45.0000000  0  8G 2G 4G 5G 7G 8G 9G16G24
   2737956.01045   2131461.51443  23582571.1094   23582576.8524
     -3021.7504      -2354.6104
   -287493.41747   -211369.55346  20576122.4384   20576124.3714
      -109.9224        -85.6534
  -2309457.65245   -821415.42245  22579653.5554   22579656.6724
      2249.0314       1752.4924
   2467024.02746   1922356.53345  22361009.2814   22361012.8554
     -2656.6414      -2070.1104
  -2288958.97745  -1627183.83145  22541782.4144   22541786.4924
      2087.6564       1626.7454
    -24427.31346    -19034.69946  21239670.1254   21239672.5744
      -355.8914       -277.3174
   -100613.08545    -34671.05743  24607960.0634   24607964.8674
       675.8444        526.6314
  -2304538.26646  -1748180.67646  21284309.7584   21284313.9884
      2078.0164       1619.2334
 98  6 25 15  7  0.0000000  0  8G 2G 4G 5G 7G 8G 9G16G24
   2783324.34145   2166813.43443  23591203.9534   23591208.9104
     -3027.5314      -2359.1154
   -285753.96647   -210014.12846  20576453.2894   20576455.2814
      -122.1094        -95.1504
  -2343168.09545   -847683.29045  22573238.7894   22573241.9184
      2245.5634       1749.7894
   2506895.07946   1953424.87945  22368596.4454   22368600.1844
     -2659.6254      -2072.4354
  -2320205.66745  -1651531.88745  22535837.0474   22535840.0354
      2078.4384       1619.5624
    -19007.81446    -14811.71346  21240701.8054   21240704.3954
      -366.8284       -285.8404
   -110688.00345    -42521.66543  24606042.4064   24606046.3914
       667.3444        520.0084
  -2335641.03646  -1772416.58346  21278391.1884   21278394.8554
      2068.8134       1612.0624
 98  6 25 15  7 15.0000000  0  8G 2G 4G 5G 7G 8G 9G16G24
   2828779.42145   2202232.98344  23599853.9384   23599858.7074
     -3033.1874      -2363.5234
   -283832.10647   -208516.56746  20576818.8914   20576821.0474
      -134.2344       -104.5984
  -2376825.96145   -873910.18945  22566833.9614   22566837.4304
      2242.0944       1747.0864
   2546811.84246   1984528.83845  22376192.0784   22376196.1564
     -2662.6874      -2074.8214
  -2351315.31345  -1675773.16345  22529915.9614   22529920.7194
      2069.4694       1612.5734
    -13424.44246    -10461.03346  21241764.2814   21241766.9654
      -377.7194       -294.3264
   -120636.20345    -50273.50143  24604148.8754   24604153.0234
       659.0474        513.5434
  -2366603.51046  -1796543.17546  21272499.3984   21272503.0554
      2059.5004       1604.8054
 98  6 25 15  7 30.0000000  0  8G 2G 4G 5G 7G 8G 9G16G24
   2874320.53245   2237719.53643  23608520.4064   23608525.9264
     -3039.0474      -2368.0884
   -281726.52647   -206875.85046  20577219.7664   20577221.8874
      -146.5314       -114.1804
  -2410429.33645   -900094.61245  22560439.9694   22560443.8484
      2238.3134       1744.1404
   2586778.10046   2015671.37745  22383797.4534   22383801.1804
     -2666.2504      -2077.5974
  -2382287.62545  -1699907.42345  22524022.1804   22524024.6524
      2060.1254       1605.2924
     -7674.53646     -5980.58746  21242858.3134   21242860.8204
      -389.0624       -303.1664
   -130458.80344    -57927.46042  24602279.7664   24602284.6884
       650.5944        506.9564
  -2397425.07946  -1820559.96346  21266634.1254   21266638.1094
      2049.9534       1597.3664
 98  6 25 15  7 45.0000000  0  8G 2G 4G 5G 7G 8G 9G16G24
   2919948.38745   2273273.68943  23617202.4064   23617207.5164
     -3044.6564      -2372.4594
   -279440.93147   -205094.86046  20577654.6954   20577656.7114
      -158.1874       -123.2634
  -2443979.63945   -926237.66245  22554055.4224   22554058.9734
      2235.0474       1741.5954
   2626795.97746   2046854.12845  22391412.5864   22391416.3834
     -2669.4694      -2080.1064
  -2413121.62445  -1723933.87945  22518156.0864   22518160.1054
      2051.1094       1598.2674
     -1753.85346     -1367.07046  21243985.1024   21243987.7974
      -400.4064       -312.0054
   -140156.79144    -65484.35142  24600433.7584   24600438.0234
       642.5004        500.6494
  -2428105.31046  -1844466.62346  21260795.9614   21260799.7344
      2040.7974       1590.2314
 98  6 25 15  8  0.0000000  0  8G 2G 4G 5G 7G 8G 9G16G24
   2965662.68944   2308895.17843  23625901.6414   23625905.7774
     -3050.6254      -2377.1104
   -276979.44447   -203176.81246  20578122.9304   20578124.9104
      -170.0314       -132.4924
  -2477477.89145   -952340.20145  22547680.7814   22547684.7894
      2231.4384       1738.7824
   2666863.20446   2078075.33545  22399037.4454   22399041.9454
     -2672.8284      -2082.7234
  -2443816.27345  -1747851.79845  22512314.8054   22512317.6174
      2041.4694       1590.7554
      4341.61146      3382.63946  21245144.9144   21245147.6094
      -412.3594       -321.3194
   -149730.97543    -72944.74542  24598611.9304   24598618.2464
       634.0634        494.0754
  -2458648.18946  -1868266.25146  21254983.9694   21254987.7774
      2031.5634       1583.0364
 98  6 25 15  8 15.0000000  0  8G 2G 4G 5G 7G 8G 9G16G24
   3011464.46644   2344584.87844  23634617.8284   23634621.5434
     -3056.4224      -2381.6274
   -274344.19947   -201123.36646  20578624.4694   20578626.4734
      -181.4534       -141.3924
  -2510926.84445   -978404.30145  22541315.6564   22541320.0984
      2228.2814       1736.3234
   2706977.88446   2109333.51645  22406671.0234   22406675.4184
     -2675.8914      -2085.1104
  -2474368.87745  -1771658.99745  22506499.9924   22506504.3404
      2032.1254       1583.4744
     10614.04446      8270.25346  21246338.6804   21246341.5634
      -424.1254       -330.4874
   -159181.11643    -80308.43042  24596813.9694   24596819.3834
       625.8444        487.6704
  -2489055.72046  -1891960.41646  21249197.3594   21249201.1804
      2022.6724       1576.1084
 98  6 25 15  8 30.0000000  0  8G 2G 4G 5G 7G 8G 9G16G24
   3057355.61545   2380344.18944  23643350.6334   23643355.1094
     -3062.3754      -2386.2664
   -271535.58247   -198934.82746  20579158.9844   20579161.1994
      -193.0944       -150.4634
  -2544325.20845  -1004428.97645  22534960.7814   22534963.6994
      2224.8284       1733.6324
   2747140.86446   2140629.33145  22414313.8134   22414317.6914
     -2679.1724      -2087.6664
  -2504777.88345  -1795354.31545  22500713.7584   22500716.2664
      2022.3594       1575.8644
     17065.80446     13297.59646  21247566.3834   21247569.3134
      -436.1874       -339.8864
   -168505.17743    -87573.97241  24595039.6724   24595040.4694
       617.3134        481.0234
  -2519329.89546  -1915550.67546  21243436.4454   21243440.0904
      2013.8754       1569.2534
 98  6 25 15  8 45.0000000  0  8G 2G 4G 5G 7G 8G 9G16G24
   3103332.87744   2416170.61043  23652099.3054   23652104.0984
     -3067.9694      -2390.6254
   -268553.45047   -196611.08246  20579726.5394   20579728.5434
      -204.5784       -159.4124
  -2577673.92245  -1030414.97845  22528613.6884   22528617.8484
      2221.6564       1731.1614
   2787351.31046   2171962.14745  22421965.4534   22421969.3094
     -2682.2034      -2090.0284
  -2535041.37845  -1818936.25845  22494955.2504   22494959.2934
      2012.7344       1568.3644
     23696.48946     18464.36446  21248828.2734   21248831.2974
      -447.8914       -349.0064
   -177702.81144    -94740.93341  24593289.2734   24593292.7774
       608.9384        474.4974
  -2549473.36346  -1939039.07446  21237700.4144   21237704.4104
      2005.2034       1562.4964
 98  6 25 15  9  0.0000000  0  8G 2G 4G 5G 7G 8G 9G16G24
   3149397.53344   2452065.07943  23660865.8984   23660870.9844
     -3073.7664      -2395.1424
   -265397.40247   -194151.81746  20580326.9534   20580329.0394
      -216.0164       -168.3244
  -2610971.22045  -1056360.90345  22522277.8054   22522282.0124
      2218.2034       1728.4704
   2827607.84846   2203330.87345  22429626.1094   22429630.0704
     -2685.1094      -2092.2934
  -2565158.41145  -1842404.05945  22489224.3284   22489228.3714
      2003.0944       1560.8524
     30503.87246     23768.81446  21250123.3834   21250126.0554
      -459.5474       -358.0884
   -186770.17543   -101806.40741  24591564.0314   24591570.7934
       600.2034        467.6914
  -2579482.13146  -1962422.51246  21231989.9144   21231993.8754
      1996.1884       1555.4714
 98  6 25 15  9 15.0000000  0  8G 2G 4G 5G 7G 8G 9G16G24
   3195548.46144   2488026.84543  23669647.0004   23669652.3324
     -3079.6254      -2399.7084
   -262071.77147   -191560.41146  20580959.5394   20580961.3794
      -227.3914       -177.1874
  -2644218.47645  -1082267.84545  22515950.7814   22515954.7304
      2214.8594       1725.8644
   2867906.75646   2234732.60945  22437294.7894   22437298.9844
     -2688.0004      -2094.5454
  -2595131.16145  -1865759.44445  22483519.4144   22483523.4804
      1993.2974       1553.2184
     37484.32546     29208.12746  21251451.8754   21251454.5594
      -471.0784       -367.0744
   -195705.35242   -108768.89341  24589863.5704   24589869.9224
       591.1564        460.6414
  -2609357.47546  -1985701.98646  21226304.9844   21226308.6764
      1987.2504       1548.5064
 98  6 25 15  9 30.0000000  0  8G 2G 4G 5G 7G 8G 9G16G24
   3241783.79744   2524054.37643  23678445.9534   23678449.4694
     -3085.2034      -2404.0544
   -258576.88047   -188837.11446  20581624.7664   20581626.7704
      -238.6874       -185.9904
  -2677419.95245  -1108139.11145  22509632.1804   22509635.9414
      2211.9224       1723.5754
   2908245.87846   2266165.68245  22444970.9384   22444975.0744
     -2690.5784      -2096.5544
  -2624958.66345  -1889001.63045  22477843.1334   22477847.7274
      1983.6724       1545.7184
     44633.48346     34778.89946  21252812.4924   21252815.2704
      -482.2344       -375.7674
   -204506.05342   -115626.51942  24588187.4614   24588191.5984
       582.2344        453.6894
  -2639104.07346  -2008881.13546  21220644.1414   21220647.5274
      1978.9384       1542.0294
 98  6 25 15  9 45.0000000  0  8G 2G 4G 5G 7G 8G 9G16G24
   3288106.36544   2560149.86343  23687261.4224   23687265.3954
     -3091.0784      -2408.6324
   -254910.56647   -185980.23846  20582322.6724   20582324.5824
      -250.0784       -194.8664
  -2710573.27845  -1133972.85545  22503323.7894   22503327.3164
      2208.5944       1720.9824
   2948625.69246   2297630.47745  22452654.8834   22452659.1024
     -2693.2814      -2098.6614
  -2654639.22845  -1912129.30845  22472196.0084   22472198.8094
      1973.8284       1538.0484
     51951.87546     40481.54046  21254205.2034   21254207.7464
      -493.4844       -384.5334
   -213170.78943   -122378.18342  24586540.2894   24586545.3984
       573.1564        446.6154
  -2668724.50846  -2031961.98146  21215007.5084   21215010.9184
      1970.5164       1535.4674
 98  6 25 15 10  0.0000000  0  8G 2G 4G 5G 7G 8G 9G16G24
   3334515.95944   2596313.18343  23696092.0394   23696096.7504
     -3096.8594      -2413.1374
   -251074.22247   -182990.87146  20583052.7734   20583054.6484
      -261.4694       -203.7424
  -2743676.20745  -1159767.33945  22497024.4614   22497028.3984
      2205.1564       1718.3044
   2989042.19846   2329123.85145  22460346.1724   22460350.1454
     -2695.5474      -2100.4264
  -2684173.51545  -1935143.06545  22466575.9224   22466576.1454
      1964.0944       1530.4634
     59437.40846     46314.42446  21255629.5004   21255632.2194
      -504.5164       -393.1294
   -221699.90443   -129024.28542  24584917.0394   24584921.0594
       564.1094        439.5664
  -2698218.97646  -2054944.67546  21209394.9774   21209398.5984
      1962.1254       1528.9294
 98  6 25 15 10 15.0000000  0  8G 2G 4G 5G 7G 8G 9G16G24
   3381014.79745   2632545.99543  23704941.5704   23704947.0784
     -3102.7034      -2417.6914
   -247063.40247   -179865.55246  20583815.7274   20583817.6844
      -273.0944       -212.8004
  -2776724.90045  -1185519.52745  22490736.1254   22490740.0394
      2201.6094       1715.5404
   3029495.01446   2360645.52145  22468043.9454   22468047.5434
     -2697.9534      -2102.3014
  -2713558.51645                  22460984.4144
      1954.1724
     67089.55246     52277.12446  21257085.5634   21257088.2934
      -515.5314       -401.7134
   -230090.12944   -135562.11042  24583319.8524   24583324.9494
       554.8754        432.3704
  -2727585.00046  -2077827.27246  21203806.7034   21203810.2194
      1953.5314       1522.2324
 98  6 25 15 10 30.0000000  0  8G 2G 4G 5G 7G 8G 9G16G24
   3427597.66844   2668844.34243  23713805.1254   23713810.1054
     -3108.3444      -2422.0864
   -242879.82047   -176605.60846  20584612.0554   20584613.9884
      -284.7034       -221.8474
  -2809721.73145  -1211231.33345  22484457.0864   22484460.2274
      2197.9224       1712.6664
   3069983.67746   2392195.13245  22475748.4534   22475752.1914
     -2700.5004      -2104.2864
  -2742797.17645                  22455420.2734
      1944.3134
     74904.48746     58366.68146  21258572.7814   21258575.3364
      -526.4534       -410.2234
   -238344.91443   -141994.48042  24581748.5784   24581751.7664
       545.8134        425.3084
  -2756822.82046  -2100610.00246  21198242.7974   21198246.4774
      1944.8284       1515.4504
 98  6 25 15 10 45.0000000  0  8G 2G 4G 5G 7G 8G 9G16G24
   3474261.89844   2705206.02843  23722685.1254   23722689.2854
     -3113.7034      -2426.2624
   -238523.99247   -173211.45346  20585440.8754   20585442.8674
      -296.2194       -230.8204
  -2842663.67745  -1236900.35945  22478189.3284   22478193.2774
      2194.1724       1709.7444
   3110509.31346   2423773.54445  22483460.4384   22483464.1294
     -2703.0624      -2106.2824
  -2771889.66045                  22449883.4694
      1934.5944
     82881.34546     64582.41746  21260090.7274   21260093.5164
      -537.2664       -418.6494
   -246466.16443   -148322.66542  24580204.0314   24580207.5474
       536.9384        418.3934
  -2785930.61646  -2123291.35246  21192703.8984   21192707.6604
      1936.0314       1508.5964
 98  6 25 15 11  0.0000000  0  8G 2G 4G 5G 7G 8G 9G16G24
   3521006.24944   2741630.21343  23731580.3134   23731585.9734
     -3119.1724      -2430.5244
   -233997.49247   -169684.29946  20586302.0164   20586304.1024
      -307.6254       -239.7084
  -2875550.56945  -1262526.49345  22471930.2274   22471934.2344
      2190.4534       1706.8474
   3151072.34346   2455381.10645  22491179.5554   22491183.3754
     -2705.6094      -2108.2674
  -2800839.47745                  22444374.1564
      1925.1094
     91018.88146     70923.34646  21261639.1094   21261642.0864
      -548.0624       -427.0624
   -254456.77144   -154549.07642  24578683.8524   24578686.5824
       528.2034        411.5874
  -2814907.28646  -2145870.56646  21187189.6724   21187193.5164
      1927.2664       1501.7654
 98  6 25 15 11 15.0000000  0  8G 2G 4G 5G 7G 8G 9G16G24
   3567835.72044   2778120.60843  23740491.8284   23740497.0784
     -3124.7194      -2434.8464
   -229298.00847   -166022.36146  20587196.5314   20587198.5354
      -319.0004       -248.5714
  -2908379.99845  -1288107.84645  22465682.8284   22465686.8834
      2186.7974       1703.9984
   3191675.93846   2487020.25745  22498906.0554   22498909.7344
     -2708.2344      -2110.3124
  -2829644.84345                  22438893.3594
      1915.5784
     99321.56346     77392.96846  21263219.0004   21263221.7664
      -559.0004       -435.5844
   -262315.34944   -160672.65442  24577187.9924   24577192.1414
       519.6564        404.9274
  -2843751.53846  -2168346.59246  21181700.6334   21181704.3134
      1918.6724       1495.0694
 98  6 25 15 11 30.0000000  0  8G 2G 4G 5G 7G 8G 9G16G24
   3614750.34444   2814677.46643  23749419.5704   23749424.0594
     -3130.3914      -2439.2654
   -224425.39147   -162225.51246  20588123.8524   20588125.6334
      -330.5314       -257.5574
  -2941152.97045  -1313645.21245  22459446.5234   22459450.3794
      2183.0634       1701.0884
   3232321.46846   2518692.09845  22506640.5784   22506645.0554
     -2711.0314      -2112.4924
  -2858305.82545                  22433439.7424
      1906.0634
    107790.73946     83992.32246  21264830.8754   21264833.6764
      -570.0784       -444.2174
   -270046.42744   -166696.81742  24575717.1644   24575719.5784
       511.3444        398.4504
  -2872466.84346  -2190722.13446  21176236.5474   21176240.7074
      1910.1884       1488.4584
 98  6 25 15 11 45.0000000  0  8G 2G 4G 5G 7G 8G 9G16G24
   3661750.35744   2851300.80644  23758363.3204   23758367.7734
     -3136.1874      -2443.7824
   -219379.69247   -158293.79146  20589084.0164   20589086.0434
      -342.1564       -266.6154
  -2973867.75045  -1339137.22645  22453220.6334   22453224.6294
      2178.9064       1697.8494
   3273010.76546   2550398.03345  22514383.0864   22514386.7894
     -2714.1874      -2114.9514
  -2886823.25545                  22428013.1564
      1896.2814
    116427.85346     90722.53846  21266474.5634   21266477.1884
      -581.5314       -453.1414
   -277652.46543   -172623.61442  24574270.1174   24574276.6334
       502.8594        391.8384
  -2901054.51846  -2212998.22646  21170796.2734   21170800.3984
      1901.5004       1481.6884
 98  6 25 15 12  0.0000000  0  8G 2G 4G 5G 7G 8G 9G16G24
   3708834.12944   2887989.44543  23767322.9694   23767328.7234
     -3141.5784      -2447.9834
   -214160.93247   -154227.22246  20590076.9844   20590079.1884
      -353.6414       -275.5644
  -3006520.77645  -1364581.12545  22447006.1724   22447010.2504
      2174.9844       1694.7934
   3313747.48046   2582140.92945  22522135.3054   22522139.5354
     -2717.2814      -2117.3624
  -2915194.16645    -16200.00755  22422613.9614   22422617.1254
      1886.5314       1470.0244
    125236.40546     97586.34346  21268150.6414   21268153.3244
      -592.9064       -462.0054
   -285131.35942   -178451.35242  24572846.2584   24572849.8914
       494.3284        385.1914
  -2929510.67746  -2235171.84346  21165381.4694   21165385.5594
      1892.6884       1474.8214
 98  6 25 15 12 15.0000000  0  8G 2G 4G 5G 7G 8G 9G16G24
   3755998.72045   2924741.02444  23776298.2274   23776303.4654
     -3146.9694      -2452.1834
   -208769.02047   -150025.72946  20591102.9534   20591104.9804
      -365.2344       -284.5984
  -3039117.21245  -1389980.91845  22440804.0864   22440808.3284
      2171.2814       1691.9074
   3354529.53146   2613919.14645  22529896.1254   22529899.8634
     -2720.3754      -2119.7734
  -2943418.29645    -38192.81445  22417243.0234   22417247.1484
      1876.7664       1462.4154
    134216.02746    104583.44946  21269859.5084   21269862.0634
      -604.2974       -470.8814
   -292480.18642   -184177.69341  24571447.0314   24571449.1524
       485.5004        378.3124
  -2957834.03946  -2257241.97746  21159991.5784   21159995.4344
      1883.8444       1467.9304
 98  6 25 15 12 30.0000000  0  8G 2G 4G 5G 7G 8G 9G16G24
   3803245.96145   2961557.04544  23785288.8984   23785292.7304
     -3152.4064      -2456.4204
   -203202.64447   -145688.28446  20592162.3674   20592164.2304
      -376.6874       -293.5234
  -3071657.00945  -1415336.58445  22434612.5554   22434616.1764
      2167.6094       1689.0464
   3395362.35646   2645736.92645  22537666.0394   22537669.8594
     -2723.7344      -2122.3904
  -2971495.78045    -60071.36445  22411899.9694   22411903.6484
      1867.1414       1454.9154
    143367.69146    111714.61346  21271600.8594   21271603.7304
      -615.6874       -479.7564
   -299693.97543   -189798.72141  24570074.8054   24570081.5434
       476.6254        371.3964
  -2986023.30146  -2279207.62246  21154627.3524   21154631.3594
      1874.9384       1460.9904
 98  6 25 15 12 45.0000000  0  8G 2G 4G 5G 7G 8G 9G16G24
   3850572.40145   2998434.76944  23794295.8364   23794301.3674
     -3157.6254      -2460.4874
   -197466.86147   -141218.84146  20593253.8054   20593255.6914
      -387.9064       -302.2654
  -3104143.81145  -1440650.95245  22428430.6094   22428434.9344
      2164.2034       1686.3924
   3436243.24646   2677592.16245  22545445.7504   22545449.4884
     -2726.7974      -2124.7774
  -2999429.77945    -81838.09445  22406584.3204   22406588.6454
      1857.6564       1447.5244
    152687.24846    118976.60446  21273374.2424   21273377.0784
      -626.6564       -488.3044
   -306776.56244   -195317.63742  24568727.8914   24568734.5594
       467.8754        364.5784
  -3014081.11646  -2301070.83746  21149288.1024   21149291.9924
      1866.3134       1454.2694
 98  6 25 15 13  0.0000000  0  8G 2G 4G 5G 7G 8G 9G16G24
   3897980.95445   3035376.46344  23803317.2114   23803321.4534
     -3163.6414      -2465.1754
   -191558.97447   -136615.28746  20594378.0314   20594380.0594
      -399.9534       -311.6524
  -3136577.84845  -1465924.20445  22422258.0784   22422261.8634
      2160.2664       1683.3244
   3477170.98646   2709483.89745  22553233.8284   22553237.9304
     -2730.3284      -2127.5284
  -3027219.76245   -103492.62845  22401295.5474   22401297.9024
      1847.6094       1439.6964
    162173.69746    126368.63946  21275179.6954   21275182.5664
      -638.3124       -497.3864
   -313723.71544   -200731.03442  24567405.7114   24567413.0984
       458.2814        357.1024
  -3042007.36546  -2322831.53446  21143973.7814   21143977.6484
      1857.1094       1447.0984
 98  6 25 15 13 15.0000000  0  8G 2G 4G 5G 7G 8G 9G16G24
   3945475.90645   3072385.51044  23812354.7894   23812360.3914
     -3169.2504      -2469.5454
   -185474.55947   -131874.18246  20595535.8524   20595537.9844
      -411.5474       -320.6864
  -3168958.68545  -1491155.99945  22416096.1954   22416100.4964
      2156.9384       1680.7314
   3518144.66446   2741411.44445  22561030.9694   22561034.9064
     -2733.0474      -2129.6474
  -3054864.66745   -125034.07945  22396035.7424   22396040.5234
      1838.0634       1432.2564
    171829.96246    133892.99946  21277017.2734   21277019.9694
      -649.4064       -506.0314
   -320529.78643   -206034.41842  24566110.2504   24566115.3714
       448.9384        349.8214
  -3069801.17946  -2344489.03746  21138685.1724   21138688.9224
      1848.5164       1440.4024
 98  6 25 15 13 30.0000000  0  8G 2G 4G 5G 7G 8G 9G16G24
   3993061.39345   3109465.08044  23821410.4694   23821415.2034
     -3175.2194      -2474.1964
   -179209.60947   -126992.39346  20596728.0084   20596729.9654
      -423.5944       -330.0734
  -3201283.52945  -1516344.17745  22409945.1564   22409949.2344
      2153.1564       1677.7844
   3559165.02646   2773375.35545  22568836.7274   22568840.8754
     -2736.1414      -2132.0584
  -3082360.00745   -146458.99445  22390803.9614   22390807.7114
      1828.1414       1424.5254
    181659.32346    141552.24146  21278887.3134   21278890.3014
      -661.0164       -515.0774
   -327188.85443   -211223.27842  24564842.9144   24564847.7894
       439.0944        342.1514
  -3097459.95546  -2366041.31146  21133421.6254   21133425.3984
      1839.5004       1433.3774
 98  6 25 15 13 45.0000000  0  8G 2G 4G 5G 7G 8G 9G16G24
   4040731.36745   3146610.49243  23830480.7344   23830486.3364
     -3180.8754      -2478.6044
   -172767.08347   -121972.24146  20597954.2814   20597956.2384
      -435.5474       -339.3874
  -3233554.35645  -1541490.24445  22403804.2274   22403807.8484
      2149.4844       1674.9234
   3600228.37046   2805372.76445  22576651.1724   22576654.8054
     -2739.0944      -2134.3594
  -3109709.74045   -167770.47845  22385598.9384   22385603.2504
      1818.3444       1416.8914
    191658.89446    149344.10746  21280790.2034   21280792.8634
      -672.3444       -523.9044
   -333701.46544   -216298.08342  24563603.4144   24563608.0204
       429.1094        334.3714
  -3124986.40546  -2387490.47846  21128183.6724   21128187.5164
      1830.5634       1426.4124
 98  6 25 15 14  0.0000000  0  8G 2G 4G 5G 7G 8G 9G16G24
   4088487.27545   3183822.83644  23839569.1484   23839574.3754
     -3186.4844      -2482.9754
   -166141.44247   -116809.39746  20599214.6724   20599216.5474
      -447.7814       -348.9204
  -3265767.95945  -1566591.73645  22397672.7584   22397676.5904
      2145.7814       1672.0374
   3641337.92146   2837406.17745  22584473.7344   22584477.1214
     -2742.0314      -2136.6484
  -3136909.55445   -188965.10945  22380422.6564   22380425.9144
      1808.5164       1409.2334
    201829.79846    157269.48846  21282725.9774   21282728.7544
      -683.6414       -532.7074
   -340061.16643   -221253.68942  24562393.8054   24562400.0984
       418.9694        326.4694
  -3152375.36946  -2408832.51646  21122971.5474   21122975.3204
      1821.3754       1419.2534
 98  6 25 15 14 15.0000000  0  8G 2G 4G 5G 7G 8G 9G16G24
   4136330.18245   3221103.01344  23848673.5864   23848678.3094
     -3192.5314      -2487.6874
   -159330.05847   -111501.82246  20600511.0864   20600512.8794
      -460.2814       -358.6614
  -3297925.21745  -1591649.31045  22391554.3984   22391558.4304
      2141.9534       1669.0544
   3682491.75246   2869474.09645  22592305.4774   22592309.0634
     -2745.0004      -2138.9614
  -3163962.18845   -210045.07845  22375274.1024   22375277.5234
      1798.6414       1401.5384
    212170.80246    165327.41146  21284693.4924   21284696.1524
      -695.0784       -541.6194
   -346267.55743   -226089.78942  24561212.3444   24561216.7154
       408.6254        318.4094
  -3179623.91746  -2430065.13446  21117786.5864   21117790.5704
      1811.8754       1411.8514
 98  6 25 15 14 30.0000000  0  8G 2G 4G 5G 7G 8G 9G16G24
   4184262.05845   3258452.49744  23857794.5234   23857799.1414
     -3198.3914      -2492.2524
   -152334.89347   -106051.03846  20601842.2814   20601844.0864
      -472.3914       -368.0974
  -3330026.77845  -1616663.50545  22385445.6024   22385449.4804
      2138.2034       1666.1324
   3723686.37346   2901573.79345  22600144.5864   22600148.1254
     -2747.6414      -2141.0194
  -3190870.59145   -231012.65345  22370154.0084   22370157.6524
      1789.1724       1394.1604
    222679.63346    173516.10746  21286693.5864   21286696.3634
      -706.0944       -550.2034
   -352322.40543   -230807.78042  24560060.1884   24560061.2424
       398.6724        310.6534
  -3206733.62246  -2451189.56246  21112627.6644   21112631.3324
      1802.7344       1404.7284
 98  6 25 15 14 45.0000000  0  8G 2G 4G 5G 7G 8G 9G16G24
   4232282.74145   3295871.18143  23866932.4064   23866937.6214
     -3204.3284      -2496.8794
   -145157.60747   -100458.34446  20603207.8834   20603209.9804
      -484.5784       -377.5934
  -3362070.10245  -1641632.30945  22379347.4534   22379351.2854
      2134.2664       1663.0644
   3764920.61146   2933704.35745  22607990.9614   22607994.9454
     -2750.1724      -2142.9914
  -3217635.88545   -251868.72645  22365061.1174   22365065.9454
      1779.5634       1386.6724
    233355.39746    181834.87746  21288724.8984   21288727.5354
      -717.3444       -558.9694
   -358230.58544   -235411.55242  24558935.5704   24558939.7194
       389.0944        303.1904
  -3233705.85446  -2472206.87046  21107495.1884   21107498.8554
      1793.5474       1397.5694
 98  6 25 15 15  0.0000000  0  8G 2G 4G 5G 7G 8G 9G16G24
   4280391.27744   3333358.33643  23876087.5944   23876093.6174
     -3210.2344      -2501.4814
   -137797.30447    -94723.03646  20604608.4534   20604610.4454
      -496.8594       -387.1634
  -3394054.54345  -1666555.21245  22373262.0784   22373266.0394
      2130.2664       1659.9474
   3806191.79446   2965863.72545  22615844.4454   22615848.0904
     -2752.6724      -2144.9394
  -3244259.13845   -272614.07145  22359995.1484   22359998.5824
      1770.1564       1379.3434
    244198.79746    190284.27746  21290788.5164   21290791.2584
      -728.5314       -567.6874
   -363995.72644   -239903.90142  24557839.3834   24557844.9964
       379.5944        295.7874
  -3260540.43446  -2493116.91646  21102388.2894   21102392.1214
      1784.3594       1390.4104
 98  6 25 15 15 15.0000000  0  8G 2G 4G 5G 7G 8G 9G16G24
   4328587.06544   3370913.45243  23885259.3594   23885263.8954
     -3215.9064      -2505.9014
   -130254.55347    -88845.56246  20606043.6254   20606045.6524
      -508.8914       -396.5384
  -3425978.81945  -1691431.26345  22367187.2274   22367191.0354
      2126.2194       1656.7944
   3847499.48046   2998051.52845  22623705.2424   22623709.0164
     -2755.1564      -2146.8754
  -3270741.46245   -293249.67745  22354956.3594   22354960.8364
      1760.7034       1371.9764
    255211.05446    198865.25646  21292883.9384   21292886.7504
      -739.8284       -576.4894
   -369620.42744   -244286.90442  24556768.2584   24556773.4844
       370.2974        288.5434
  -3287239.26246  -2513921.18246  21097308.0314   21097311.7114
      1775.3914       1383.4214
 98  6 25 15 15 30.0000000  0  8G 2G 4G 5G 7G 8G 9G16G24
   4376870.49444   3408536.86543  23894445.9614   23894452.1954
     -3221.6874      -2510.4064
   -122528.83647    -82825.51946  20607514.1254   20607516.2344
      -521.0944       -406.0474
  -3457839.91845  -1716258.07345  22361123.9384   22361127.7704
      2122.0784       1653.5674
   3888848.79046   3030271.74945  22631574.0554   22631577.8754
     -2758.0004      -2149.0914
  -3297077.69045   -313771.36445  22349943.9924   22349947.3794
      1750.8914       1364.3304
    266394.86346    207579.90546  21295012.2344   21295014.9184
      -751.1874       -585.3414
   -375103.53843   -248559.38342  24555725.2034   24555732.5554
       360.9534        281.2624
  -3313799.27846  -2534617.28546  21092253.6724   21092257.6564
      1766.0474       1376.1404
 98  6 25 15 15 45.0000000  0  8G 2G 4G 5G 7G 8G 9G16G24
   4425232.11944   3446221.19643  23903649.6884   23903653.9184
     -3226.6724      -2514.2904
   -114625.12947    -76666.78346  20609018.1094   20609020.2894
      -532.8594       -415.2154
  -3489645.56745  -1741041.67845  22355071.8594   22355075.3524
      2118.4694       1650.7554
   3930236.03846   3062521.56145  22639449.3674   22639452.6954
     -2760.4534      -2151.0024
  -3323272.16145   -334182.65745  22344958.7734   22344963.0044
      1741.5784       1357.0744
    277742.72146    216422.38846  21297171.8444   21297174.3054
      -761.9844       -593.7544
   -380453.95343   -252728.49942  24554707.1644   24554714.6914
       352.2664        274.4934
  -3340222.78046  -2555207.01146  21087225.3284   21087229.4184
      1756.9064       1369.0184
 98  6 25 15 16  0.0000000  0  8G 2G 4G 5G 7G 8G 9G16G24
   4473671.97344   3483966.57343  23912867.3284   23912871.5704
     -3232.0314      -2518.4664
   -106541.61647    -70367.93846  20610556.3444   20610558.4534
      -544.9534       -424.6394
  -3521394.17645  -1765780.83445  22349029.4774   22349033.1334
      2114.6414       1647.7724
   3971663.45446   3094802.65645  22647333.0554   22647336.6174
     -2763.2034      -2153.1454
  -3349322.42645   -354481.52445  22340001.7194   22340004.7774
      1731.7974       1349.4524
    289253.71446    225391.99346  21299362.2664   21299364.8204
      -772.8444       -602.2164
   -385670.26744   -256793.13442  24553714.7114   24553719.2344
       343.2504        267.4684
  -3366505.78546  -2575687.26146  21082223.8524   21082227.6724
      1747.4384       1361.6404
 98  6 25 15 16 15.0000000  0  8G 2G 4G 5G 7G 8G 9G16G24
   4522194.42843   3521776.19143  23922101.4304   23922106.8094
     -3237.5314      -2522.7524
    -98277.24447    -63928.16246  20612129.2114   20612131.2274
      -556.8284       -433.8924
  -3553083.86845  -1790474.07745  22342999.7974   22343003.8754
      2110.7504       1644.7404
   4013132.25546   3127116.00045  22655224.3054   22655228.0554
     -2765.8444      -2155.2034
  -3375226.37945   -374666.43045  22335072.7734   22335077.0864
      1722.1414       1341.9284
    300929.74046    234490.18546  21301584.0944   21301586.9534
      -783.8754       -610.8124
   -390751.62244   -260752.60643  24552747.6484   24552752.6644
       334.3134        260.5034
  -3392644.82846  -2596055.33746  21077249.7734   21077253.6764
      1737.8914       1354.2004
 98  6 25 15 16 30.0000000  0  8G 2G 4G 5G 7G 8G 9G16G24
   4570798.04343   3559649.07243  23931350.1414   23931354.5704
     -3243.1254      -2527.1104
    -89839.76547    -57353.50146  20613734.5394   20613736.6024
      -568.4224       -442.9264
  -3584718.52145  -1815124.44345  22336980.5314   22336984.6454
      2106.9224       1641.7574
   4054637.43446   3159457.69345  22663122.4844   22663126.2464
     -2768.4534      -2157.2364
  -3400984.06045   -394737.32145  22330170.8524   22330173.8164
      1711.9384       1333.9774
    312768.87046    243715.48146  21303837.0554   21303839.7854
      -794.9534       -619.4444
   -395701.84944   -264609.89542  24551805.5864   24551808.7734
       325.4384        253.5884
  -3418644.14546  -2616314.52946  21072302.2664   21072306.2154
      1728.4224       1346.8224
 98  6 25 15 16 45.0000000  0  8G 2G 4G 5G 7G 8G 9G16G24
   4619483.11644   3597585.46643  23940615.1804   23940619.0594
     -3248.3594      -2531.1894
    -81228.14846    -50643.14446  20615373.3834   20615375.3754
      -579.9224       -451.8874
  -3616295.37745  -1839729.76645  22330971.0164   22330974.9534
      2103.2344       1638.8844
   4096182.81846   3191830.71445  22671028.0004   22671031.7854
     -2771.1094      -2159.3064
  -3426589.22545   -414689.37445  22325298.5864   22325302.2544
      1701.8914       1326.1494
    324773.36946    253069.63046  21306121.3594   21306124.1844
      -805.7974       -627.8944
   -400518.67643   -268363.30642  24550888.7664   24550895.3754
       316.7034        246.7824
  -3444502.34446  -2636463.76046  21067381.5164   21067385.5124
      1719.2344       1339.6634
 98  6 25 15 17  0.0000000  0  8G 2G 4G 5G 7G 8G 9G16G24
   4668246.90443   3635583.22442  23949892.6804   23949896.1374
     -3253.5314      -2535.2194
    -72443.55046    -43797.99746  20617044.9384   20617047.0824
      -591.3914       -460.8244
  -3647817.58346  -1864292.49745  22324972.6024   22324976.2234
      2099.7504       1636.1694
   4137770.46646   3224236.65745  22678941.8134   22678945.6804
     -2773.9224      -2161.4984
  -3452041.04745   -434521.95445  22320455.3984   22320459.7464
      1691.5944       1318.1254
    336942.34546    262551.94546  21308436.8984   21308439.6524
      -816.7504       -636.4294
   -405204.44543   -272014.55443  24549997.1644   24550000.4104
       307.9694        239.9764
  -3470221.71946  -2656504.81546  21062487.3204   21062491.3754
      1709.9844       1332.4554
 98  6 25 15 17 15.0000000  0  8G 2G 4G 5G 7G 8G 9G16G24
   4717088.36043   3673641.42243  23959187.9304   23959190.5904
     -3258.5944      -2539.1644
    -63486.21447    -36818.25246  20618749.5164   20618751.4734
      -602.8444       -469.7484
  -3679289.50745  -1888816.07645  22318983.4694   22318986.9264
      2096.6094       1633.7224
   4179401.42846   3256676.36245  22686864.2194   22686868.0164
     -2776.7664      -2163.7134
  -3477336.14845   -454232.40445  22315642.4924   22315646.0904
      1681.0784       1309.9314
    349274.84446    272161.67646  21310783.8594   21310786.7544
      -827.5314       -644.8304
   -409757.51744   -275562.33142  24549130.9064   24549134.8914
       299.1564        233.1094
  -3495801.78746  -2676437.32846  21057619.4774   21057623.3794
      1700.7664       1325.2724
 98  6 25 15 17 30.0000000  0  8G 2G 4G 5G 7G 8G 9G16G24
   4766009.75443   3711761.96142  23968497.6954   23968503.0164
     -3264.2504      -2543.5714
    -54353.35846    -29701.73546  20620487.3524   20620489.5204
      -614.8284       -479.0874
  -3710711.31145  -1913300.57345  22313004.6254   22313008.2934
      2093.0474       1630.9464
   4221078.20646   3289151.77345  22694794.7034   22694798.1484
     -2780.0784      -2166.2954
  -3502468.29545   -473815.90945  22310859.4224   22310863.0084
      1669.9384       1301.2504
    361773.38946    281900.79946  21313162.4064   21313165.0784
      -838.8754       -653.6694
   -414172.30743   -279002.40742  24548289.7114   24548296.4844
       289.4844        225.5724
  -3521238.97346  -2696258.49646  21052779.0474   21052782.9384
      1690.8594       1317.5534
 98  6 25 15 17 45.0000000  0  8G 2G 4G 5G 7G 8G 9G16G24
   4815014.45643   3749947.40842  23977822.6884   23977827.4454
     -3269.7664      -2547.8694
    -45043.32046    -22447.15746  20622258.8984   20622261.0664
      -626.5164       -488.1944
  -3742083.43345  -1937746.36145  22307033.9534   22307038.0554
      2089.7974       1628.4134
   4262800.29346   3321662.49045  22702734.1804   22702737.4844
     -2782.8914      -2168.4864
  -3527437.40845   -493272.32745  22306107.6174   22306111.0044
      1659.2344       1292.9104
    374438.65646    291769.83046  21315572.3834   21315575.0314
      -849.8754       -662.2404
   -418444.26243   -282331.19542  24547476.4224   24547481.4144
       280.1094        218.2674
  -3546529.38846  -2715965.30346  21047966.3134   21047970.2734
      1681.2194       1310.0414
 98  6 25 15 18  0.0000000  0  8G 2G 4G 5G 7G 8G 9G16G24
   4864102.77844   3788198.00443  23987164.1174   23987168.5824
     -3275.4374      -2552.2894
    -35560.64646    -15058.05746  20624063.4774   20624065.3874
      -637.8444       -497.0214
  -3773404.73546  -1962152.54645  22301074.0314   22301077.5004
      2086.3134       1625.6984
   4304562.66546   3354204.57945  22710681.4384   22710685.0004
     -2785.4844      -2170.5074
  -3552246.18645   -512603.83745  22301386.7974   22301390.8754
      1648.5474       1284.5824
    387268.24746    301766.90946  21318013.6644   21318016.4884
      -860.7814       -670.7394
   -422576.24044   -285550.87142  24546691.5554   24546696.9804
       270.7504        210.9744
  -3571677.27346  -2735561.04746  21043180.9224   21043185.1524
      1671.8444       1302.7354
 98  6 25 15 18 15.0000000  0  8G 2G 4G 5G 7G 8G 9G16G24
   4913283.05244   3826520.29243  23996523.4454   23996528.2384
     -3281.7814      -2557.2324
    -25903.80146     -7533.23746  20625901.1094   20625903.2544
      -649.5624       -506.1534
  -3804668.13445  -1986513.60645  22295124.3134   22295127.8874
      2082.2814       1622.5574
   4346369.00146   3386780.94845  22718636.8984   22718640.6134
     -2788.5004      -2172.8574
  -3576889.45045   -531806.37045  22296697.4694   22296701.1604
      1637.3754       1275.8774
    400267.27446    311896.01646  21320487.5394   21320490.1764
      -872.2664       -679.6874
   -426562.43843   -288656.96442  24545932.9774   24545936.5744
       260.9224        203.3164
  -3596681.55146  -2755044.88546  21038422.8134   21038426.9264
      1662.2344       1295.2484
 98  6 25 15 18 30.0000000  0  8G 2G 4G 5G 7G 8G 9G16G24
   4962556.83944   3864915.39543  24005898.8754   24005903.9384
     -3288.0004      -2562.0784
    -16073.68446       126.59946  20627771.9304   20627774.0514
      -661.1724       -515.1994
  -3835872.57645  -2010828.73145  22289186.4614   22289189.6724
      2078.2814       1619.4404
   4388217.85946   3419390.43945  22726600.5314   22726604.3634
     -2791.3594      -2175.0854
  -3601367.78245   -550880.39045  22292038.9384   22292043.1334
      1626.4064       1267.3304
    413437.37846    322158.43046  21322993.5864   21322996.4804
      -883.7344       -688.6244
   -430402.39344   -291649.15342  24545202.2734   24545206.9494
       251.0314        195.6094
  -3621544.61446  -2774418.68846  21033691.6334   21033695.4884
      1652.8594       1287.9424
 98  6 25 15 18 45.0000000  0  8G 2G 4G 5G 7G 8G 9G16G24
   5011920.66144   3903380.70743  24015293.2734   24015298.3484
     -3293.7664      -2566.5714
     -6069.51246      7922.06046  20629675.6414   20629677.5984
      -672.7034       -524.1844
  -3867017.37945  -2035097.39245  22283259.8204   22283263.3594
      2074.3914       1616.4084
   4430109.45346   3452033.23845  22734572.4844   22734576.0354
     -2794.1724      -2177.2774
  -3625684.28945   -569828.28745  22287412.1254   22287416.0634
      1615.9384       1259.1724
    426777.02846    332552.95346  21325531.8914   21325534.6684
      -894.8284       -697.2694
   -434095.12644   -294526.59642  24544500.3444   24544505.6644
       241.2974        188.0244
  -3646268.61646  -2793684.13546  21028986.7664   21028990.4454
      1643.7034       1280.8084
 98  6 25 15 19  0.0000000  0  8G 2G 4G 5G 7G 8G 9G16G24
   5061372.42844   3941914.51743  24024704.0864   24024707.9774
     -3299.6094      -2571.1244
      4109.80246     15853.99746  20631612.4064   20631614.3754
      -684.2974       -533.2184
  -3898101.04745  -2059318.40745  22277344.7584   22277348.1914
      2070.3134       1613.2314
   4472044.87046   3484710.17445  22742552.3134   22742555.8874
     -2796.9534      -2179.4444
  -3649845.79545   -588655.43245  22282814.8204   22282819.6604
      1605.7974       1251.2704
    440283.81746    343077.71946  21328102.2194   21328104.9264
      -905.9224       -705.9134
   -437638.96245   -297288.03442  24543825.3754   24543831.1764
       231.4534        180.3534
  -3670854.35046  -2812841.84146  21024308.0394   21024311.9414
      1634.5784       1273.6974
 98  6 25 15 19 15.0000000  0  8G 2G 4G 5G 7G 8G 9G16G24
   5110912.01645   3980516.75144  24034131.5704   24034134.1254
     -3305.5624      -2575.7634
     14462.37246     23920.93946  20633582.8674   20633585.0354
      -695.9064       -542.2654
  -3929122.66445  -2083491.08145  22271441.2894   22271444.7704
      2066.0164       1609.8824
   4514019.89546   3517417.97145  22750539.7194   22750543.1764
     -2799.5314      -2181.4534
  -3673855.28845   -607364.11045  22278245.0634   22278249.2114
      1595.6564       1243.3694
    453958.08746    353732.98746  21330704.6884   21330707.4184
      -917.1414       -714.6554
   -441035.61644   -299934.75042  24543178.1024   24543183.3984
       221.4844        172.5854
  -3695301.36646  -2831891.45246  21019656.0164   21019659.9884
      1625.1254       1266.3314
 98  6 25 15 19 30.0000000  0  8G 2G 4G 5G 7G 8G 9G16G24
   5160540.45344   4019188.26743  24043574.6254   24043578.8094
     -3311.5164      -2580.4024
     24987.63646     32122.44646  20635585.7034   20635587.6844
      -707.3594       -551.1894
  -3960077.72445  -2107611.88645  22265550.7034   22265554.4414
      2061.3134       1606.2184
   4556031.14846   3550154.00745  22758534.7504   22758538.4064
     -2801.9064      -2183.3044
  -3697715.22145   -625956.24045  22273704.1804   22273708.0354
      1585.7344       1235.6374
    467798.51146    364517.73046  21333337.9304   21333340.6954
      -928.2344       -723.3004
   -444282.91544   -302465.11542  24542560.3204   24542564.0354
       211.5474        164.8424
  -3719607.21646  -2850831.06446  21015030.8284   21015034.7894
      1615.7034       1258.9894
 98  6 25 15 19 45.0000000  0  8G 2G 4G 5G 7G 8G 9G16G24
   5210259.83444   4057930.60643  24053036.0554   24053042.5234
     -3317.5944      -2585.1384
     35683.60346     40456.97046  20637621.0474   20637623.0984
      -718.7034       -560.0284
  -3990958.47545  -2131674.78245  22259674.2734   22259678.2114
      2056.2344       1602.2614
   4598078.18746   3582917.93045  22766535.6254   22766539.0474
     -2804.2974      -2185.1664
  -3721426.80045   -644432.79845  22269193.1334   22269197.4574
      1575.9064       1227.9794
    481806.48946    375433.03146  21336004.2814   21336007.3754
      -939.3914       -731.9934
   -447379.91745   -304878.38743  24541971.6884   24541975.1214
       201.5474        157.0504
  -3743771.55246  -2869660.40746  21010432.4844   21010436.3754
      1606.2974       1251.6604
 98  6 25 15 20  0.0000000  0  8G 2G 4G 5G 7G 8G 9G16G24
   5260067.64844   4096741.86643  24062514.4924   24062521.4804
     -3323.2344      -2589.5334
     46550.61646     48924.77446  20639688.9224   20639691.1374
      -730.0474       -568.8684
  -4021762.18245  -2155677.65245  22253813.1174   22253817.0204
      2051.0784       1598.2434
   4640161.78646   3615710.33845  22774544.0234   22774547.3054
     -2806.7034      -2187.0414
  -3744989.66145   -662793.45145  22264709.5004   22264712.9574
      1565.9534       1220.2234
    495980.52246    386477.72346  21338701.0944   21338704.0824
      -950.3124       -740.5034
   -450329.51544   -307176.76942  24541411.1644   24541415.5594
       191.9064        149.5374
  -3767795.23046  -2888380.14446  21005860.9384   21005864.8164
      1597.0164       1244.4284
 98  6 25 15 20 15.0000000  0  8G 2G 4G 5G 7G 8G 9G16G24
   5309955.51844   4135615.48743  24072007.4844   24072013.5784
     -3328.4844      -2593.6244
     57585.01346     57523.01146  20641788.4304   20641790.3164
      -741.2814       -577.6224
  -4052493.49645  -2179624.11145  22247964.6644   22247968.5784
      2046.4844       1594.6634
   4682279.02146   3648528.95545  22782558.7274   22782562.5594
     -2809.0004      -2188.8314
  -3768407.37545   -681041.04745  22260252.2584   22260255.9384
      1556.3754       1212.7604
    510316.16946    397648.36146  21341429.1094   21341431.9454
      -961.1724       -748.9654
   -453137.08845   -309364.46743  24540875.9694   24540879.5664
       182.4224        142.1474
  -3791681.62546  -2906992.90746  21001315.4614   21001319.3874
      1587.8284       1237.2694
 98  6 25 15 20 30.0000000  0  8G 2G 4G 5G 7G 8G 9G16G24
   5359921.86844   4174550.27643  24081516.5634   24081522.1994
     -3333.6094      -2597.6184
     68791.77346     66255.55546  20643921.0704   20643923.1684
      -752.9224       -586.6924
  -4083154.77946  -2203515.99145  22242130.1804   22242134.1294
      2041.7664       1590.9864
   4724433.29546   3681376.43645  22790579.9454   22790583.4494
     -2811.5164      -2190.7914
  -3791680.08245   -699175.59245  22255823.7424   22255826.3204
      1546.6884       1205.2114
    524816.57946    408947.37246  21344188.3594   21344191.2304
      -972.1874       -757.5494
   -455801.60745   -311440.69443  24540369.4844   24540374.2424
       172.8754        134.7084
  -3815428.57646  -2925497.01746  20996796.4534   20996800.4384
      1578.3754       1229.9034
 98  6 25 15 20 45.0000000  0  8G 2G 4G 5G 7G 8G 9G16G24
   5409962.33844   4213542.79543  24091038.6024   24091042.7384
     -3338.6724      -2601.5624
     80172.26246     75123.47546  20646086.8524   20646088.8554
      -764.6564       -595.8364
  -4113747.37246  -2227354.35245  22236308.5554   22236312.2584
      2037.0634       1587.3214
   4766625.33746   3714253.35345  22798609.4774   22798613.7664
     -2814.3444      -2192.9954
  -3814807.23645   -717196.73945  22251422.8594   22251426.6804
      1536.6884       1197.4194
    539482.04346    420374.99946  21346979.1174   21346981.8364
      -983.4064       -766.2914
   -458324.29445   -313406.39543  24539889.2034   24539893.8554
       163.2344        127.1964
  -3839032.29046  -2943889.50746  20992304.7344   20992308.6374
      1568.5314       1222.2324
 98  6 25 15 21  0.0000000  0  8G 2G 4G 5G 7G 8G 9G16G24
   5460079.99244   4252595.47543  24100575.8364   24100580.3244
     -3343.7194      -2605.4954
     91728.16746     84128.08146  20648285.8984   20648287.8094
      -776.1254       -604.7734
  -4144270.80346  -2251138.82445  22230499.9614   22230503.7584
      2032.7814       1583.9854
   4808860.48646   3747163.84645  22806646.4534   22806650.9304
     -2817.0314      -2195.0894
  -3837782.03645   -735099.17645  22247050.7664   22247054.6914
      1526.4844       1189.4684
    554314.79246    431932.98146  21349801.9774   21349804.7774
      -994.3594       -774.8254
   -460703.49044   -315260.31343  24539436.3914   24539442.0514
       153.9694        119.9764
  -3862485.99946  -2962165.11346  20987841.7424   20987845.5274
      1558.6254       1214.5134
 98  6 25 15 21 15.0000000  0  8G 2G 4G 5G 7G 8G 9G16G24
   5510274.24644   4291707.81843  24110126.7274   24110131.1684
     -3348.6254      -2609.3184
    103454.95746     93265.84146  20650517.2974   20650519.3954
      -787.2504       -613.4424
  -4174732.28246  -2274875.02545  22224703.8594   22224707.4804
      2029.0004       1581.0394
   4851135.33246   3780105.27245  22814691.0704   22814695.4884
     -2819.3914      -2196.9284
  -3860600.89045   -752880.07645  22242709.1564   22242713.9614
      1516.1414       1181.4084
    569313.47146    443620.25946  21352656.1414   21352659.0234
     -1005.3124       -783.3604
   -462944.34645   -317006.40843  24539009.5864   24539014.9534
       145.0474        113.0244
  -3885791.68146  -2980325.37446  20983406.6564   20983410.8164
      1549.0004       1207.0134
 98  6 25 15 21 30.0000000  0  8G 2G 4G 5G 7G 8G 9G16G24
   5560544.88344   4330879.74044  24119693.8054   24119699.8054
     -3354.0164      -2613.5194
    115352.71346    102536.82446  20652781.1484   20652783.0124
      -799.0314       -622.6224
  -4205134.51946  -2298565.05845  22218917.8284   22218921.2274
      2024.7664       1577.7394
   4893449.62846   3813077.44145  22822743.5314   22822748.1724
     -2822.3914      -2199.2654
  -3883258.15645   -770535.08845  22238397.4844   22238401.7504
      1504.9224       1172.6664
    584479.96846    455438.30146  21355542.1564   21355545.0394
     -1016.7344       -792.2614
   -465046.73044   -318644.64542  24538608.5784   24538614.1454
       135.3134        105.4384
  -3908949.69746  -2998370.57346  20978999.9844   20979003.9924
      1538.9064       1199.1484
 98  6 25 15 21 45.0000000  0  8G 2G 4G 5G 7G 8G 9G16G24
   5610893.38944   4370112.25444  24129274.7114   24129279.7034
     -3359.2974      -2617.6344
    127425.17446    111943.93946  20655078.8444   20655080.7074
      -810.8444       -631.8264
  -4235476.81346  -2322208.39245  22213144.6884   22213148.0164
      2020.7344       1574.5984
   4935806.39446   3846082.70445  22830803.2814   22830807.1724
     -2825.4064      -2201.6154
  -3905749.99545   -788061.16345  22234117.3444   22234122.0434
      1493.7664       1163.9734
    599815.09846    467387.74746  21358460.2584   21358463.1294
     -1028.1564       -801.1614
   -467005.47844   -320170.94342  24538236.4534   24538241.8674
       125.6564         97.9144
  -3931960.59846  -3016301.13546  20974621.2034   20974624.9884
      1529.0164       1191.4414
 98  6 25 15 22  0.0000000  0  8G 2G 4G 5G 7G 8G 9G16G24
   5661316.92644   4409403.30744  24138869.4924   24138875.8554
     -3364.1254      -2621.3964
    139672.27846    121487.14346  20657409.2344   20657411.2034
      -822.4694       -640.8854
  -4265765.28445  -2345809.77645  22207380.1644   22207383.4224
      2017.4384       1572.0294
   4978204.87546   3879120.47145  22838871.5394   22838875.3484
     -2828.0944      -2203.7094
  -3928078.18645   -805459.77345  22229867.9694   22229871.7894
      1483.0164       1155.5974
    615316.79946    479466.99046  21361409.8204   21361412.7974
     -1039.0784       -809.6714
   -468822.90344   -321587.10743  24537891.0314   24537896.9614
       116.3284         90.6454
  -3954827.16746  -3034119.22946  20970269.7584   20970273.6484
      1519.5634       1184.0754
 98  6 25 15 22 15.0000000  0  8G 2G 4G 5G 7G 8G 9G16G24
   5711815.15645   4448752.54943  24148479.1334   24148485.2734
     -3369.1094      -2625.2804
    152096.40446    131168.28146  20659773.5234   20659775.2464
      -834.0624       -649.9194
  -4296002.82545  -2369371.48745  22201626.4774   22201630.0744
      2014.2974       1569.5824
   5020645.80246   3912191.32445  22846947.9304   22846950.7194
     -2830.7034      -2205.7434
  -3950243.33745   -822731.29245  22225650.3674   22225653.8134
      1472.3754       1147.3054
    630985.78746    491676.58346  21364391.7034   21364394.5634
     -1050.1874       -818.3284
   -470496.97745   -322891.57744  24537572.3834   24537577.0704
       106.8134         83.2314
  -3977549.20046  -3051824.70146  20965946.2194   20965950.0274
      1510.0314       1176.6484
 98  6 25 15 22 30.0000000  0  8G 2G 4G 5G 7G 8G 9G16G24
   5762394.25744   4488164.84543  24158104.2424   24158109.0944
     -3374.7034      -2629.6394
    164697.53446    140987.34746  20662171.3444   20662173.0784
      -845.9844       -659.2094
  -4326190.86645  -2392894.59645  22195882.1954   22195885.6294
      2010.8284       1566.8794
   5063129.94946   3945295.84345  22855031.9774   22855035.8674
     -2833.7664      -2208.1294
  -3972246.13445   -839876.34045  22221462.5084   22221466.5514
      1461.4064       1138.7584
    646825.32446    504019.08046  21367405.7734   21367408.7734
     -1061.6254       -827.2404
   -472023.29145   -324080.91944  24537282.3594   24537286.6844
        96.7974         75.4264
  -4000125.14446  -3069416.33246  20961650.1414   20961653.9844
      1500.2034       1168.9894
 98  6 25 15 22 45.0000000  0  8G 2G 4G 5G 7G 8G 9G16G24
   5813056.06544   4527641.53343  24167745.2894   24167750.9144
     -3380.1724      -2633.9004
    177474.71746    150943.59846  20664602.8204   20664604.6374
      -857.5314       -668.2064
  -4356326.73946  -2416377.08045  22190147.5554   22190151.4694
      2007.3134       1564.1404
   5105657.64546   3978434.31145  22863124.9224   22863128.4734
     -2836.5314      -2210.2844
  -3994085.81946   -856894.22945  22217307.7274   22217311.0664
      1450.5474       1130.2964
    662833.29146    516492.81246  21370451.9224   21370454.7704
     -1072.7194       -835.8854
   -473401.00944   -325154.46443  24537019.5474   24537024.7734
        86.9384         67.7444
  -4022554.74146  -3086893.93946  20957381.7424   20957385.3874
      1490.4694       1161.4044
 98  6 25 15 23  0.0000000  0  8G 2G 4G 5G 7G 8G 9G16G24
   5863801.76844   4567183.54943  24177400.9384   24177406.0704
     -3386.1254      -2638.5394
    190425.05146    161034.77046  20667066.9774   20667069.0394
      -869.3284       -677.3994
  -4386408.84946  -2439817.66245  22184422.6884   22184425.7584
      2003.4384       1561.1204
   5148227.18845   4011605.37045  22871225.7034   22871229.2544
     -2839.5474      -2212.6344
  -4015762.22645   -873784.95345  22213183.1414   22213187.8054
      1439.4694       1121.6644
    679007.86746    529096.37046  21373530.0004   21373532.8594
     -1084.0004       -844.6754
   -474628.98243   -326111.31142  24536784.8284   24536791.0864
        76.6094         59.6964
  -4044838.77846  -3104258.10846  20953141.2894   20953145.0044
      1480.5634       1153.6854
 98  6 25 15 23 15.0000000  0  8G 2G 4G 5G 7G 8G 9G16G24
   5914637.23544   4606795.59743  24187075.4304   24187079.9654
     -3391.9064      -2643.0444
    203553.70346    171264.89046  20669565.6804   20669567.5904
      -881.2034       -686.6524
  -4416430.55346  -2463211.17245  22178709.8444   22178713.2774
      1999.3594       1557.9424
   5190841.25546   4044811.13545  22879335.1564   22879339.6214
     -2842.2974      -2214.7774
  -4037273.31445   -890546.83145  22209088.9224   22209092.1214
      1428.6724       1113.2514
    695351.13646    541831.38346  21376640.1174   21376643.1884
     -1095.1724       -853.3814
   -475701.55344   -326947.01142  24536581.4774   24536587.0784
        66.3754         51.7214
  -4066975.16146  -3121507.22746  20948928.9144   20948932.7234
      1470.9844       1146.2224
 98  6 25 15 23 30.0000000  0  8G 2G 4G 5G 7G 8G 9G16G24
   5965558.46343   4646474.45443  24196765.0234   24196769.4774
     -3397.4374      -2647.3544
    216862.05446    181635.03546  20672098.1724   20672100.2344
      -893.1564       -695.9664
  -4446387.33146  -2486554.11245  22173009.0944   22173012.3634
      1994.9224       1554.4854
   5233495.67545   4078048.33245  22887452.1094   22887455.8364
     -2844.8444      -2216.7614
  -4058623.56845   -907183.36445  22205026.7814   22205031.1414
      1418.1884       1105.0814
    711862.92546    554697.70746  21379782.0234   21379784.9654
     -1106.2194       -861.9894
   -476620.51145   -327663.10843  24536407.1174   24536411.9694
        56.2974         43.8684
  -4088968.43546  -3138644.83246  20944743.5704   20944747.2974
      1461.5634       1138.8804
 98  6 25 15 23 45.0000000  0  8G 2G 4G 5G 7G 8G 9G16G24
   6016562.88843   4686218.10343  24206469.3054   24206474.2274
     -3403.3284      -2651.9444
    230350.77846    192145.73246  20674664.8444   20674666.8484
      -905.4534       -705.5484
  -4476274.49046  -2509842.78745  22167321.2504   22167324.4734
      1989.8914       1550.5644
   5276188.88345   4111315.76545  22895576.4454   22895580.5594
     -2847.6874      -2218.9774
  -4079818.02445   -923698.53745  22200992.6564   22200995.9964
      1407.6414       1096.8634
    728539.27946    567692.26446  21382955.8834   21382958.9884
     -1117.4534       -870.7434
   -477387.37745   -328260.67243  24536261.5314   24536267.0744
        45.8754         35.7474
  -4110819.82146  -3155671.87946  20940585.6094   20940589.2664
      1451.8134       1131.2824
 98  6 25 15 24  0.0000000  0  8G 2G 4G 5G 7G 8G 9G16G24
   6067653.45043   4726028.89142  24216192.5234   24216196.5204
     -3409.1724      -2656.4984
    244018.49946    202795.90546  20677265.8754   20677267.9964
      -917.3594       -714.8254
  -4506089.23746  -2533075.03645  22161648.4614   22161651.9414
      1984.9844       1546.7414
   5318921.22145   4144613.69245  22903707.7114   22903711.6954
     -2850.4064      -2221.0964
  -4100859.48645   -940094.44345  22196989.3984   22196993.2424
      1397.3754       1088.8644
    745380.85046    580815.55846  21386160.5164   21386163.5274
     -1128.5314       -879.3754
   -478004.88945   -328741.83643  24536143.9224   24536150.2624
        36.0004         28.0524
  -4132528.35246  -3172587.60746  20936454.2664   20936457.8634
      1442.1724       1123.7704
 98  6 25 15 24 15.0000000  0  8G 2G 4G 5G 7G 8G 9G16G24
   6118829.93343   4765906.66842  24225931.7894   24225937.8594
     -3414.5944      -2660.7224
    257862.78846    213583.66446  20679900.2584   20679902.4024
      -928.8124       -723.7504
  -4535832.17446  -2556251.33345  22155988.3674   22155991.6254
      1980.4384       1543.1984
   5361692.34745   4177941.83045  22911847.2664   22911851.0984
     -2852.6724      -2222.8614
  -4121747.53645   -956370.88345  22193013.9694   22193017.9654
      1387.3914       1081.0844
    762386.80146    594066.95146  21389396.5554   21389399.4144
     -1139.2504       -887.7274
   -478476.20944   -329109.09743  24536054.0704   24536059.8134
        26.5474         20.6864
  -4154094.39446  -3189392.30346  20932350.3674   20932354.1524
      1432.9534       1116.5874
 98  6 25 15 24 30.0000000  0  8G 2G 4G 5G 7G 8G 9G16G24
   6170091.80842   4805851.05741  24235686.9844   24235692.4104
     -3420.4534      -2665.2884
    271882.37146    224508.02246  20682568.1804   20682570.4064
      -940.6094       -732.9424
  -4565501.79146  -2579370.48845  22150342.6954   22150346.0354
      1975.3444       1539.2294
   5404501.68445   4211299.74145  22919993.2424   22919997.2274
     -2855.3754      -2224.9684
  -4142480.16645   -972526.13945  22189068.4224   22189072.2664
      1376.7664       1072.8044
    779558.45946    607447.45646  21392664.1884   21392666.9534
     -1150.3914       -896.4084
   -478802.21544   -329363.09643  24535990.8054   24535995.0704
        16.8134         13.1014
  -4175515.78946  -3206084.28946  20928274.0004   20928277.6564
      1423.1094       1108.9164
 98  6 25 15 24 45.0000000  0  8G 2G 4G 5G 7G 8G 9G16G24
   6221440.03842   4845862.47241  24245457.9694   24245462.3524
     -3425.9694      -2669.5864
    286079.58846    235570.78746  20685269.6804   20685271.9654
      -952.4064       -742.1354
  -4595091.97346  -2602427.75745  22144711.7734   22144714.8674
      1969.9064       1534.9924
   5447351.95345   4244689.56645  22928147.6254   22928151.1884
     -2858.0004      -2227.0134
  -4163051.20945   -988555.51945  22185154.1484   22185158.3444
      1365.9384       1064.3674
    796896.17546    620957.36046  21395963.1644   21395965.8714
     -1161.3594       -904.9554
   -478984.17144   -329504.84744  24535957.1724   24535962.5394
         7.4224          5.7834
  -4196789.01446  -3222660.81746  20924225.9534   20924229.4574
      1413.2974       1101.2704
 98  6 25 15 25  0.0000000  0  8G 2G 4G 5G 7G 8G 9G16G24
   6272868.51341   4885936.59041  24255242.2274   24255248.7894
     -3431.1254      -2673.6044
    300452.30046    246770.30546  20688004.6174   20688006.6094
      -963.9224       -751.1084
  -4624602.16246  -2625422.68645  22139095.7974   22139098.8794
      1964.8284       1531.0354
   5490238.56845   4278107.70345  22936308.3364   22936312.2974
     -2860.1874      -2228.7184
  -4183459.96945  -1004458.43345  22181270.7034   22181274.4064
      1355.2344       1056.0274
    814397.89846    634595.06346  21399294.0704   21399296.7424
     -1172.2194       -913.4174
   -479026.16445   -329537.55843  24535949.3284   24535954.5904
        -1.7504         -1.3644
  -4217917.53046  -3239124.58946  20920205.5234   20920209.3444
      1403.9064       1093.9534
 98  6 25 15 25 15.0000000  0  8G 2G 4G 5G 7G 8G 9G16G24
   6324375.58841   4926071.97541  24265044.9064   24265049.8524
     -3436.5624      -2677.8414
    314999.01246    258105.40646  20690772.8594   20690774.8634
      -975.7344       -760.3124
  -4654036.64146  -2648358.62345  22133494.5164   22133498.1844
      1959.7034       1527.0414
   5533158.35245   4311551.67545  22944475.7034   22944480.0044
     -2862.5474      -2230.5564
  -4203707.70145  -1020235.88645  22177417.6954   22177421.7274
      1344.3754       1047.5654
    832064.22546    648361.03046  21402655.6414   21402658.8054
     -1183.4064       -922.1354
   -478930.07245   -329462.70544  24535967.7274   24535971.4304
       -11.1414         -8.6814
  -4238905.27746  -3255478.66446  20916211.5164   20916215.1134
      1394.3594       1086.5144
 98  6 25 15 25 30.0000000  0  8G 2G 4G 5G 7G 8G 9G16G24
   6375961.88041   4966268.99341  24274862.2424   24274865.8634
     -3441.4844      -2681.6764
    329721.07446    269577.14846  20693574.5314   20693576.4654
      -987.1094       -769.1764
  -4683397.19146  -2671236.95445  22127907.0554   22127910.5004
      1955.1254       1523.4744
   5576111.46145   4345021.63645  22952649.6024   22952653.8324
     -2864.4534      -2232.0414
  -4223793.06245  -1035886.80945  22173595.6254   22173599.3164
      1333.7344       1039.2744
    849897.40946    662257.01446  21406049.2034   21406052.0274
     -1194.2974       -930.6214
   -478695.55145   -329279.96844  24536012.6414   24536017.2464
       -20.0314        -15.6094
  -4259752.16746  -3271722.98146  20912244.5784   20912248.3164
      1385.2974       1079.4524
 98  6 25 15 25 45.0000000  0  8G 2G 4G 5G 7G 8G 9G16G24
   6427625.29442   5006526.24041  24284693.1804   24284700.5904
     -3446.8284      -2685.8404
    344616.10146    281183.66446  20696408.7734   20696410.9064
      -998.7194       -778.2224
  -4712686.86046  -2694060.05345  22122334.1564   22122337.2034
      1950.3914       1519.7854
   5619097.60345   4378517.32145  22960829.8524   22960834.3164
     -2866.9224      -2233.9654
  -4243715.38145  -1051410.68945  22169804.2344   22169808.1024
      1322.7344       1030.7024
    867896.61446    676282.35746  21409474.8524   21409477.6414
     -1205.4374       -939.3024
   -478323.64445   -328990.15944  24536083.1954   24536088.0124
       -29.4534        -22.9504
  -4280457.91646  -3287857.31946  20908304.3914   20908308.0234
      1375.6724       1071.9524
 98  6 25 15 26  0.0000000  0  8G 2G 4G 5G 7G 8G 9G16G24
   6479370.51542   5046847.12241  24294540.4064   24294548.4844
     -3452.5944      -2690.3334
    359684.21846    292925.06146  20699276.0864   20699278.3714
     -1010.4844       -787.3904
  -4741908.42346  -2716830.09245  22116773.7664   22116776.9534
      1945.7194       1516.1444
   5662122.02146   4412042.82145  22969016.9384   22969021.5434
     -2869.7344      -2236.1574
  -4263471.90445  -1066805.36245  22166044.8134   22166049.0434
      1311.3444       1021.8264
    886063.65946    690438.50146  21412931.1644   21412933.8954
     -1216.9374       -948.2634
   -477807.57445   -328588.00844  24536181.5554   24536186.5474
       -39.4694        -30.7554
  -4301018.70646  -3303878.70646  20904391.7424   20904395.4804
      1365.6414       1064.1364
 98  6 25 15 26 15.0000000  0  8G 2G 4G 5G 7G 8G 9G16G24
   6531197.56241   5087231.80842  24304402.4144   24304408.6954
     -3457.6564      -2694.2784
    374927.24746    304802.74646  20702176.8674   20702179.0124
     -1021.9694       -796.3394
  -4771062.55646  -2739547.56945  22111225.6564   22111229.0084
      1941.5004       1512.8574
   5705186.82945   4445599.82445  22977211.5704   22977215.6954
     -2872.2664      -2238.1294
  -4283058.33945  -1082067.51245  22162317.6564   22162321.4534
      1300.1564       1013.1094
    904400.25946    704726.75346  21416420.9064   21416423.7664
     -1227.9694       -956.8594
   -477143.18845   -328070.28043  24536307.6804   24536313.1644
       -49.1724        -38.3164
  -4321429.32146  -3319783.07146  20900507.6484   20900511.3634
      1355.7504       1056.4294
 98  6 25 15 26 30.0000000  0  8G 2G 4G 5G 7G 8G 9G16G24
   6583100.79243   5127675.80942  24314279.9454   24314285.2074
     -3462.8594      -2698.3324
    390345.89346    316817.27846  20705110.9534   20705112.8404
     -1033.8754       -805.6174
  -4800150.75546  -2762213.68545  22105690.2664   22105693.3134
      1936.8754       1509.2534
   5748292.01846   4479188.27045  22985414.5084   22985418.1294
     -2875.1414      -2240.3694
  -4302474.98345  -1097197.35945  22158622.7504   22158626.6294
      1288.6884       1004.1724
    922905.57046    719146.46946  21419942.3134   21419945.3594
     -1239.4534       -965.8084
   -476329.62245   -327436.34243  24536462.4694   24536467.2034
       -59.3594        -46.2544
  -4341688.70246  -3335569.58946  20896652.6094   20896656.3834
      1345.3914       1048.3564
 98  6 25 15 26 45.0000000  0  8G 2G 4G 5G 7G 8G 9G16G24
   6635078.71043   5168178.02242  24324172.0004   24324175.1054
     -3467.7194      -2702.1194
    405937.63846    328966.69546  20708077.7034   20708079.5434
     -1045.2194       -814.4564
  -4829174.57846  -2784829.62745  22100166.8284   22100169.8634
      1932.7974       1506.0754
   5791436.42945   4512807.30645  22993624.4534   22993628.1334
     -2877.6724      -2242.3424
  -4321724.96945  -1112197.35345  22154958.8054   22154962.8134
      1277.7664        995.6624
    941577.95146    733696.36946  21423495.8054   21423498.5944
     -1250.3914       -974.3304
   -475367.52145   -326686.64843  24536645.7504   24536650.5904
       -69.1094        -53.8514
  -4361796.92346  -3351238.32246  20892825.9454   20892829.7194
      1335.5634       1040.6984
 98  6 25 15 27  0.0000000  0  8G 2G 4G 5G 7G 8G 9G16G24
   6687131.47543   5208738.62241  24334076.2034   24334082.8714
     -3472.6724      -2705.9784
    421700.50146    341249.45046  20711077.4924   20711079.6954
     -1056.4844       -823.2354
  -4858134.95246  -2807396.13345  22094656.0784   22094658.9024
      1928.6884       1502.8734
   5834620.97845   4546457.59945  23001842.3054   23001847.0634
     -2880.2344      -2244.3384
  -4340809.14845  -1127068.11645  22151327.5704   22151331.2974
      1266.8754        987.1754
    960417.06346    748376.19746  21427080.5944   21427083.4774
     -1261.4844       -982.9754
   -474255.04845   -325819.76143  24536857.2974   24536861.2704
       -79.2194        -61.7294
  -4381756.60946  -3366791.31346  20889027.9534   20889031.8914
      1325.7974       1033.0884
 98  6 25 15 27 15.0000000  0  8G 2G 4G 5G 7G 8G 9G16G24
   6739261.70343   5249359.53842  24343996.1724   24344001.5864
     -3477.9374      -2710.0814
    437633.38346    353664.68546  20714109.2974   20714111.2664
     -1067.7814       -832.0374
  -4887034.18746  -2829915.00545  22089157.0864   22089160.4144
      1924.6254       1499.7084
   5877846.26345   4580139.63045  23010068.0314   23010073.1174
     -2883.0474      -2246.5304
  -4359730.07045  -1141811.69445  22147726.7664   22147730.7974
      1256.0474        978.7384
    979424.19246    763186.94346  21430697.6174   21430700.5004
     -1272.6874       -991.7054
   -472987.97345   -324832.42143  24537098.5314   24537104.0744
       -89.5474        -69.7774
  -4401568.48746  -3382229.12746  20885257.6644   20885261.6134
      1315.8444       1025.3334
 98  6 25 15 27 30.0000000  0  8G 2G 4G 5G 7G 8G 9G16G24
   6791470.56944   5290041.75642  24353931.9844   24353936.0044
     -3483.2504      -2714.2214
    453735.74446    366211.98946  20717173.6644   20717175.7384
     -1079.2034       -840.9374
  -4915872.33246  -2852386.27745  22083668.8134   22083671.8134
      1920.3914       1496.4084
   5921113.76145   4613854.54745  23018301.2504   23018305.9024
     -2886.0004      -2248.8314
  -4378489.64545  -1156429.52345  22144157.6254   22144161.4104
      1245.1724        970.2644
    998597.77846    778127.39446  21434346.6174   21434349.2074
     -1283.7664      -1000.3374
   -471566.94845   -323725.13843  24537368.6804   24537373.1804
       -99.9374        -77.8734
  -4421231.13146  -3397550.65346  20881516.2114   20881520.0904
      1305.7664       1017.4804
 98  6 25 15 27 45.0000000  0  8G 2G 4G 5G 7G 8G 9G16G24
   6843758.04944   5330785.23642  24363881.0554   24363885.8014
     -3488.1254      -2718.0194
    470008.49946    378892.05546  20720270.1484   20720272.0594
     -1090.1564       -849.4724
  -4944644.46346  -2874806.09745  22078193.4534   22078196.4414
      1916.1884       1493.1334
   5964427.64045   4647605.61345  23026543.7504   23026548.3554
     -2888.8284      -2251.0354
  -4397085.32945  -1170919.67645  22140619.2274   22140623.0594
      1234.6094        962.0334
   1017936.38646    793196.43546  21438026.2814   21438029.0594
     -1294.3754      -1008.6044
   -469990.62045   -322496.83243  24537668.6884   24537673.5514
      -109.9064        -85.6414
  -4440739.63546  -3412752.07546  20877803.3364   20877807.0634
      1295.7194       1009.6514
 98  6 25 15 28  0.0000000  0  8G 2G 4G 5G 7G 8G 9G16G24
   6896122.94743   5371589.00842  24373846.4614   24373850.4224
     -3493.6874      -2722.3544
    486447.91146    391701.99646  20723398.5634   20723400.6254
     -1101.5784       -858.3734
  -4973349.62846  -2897173.73945  22072730.9694   22072734.3674
      1911.3594       1489.3714
   6007786.41545   4681391.66845  23034794.8054   23034799.0354
     -2892.1564      -2253.6284
  -4415519.73045  -1185284.11745  22137111.0234   22137114.5744
      1223.4844        953.3644
   1037436.84946    808391.59546  21441737.1644   21441739.9414
     -1305.5474      -1017.3094
   -468260.73345   -321148.84443  24537997.3834   24538001.5554
      -120.5944        -93.9694
  -4460095.05246  -3427834.20546  20874120.4454   20874124.3954
      1285.1884       1001.4454
 98  6 25 15 28 15.0000000  0  8G 2G 4G 5G 7G 8G 9G16G24
   6948570.30143   5412457.16042  24383826.2034   24383832.4494
     -3499.2194      -2726.6644
    503057.94246    404644.88146  20726559.1884   20726561.2854
     -1113.1414       -867.3824
  -5001982.85146  -2919485.32745  22067282.6174   22067286.2034
      1906.4064       1485.5114
   6051192.44245   4715214.54745  23043054.4454   23043058.3484
     -2895.2664      -2256.0514
  -4433788.28045  -1199519.35145  22133634.9224   22133639.4694
      1212.3444        944.6834
   1057104.06946    823716.69946  21445479.8524   21445482.6524
     -1316.7194      -1026.0154
   -466372.72645   -319677.67343  24538356.4694   24538361.3204
      -131.0624       -102.1274
  -4479292.75946  -3442793.44646  20870467.1484   20870471.0164
      1274.5164        993.1294
 98  6 25 15 28 30.0000000  0  8G 2G 4G 5G 7G 8G 9G16G24
   7001096.81543   5453386.72842  24393821.9534   24393827.3674
     -3504.5474      -2730.8164
    519838.20846    417720.41646  20729752.3284   20729754.5204
     -1124.4064       -876.1614
  -5030544.71746  -2941741.31445  22061847.6644   22061850.9924
      1901.6564       1481.8104
   6094643.09545   4749072.17945  23051323.0474   23051327.4654
     -2898.2664      -2258.3894
  -4451893.37846  -1213627.21245  22130189.4694   22130192.6804
      1201.5314        936.2584
   1076935.64146    839169.86346  21449253.6484   21449256.6604
     -1327.6874      -1034.5624
   -464332.65445   -318087.95843  24538745.6484   24538751.3444
      -141.1254       -109.9684
  -4498334.91146  -3457631.46946  20866843.8914   20866847.4184
      1264.2664        985.1424
 98  6 25 15 28 45.0000000  0  8G 2G 4G 5G 7G 8G 9G16G24
   7053705.70443   5494380.67942  24403832.6564   24403834.7074
     -3510.0944      -2735.1384
    536787.61446    430927.75046  20732977.5864   20732979.6844
     -1135.6094       -884.8904
  -5059035.41246  -2963941.83446  22056425.9534   22056428.9184
      1896.9844       1478.1704
   6138136.49545   4782963.15145  23059599.5314   23059603.3404
     -2900.9534      -2260.4834
  -4469837.84545  -1227609.90545  22126775.2814   22126779.3954
      1190.9224        927.9914
   1096930.81746    854750.51646  21453058.2344   21453061.0124
     -1338.4534      -1042.9504
   -462141.61044   -316380.69842  24539161.6564   24539165.5594
      -151.2034       -117.8214
  -4517225.03746  -3472351.03646  20863249.0164   20863252.6134
      1254.2974        977.3744
 98  6 25 15 29  0.0000000  0  8G 2G 4G 5G 7G 8G 9G16G24
   7106400.28843   5535441.33642  24413859.9304   24413865.1094
     -3516.0474      -2739.7774
    553907.91646    444268.25046  20736235.8524   20736237.9734
     -1147.3444       -894.0344
  -5087453.65646  -2986085.90445  22051017.6174   22051021.2154
      1891.9064       1474.2134
   6181672.37245   4816887.19845  23067883.7344   23067887.7194
     -2904.0004      -2262.8574
  -4487619.07646  -1241465.39245  22123391.1024   22123394.6644
      1179.7194        919.2614
   1117089.48646    870458.56746  21456894.5944   21456897.3014
     -1349.5624      -1051.6074
   -459795.36644   -314552.41142  24539608.6024   24539612.8204
      -161.7974       -126.0754
  -4535963.50546  -3486952.42946  20859683.0394   20859686.7664
      1244.0164        969.3634
 98  6 25 15 29 15.0000000  0  8G 2G 4G 5G 7G 8G 9G16G24
   7159180.27543   5576568.51442  24423904.3914   24423906.6524
     -3521.3124      -2743.8804
    571202.83446    457744.81946  20739526.9844   20739529.0474
     -1158.7194       -902.8984
  -5115798.09946  -3008172.46245  22045624.5004   22045628.3444
      1887.3284       1470.6454
   6225249.55845   4850843.44245  23076176.4614   23076180.5164
     -2906.2974      -2264.6474
  -4505236.19645  -1255193.02045  22120038.9534   22120043.0784
      1169.1884        911.0554
   1137411.55146    886293.93346  21460761.7344   21460764.4534
     -1360.0784      -1059.8014
   -457293.97345   -312603.29043  24540084.8524   24540089.2584
      -171.7664       -133.8434
  -4554551.20646  -3501436.33846  20856146.1564   20856150.0354
      1234.3134        961.8024
 98  6 25 15 29 30.0000000  0  8G 2G 4G 5G 7G 8G 9G16G24
   7212042.39143   5617759.83842  24433963.9384   24433967.4304
     -3526.7974      -2748.1534
    588673.61046    471358.41546  20742851.2584   20742853.4964
     -1170.5784       -912.1394
  -5144069.10546  -3030201.79945  22040244.4774   22040248.2034
      1882.2974       1466.7254
   6268865.13445   4884829.58545  23084476.0784   23084480.2734
     -2909.0004      -2266.7534
  -4522690.50845  -1268793.79045  22116717.2344   22116720.8674
      1158.2194        902.5084
   1157895.65646    902255.56746  21464659.5004   21464662.4654
     -1370.9694      -1068.2874
   -454638.53145   -310534.12543  24540590.2664   24540594.4144
      -182.1254       -141.9164
  -4572987.81646  -3515802.51546  20852637.8204   20852641.4304
      1224.0164        953.7784
 98  6 25 15 29 45.0000000  0  8G 2G 4G 5G 7G 8G 9G16G24
   7264992.07743   5659019.24442  24444039.7814   24444044.8554
     -3533.0164      -2752.9994
    606327.70646    485114.85746  20746210.8524   20746213.2774
     -1183.1094       -921.9034
  -5172259.47046  -3052168.29846  22034880.2584   22034883.8204
      1876.5944       1462.2814
   6312526.76445   4918851.63445  23092784.6884   23092788.7074
     -2912.3914      -2269.3954
  -4539973.21745  -1282260.81845  22113428.6414   22113432.4614
      1146.2974        893.2184
   1178547.90746    918348.22846  21468589.8594   21468592.7194
     -1382.5314      -1077.2974
   -451821.93645   -308339.35643  24541125.9614   24541129.9224
      -193.2814       -150.6094
  -4591264.31446  -3530043.92546  20849159.8134   20849163.5514
      1213.0004        945.1954
 98  6 25 15 30  0.0000000  0  8G 2G 4G 5G 7G 8G 9G16G24
   7318029.75643   5700347.25542  24454132.3524   24454137.4614
     -3538.5164      -2757.2854
    624163.51146    499012.89246  20749605.0704   20749607.2154
     -1194.8444       -931.0474
  -5200370.39646  -3074072.89645  22029530.5554   22029533.6024
      1871.8134       1458.5554
   6356233.04945   4952908.47045  23101101.6644   23101105.6374
     -2914.8594      -2271.3194
  -4557083.33645  -1295593.39145  22110172.3444   22110176.5514
      1135.2814        884.6354
   1199370.33746    934573.49446  21472551.9614   21472554.7974
     -1393.5944      -1085.9174
   -448843.07045   -306018.13143  24541693.5164   24541698.1334
      -203.7504       -158.7664
  -4609380.67546  -3544160.55746  20845712.1724   20845715.7584
      1202.8134        937.2564
 98  6 25 15 30 15.0000000  0  8G 2G 4G 5G 7G 8G 9G16G24
   7371147.03643   5741737.34942  24464240.0864   24464245.4534
     -3543.7814      -2761.3884
    642173.62046    513046.75246  20753032.1174   20753034.3444
     -1206.5004       -940.1304
  -5228415.35646  -3095926.10546  22024193.4774   22024196.7114
      1867.5314       1455.2194
   6399972.89445   4986991.47745  23109425.5704   23109429.9414
     -2917.1414      -2273.0974
  -4574030.31045  -1308798.80045  22106947.4694   22106951.6524
      1124.3134        876.0884
   1220355.55246    950925.60346  21476545.1334   21476548.2504
     -1404.4534      -1094.3794
   -445710.05044   -303576.80843  24542288.8054   24542293.8794
      -213.9374       -166.7054
  -4627349.42846  -3558162.16746  20842293.0084   20842296.5004
      1193.0004        929.6104
 98  6 25 15 30 30.0000000  0  8G 2G 4G 5G 7G 8G 9G16G24
   7424345.75843   5783190.86042  24474363.5314   24474370.2814
     -3549.1724      -2765.5884
    660361.22546    527218.91546  20756493.0864   20756495.2774
     -1218.3594       -949.3714
  -5256393.54546  -3117727.26746  22018869.7274   22018873.7464
      1863.0474       1451.7254
   6443750.74445   5021104.08145  23117755.8674   23117759.2664
     -2919.7504      -2275.1304
  -4590810.33845  -1321874.14945  22103754.8284   22103758.0984
      1113.1724        867.4074
   1241505.47446    967406.05446  21480570.0784   21480573.1604
     -1415.3594      -1102.8774
   -442423.55145   -301015.89343  24542914.4844   24542917.6024
      -224.0944       -174.6194
  -4645167.37746  -3572046.27046  20838902.3204   20838905.9884
      1182.9384        921.7694
 98  6 25 15 30 45.0000000  0  8G 2G 4G 5G 7G 8G 9G16G24
   7477628.98443   5824710.20042  24484502.9384   24484508.0234
     -3554.8124      -2769.9844
    678727.82446    541530.55946  20759988.0864   20759990.2544
     -1230.0474       -958.4784
  -5284300.78546  -3139473.15446  22013559.4064   22013562.9694
      1858.3594       1448.0724
   6487571.19345   5055249.86745  23126095.3444   23126098.8714
     -2922.4374      -2277.2244
  -4607419.16745  -1334816.08945  22100593.7114   22100597.2384
      1101.7814        858.5314
   1262822.69146    984016.86546  21484626.5944   21484629.4184
     -1426.4694      -1111.5344
   -438980.35645   -298332.90343  24543570.0554   24543573.4884
      -234.5474       -182.7644
  -4662833.23946  -3585811.86547  20835540.5634   20835544.3594
      1172.9064        913.9534
 98  6 25 15 31  0.0000000  0  8G 2G 4G 5G 7G 8G 9G16G24
   7530994.31744   5866293.50043  24494658.3444   24494664.4614
     -3560.5004      -2774.4164
    697266.70146    555976.44346  20763515.9694   20763517.8794
     -1241.7664       -967.6104
  -5312140.51446  -3161166.42646  22008261.3834   22008265.0514
      1853.6254       1444.3834
   6531428.80345   5089424.63545  23134440.1094   23134444.0004
     -2925.2344      -2279.4034
  -4623857.98445  -1347625.56145  22097465.4064   22097468.8404
      1090.0314        849.3754
   1284304.66246   1000756.05946  21488714.4144   21488717.2974
     -1437.7974      -1120.3614
   -435382.89345   -295529.64643  24544253.8204   24544258.0394
      -245.0784       -190.9704
  -4680350.60547  -3599461.74547  20832207.1484   20832210.7704
      1162.7194        906.0154
 98  6 25 15 31 15.0000000  0  8G 2G 4G 5G 7G 8G 9G16G24
   7584442.69444   5907941.56844  24504828.8914   24504834.8914
     -3565.9224      -2778.6404
    715980.05846    570558.28346  20767077.1884   20767079.0744
     -1253.2974       -976.5954
  -5339909.81846  -3182804.83546  22002976.9924   22002980.7774
      1848.9694       1440.7554
   6575326.94145   5123630.96145  23142794.0084   23142797.7234
     -2927.8284      -2281.4254
  -4640120.47345  -1360297.62545  22094371.0554   22094374.4534
      1078.4224        840.3294
   1305955.70146   1017626.99346  21492834.4694   21492837.3984
     -1448.9694      -1129.0674
   -431630.43045   -292605.63843  24544968.7274   24544974.1644
      -255.1874       -198.8474
  -4697715.43747  -3612992.77347  20828902.8914   20828906.3244
      1152.6414        898.1624
 98  6 25 15 31 30.0000000  0  8G 2G 4G 5G 7G 8G 9G16G24
   7637974.26743   5949654.43843  24515016.3984   24515021.9774
     -3571.5784      -2783.0484
    734865.38246    585274.12646  20770670.8984   20770673.1844
     -1264.6564       -985.4464
  -5367608.22146  -3204387.99646  21997706.7424   21997709.9414
      1844.2344       1437.0664
   6619265.49345   5157868.79945  23151155.2894   23151159.6134
     -2930.5784      -2283.5674
  -4656208.97845  -1372834.10645  22091309.5084   22091313.7274
      1066.7664        831.2464
   1327775.52346   1034629.44846  21496986.6094   21496989.4804
     -1460.2814      -1137.8814
   -427724.45744   -289562.00342  24545711.2974   24545716.7584
      -265.5314       -206.9074
  -4714928.45447  -3626405.49347  20825627.3524   20825630.7624
      1142.4384        890.2114
 98  6 25 15 31 45.0000000  0  8G 2G 4G 5G 7G 8G 9G16G24
   7691588.50543   5991431.74042  24525218.1804   24525224.5434
     -3577.2504      -2787.4684
    753916.89146    600119.46346  20774296.0944   20774298.1684
     -1275.7034       -994.0544
  -5395239.23946  -3225918.64246  21992448.3054   21992451.9144
      1839.7344       1433.5594
   6663243.51645   5192137.37245  23159524.0164   23159528.5634
     -2933.3284      -2285.7104
  -4672124.74345  -1385236.00045  22088280.1564   22088283.6604
      1055.1724        822.2124
   1349761.20446   1051761.14346  21501170.4844   21501173.4264
     -1471.3124      -1146.4774
   -423666.57644   -286400.03543  24546483.5004   24546488.8444
      -275.6414       -214.7854
  -4731990.07047  -3639700.24647  20822380.6414   20822383.9344
      1132.2814        882.2974
 98  6 25 15 32  0.0000000  0  8G 2G 4G 5G 7G 8G 9G16G24
   7745293.55242   6033279.78142  24535438.1564   24535441.3914
     -3583.1094      -2792.0334
    773137.97746    615096.94246  20777953.6724   20777955.6644
     -1286.8444      -1002.7354
  -5422798.61646  -3247393.47546  21987203.4304   21987207.1454
      1835.1414       1429.9804
   6707265.09845   5226439.90845  23167901.3524   23167905.3364
     -2935.8914      -2287.7074
  -4687862.67245  -1397499.32145  22085285.8134   22085289.8554
      1043.5474        813.1534
   1371917.33046   1069025.64646  21505386.8444   21505389.7854
     -1482.5624      -1155.2444
   -419454.78644   -283118.09743  24547285.0394   24547291.4964
      -285.6564       -222.5894
  -4748895.98347  -3652873.67447  20819163.3984   20819166.7154
      1122.1254        874.3834
 98  6 25 15 32 15.0000000  0  8G 2G 4G 5G 7G 8G 9G16G24
   7799086.29041   6075196.08741  24545674.9924   24545683.4924
     -3589.1724      -2796.7574
    792527.81046    630205.91146  20781643.5084   20781645.7234
     -1298.4374      -1011.7694
  -5450287.47546  -3268813.34146  21981973.2424   21981976.7584
      1830.0784       1426.0354
   6751325.63545   5260772.78545  23176285.4454   23176288.8794
     -2938.7974      -2289.9724
  -4703426.13745  -1409626.66845  22082324.9064   22082328.7734
      1031.6094        803.8514
   1394242.36846   1086421.77246  21509635.1484   21509637.9734
     -1494.0164      -1164.1684
   -415091.91644   -279718.46143  24548115.1564   24548120.8634
      -296.0624       -230.6984
  -4765648.78247  -3665927.78847  20815975.4144   20815979.0004
      1111.6254        866.2014
 98  6 25 15 32 30.0000000  0  8G 2G 4G 5G 7G 8G 9G16G24
   7852964.42741   6117179.10941  24555928.2734   24555927.8054
     -3594.5624      -2800.9584
    812086.01746    645446.07746  20785365.3284   20785367.5554
     -1309.3284      -1020.2564
  -5477703.16046  -3290176.18846  21976755.8594   21976759.1524
      1825.2974       1422.3094
   6795425.52345   5295136.31945  23184676.9144   23184681.2274
     -2941.1564      -2291.8104
  -4718815.17245  -1421618.14945  22079395.8914   22079399.5124
      1020.2664        795.0124
   1416734.20146   1103947.87546  21513915.2034   21513917.8164
     -1504.8914      -1172.6424
   -410577.68844   -276200.87243  24548973.8594   24548978.7584
      -305.8444       -238.3204
  -4782247.29347  -3678861.67547  20812817.0864   20812820.5314
      1101.4384        858.2634
 98  6 25 15 32 45.0000000  0  8G 2G 4G 5G 7G 8G 9G16G24
   7906923.05841                  24566195.0084
     -3599.8914
    831808.26746    660814.06946  20789118.1724   20789120.2704
     -1320.3124      -1028.8154
  -5505045.89446  -3311482.19846  21971552.9534   21971556.5164
      1820.3444       1418.4504
   6839558.11545   5329525.35245  23193075.2424   23193079.4024
     -2943.1874      -2293.3934
  -4734034.66746  -1433477.46045  22076499.7814   22076503.8364
      1008.9224        786.1734
   1439388.81946   1121600.81746  21518226.1334   21518228.8054
     -1515.7814      -1181.1284
   -405913.71344   -272566.58343  24549862.0394   24549865.3674
      -316.1254       -246.3314
  -4798693.02547  -3691676.51647  20809687.4384   20809690.9414
      1091.2974        850.3614
 98  6 25 15 33  0.0000000  0  7G 4G 5G 7G 8G 9G16G24
    851696.11246    676311.10346  20792902.9534   20792905.0634
     -1331.3444      -1037.4114
  -5532313.63246  -3332729.77146  21966364.0704   21966367.6564
      1815.4694       1414.6514
   6883721.79545   5363938.59145  23201479.7894   23201483.6684
     -2945.2194      -2294.9764
  -4749082.55045  -1445203.10645  22073636.0314   22073639.7234
       997.5944        777.3464
   1462209.70546   1139383.32046  21522569.2034   21522571.9104
     -1526.8754      -1189.7734
   -401093.76444   -268810.73143  24550778.8674   24550784.7854
      -326.4224       -254.3554
  -4814984.91147  -3704371.47947  20806587.1094   20806590.7424
      1081.0314        842.3624
 98  6 25 15 33 15.0000000  0  7G 4G 5G 7G 8G 9G16G24
    871752.23446    691939.25646  20796719.5004   20796721.5394
     -1342.8284      -1046.3604
  -5559507.83646  -3353920.05046  21961188.7814   21961192.3324
      1810.3914       1410.6944
   6927918.14345   5398377.31045  23209889.7344   23209894.2934
     -2947.6254      -2296.8514
  -4763960.89845  -1456796.59345  22070805.2814   22070809.2544
       986.1884        768.4584
   1485196.64146   1157295.21546  21526943.0944   21526945.8954
     -1538.0164      -1198.4544
   -396118.07844   -264933.57743  24551726.6644   24551731.6454
      -337.0004       -262.5974
  -4831120.54847  -3716944.69047  20803516.6174   20803520.2734
      1070.3914        834.0714
 98  6 25 15 33 30.0000000  0  7G 4G 5G 7G 8G 9G16G24
    891980.33846    707701.42346  20800568.4774   20800570.5044
     -1354.1564      -1055.1874
  -5586624.78146  -3375050.11646  21956028.7194   21956032.2464
      1805.3284       1406.7494
   6972150.61945   5432844.16445  23218307.5164   23218311.9224
     -2949.9534      -2298.6654
  -4778669.59846  -1468257.92145  22068005.9694   22068009.6844
       975.0634        759.7894
   1508349.64546   1175336.50646  21531348.9924   21531351.8524
     -1548.9534      -1206.9764
   -390983.29344   -260932.39343  24552702.8914   24552707.2384
      -347.5164       -270.7914
  -4847096.81747  -3729393.71547  20800476.1724   20800479.9224
      1059.8914        825.8894
 98  6 25 15 33 45.0000000  0  7G 4G 5G 7G 8G 9G16G24
    912377.14746    723595.04946  20804450.1414   20804452.2274
     -1365.3754      -1063.9294
  -5613669.26246  -3396123.72846  21950882.4144   21950885.9534
      1800.6884       1403.1334
   7016417.06945   5467337.48345  23226730.4774   23226734.8714
     -2952.1094      -2300.3454
  -4793211.23245  -1479589.06745  22065238.6334   22065242.1724
       963.8914        751.0844
   1531665.31946   1193504.56046  21535785.7894   21535788.4964
     -1559.6874      -1215.3414
   -385692.55844   -256809.79643  24553709.4924   24553714.6954
      -357.7664       -278.7784
  -4862916.70347  -3741720.88547  20797466.0554   20797469.6294
      1049.4844        817.7804
 98  6 25 15 34  0.0000000  0  7G 4G 5G 7G 8G 9G16G24
    932942.84446    739620.27246  20808363.6644   20808365.7274
     -1376.8124      -1072.8414
  -5640642.79646  -3417142.04746  21945749.4774   21945753.2274
      1795.7344       1399.2744
   7060714.48345   5501854.94045  23235159.9304   23235163.5044
     -2954.2344      -2302.0014
  -4807585.63045  -1490789.87445  22062503.3754   22062506.9264
       952.6094        742.2934
   1555141.08546   1211797.35846  21540253.0554   21540255.7974
     -1570.5004      -1223.7664
   -380249.91244   -252568.74843  24554745.3984   24554750.4844
      -367.9844       -286.7414
  -4878580.82647  -3753926.67747  20794485.2974   20794488.7894
      1039.0314        809.6354
 98  6 25 15 34 15.0000000  0  7G 4G 5G 7G 8G 9G16G24
    953683.86746    755782.11746  20812310.3754   20812312.4964
     -1388.7814      -1082.1674
  -5667538.72146  -3438099.89946  21940631.2344   21940634.8324
      1790.2664       1395.0124
   7105046.11945   5536399.07645  23243596.5394   23243599.8444
     -2956.8284      -2304.0224
  -4821786.94745  -1501855.84245  22059800.7194   22059804.3984
       940.7504        733.0524
   1578782.73546   1230219.41546  21544751.8754   21544754.7584
     -1581.7664      -1232.5454
   -374649.31444   -248204.60443  24555811.6414   24555816.6214
      -378.8754       -295.2274
  -4894085.57347  -3766008.28347  20791534.7894   20791538.3524
      1028.1724        801.1734
 98  6 25 15 34 30.0000000  0  7G 4G 5G 7G 8G 9G16G24
    974601.64846    772081.69646  20816290.9304   20816293.1684
     -1400.3124      -1091.1534
  -5694354.35846  -3458995.18346  21935528.6484   21935532.0124
      1785.1094       1390.9944
   7149416.94945   5570973.74945  23252039.3054   23252043.1024
     -2959.3914      -2306.0194
  -4835812.74045  -1512785.02845  22057131.6884   22057135.7544
       929.2974        724.1274
   1602588.18046   1248769.10846  21549282.1884   21549284.9654
     -1592.3754      -1240.8124
   -368888.44144   -243715.62743  24556907.8054   24556912.7854
      -389.2814       -303.3364
  -4909430.96247  -3777965.71947  20788614.3914   20788617.8484
      1017.8594        793.1374
 98  6 25 15 34 45.0000000  0  7G 4G 5G 7G 8G 9G16G24
    995690.80646    788514.80946  20820304.0944   20820306.2034
     -1411.7034      -1100.0284
  -5721094.14646  -3479831.37146  21930440.1724   21930443.5824
      1780.1094       1387.0984
   7193825.25245   5605577.60045  23260490.4224   23260494.3954
     -2961.8124      -2307.9064
  -4849667.63845  -1523581.06145  22054495.4384   22054499.3404
       917.9534        715.2884
   1626551.49446   1267441.81046  21553842.4454   21553845.2464
     -1602.7814      -1248.9204
   -362973.94845   -239106.90343  24558032.2344   24558036.5004
      -399.4534       -311.2624
  -4924622.75946  -3789803.46247  20785723.7814   20785727.3324
      1007.6884        785.2114
 98  6 25 15 35  0.0000000  0  7G 4G 5G 7G 8G 9G16G24
   1016951.63846    805081.69746  20824349.7664   20824351.7704
     -1423.2034      -1108.9894
  -5747758.01746  -3500608.40846  21925366.1804   21925369.7894
      1774.8914       1383.0324
   7238271.73645   5640211.21145  23268948.4694   23268951.7384
     -2964.6254      -2310.0974
  -4863350.65345  -1534243.12845  22051892.0394   22051896.1294
       906.2814        706.1934
   1650671.76446   1286236.82446  21558432.1564   21558434.9804
     -1613.4534      -1257.2364
   -356905.62444   -234378.35443  24559187.8204   24559193.2464
      -409.7974       -319.3224
  -4939662.22946  -3801522.51547  20782861.5394   20782865.1024
       997.3444        777.1514
 98  6 25 15 35 15.0000000  0  7G 4G 5G 7G 8G 9G16G24
   1038385.98646    821783.79346  20828428.8284   20828430.8554
     -1434.5944      -1117.8654
  -5774341.19846  -3521322.55946  21920307.7344   21920311.1094
      1769.6724       1378.9654
   7282764.59445   5674880.97445  23277415.9304   23277419.6454
     -2967.5784      -2312.3994
  -4876857.18745  -1544767.68045  22049321.3984   22049325.3484
       894.7344        697.1964
   1674953.39046   1305157.56446  21563052.7114   21563055.7114
     -1623.9224      -1265.3944
   -350683.14545   -229529.63943  24560372.2894   24560376.9304
      -419.7194       -327.0544
  -4954544.69746  -3813119.23347  20780029.6724   20780033.2934
       987.1414        769.2004
 98  6 25 15 35 30.0000000  0  7G 4G 5G 7G 8G 9G16G24
   1059995.69046    838622.52846  20832540.5704   20832542.6914
     -1446.5624      -1127.1924
  -5800841.48546  -3541972.11746  21915264.7194   21915268.2344
      1763.7504       1374.3514
   7327303.49945   5709586.60345  23285890.0234   23285893.7154
     -2970.8444      -2314.9434
  -4890185.90746  -1555153.69645  22046785.2894   22046788.8404
       882.4844        687.6504
   1699395.05646   1324203.01246  21567703.9064   21567706.9304
     -1634.8754      -1273.9294
   -344307.93845   -224561.91843  24561584.7894   24561588.7734
      -430.2034       -335.2234
  -4969271.24646  -3824594.45047  20777227.0704   20777230.6454
       976.5474        760.9464
 98  6 25 15 35 45.0000000  0  7G 4G 5G 7G 8G 9G16G24
   1081779.57546    855596.98946  20836686.4064   20836688.7034
     -1458.0314      -1136.1284
  -5827256.36846  -3562555.12346  21910238.0474   21910241.6214
      1758.2344       1370.0534
   7371886.76845   5744326.80445  23294374.2424   23294378.0394
     -2973.6094      -2317.0984
  -4903332.58645  -1565397.86345  22044283.3054   22044286.6564
       870.3914        678.2264
   1723997.76846   1343373.95546  21572385.5394   21572388.2704
     -1645.5004      -1282.2084
   -337779.42144   -219474.75643  24562826.1564   24562832.0744
      -440.2664       -343.0644
  -4983844.02546  -3835949.84947  20774453.9844   20774457.6524
       966.5004        753.1174
 98  6 25 15 36  0.0000000  0  7G 4G 5G 7G 8G 9G16G24
   1103735.31146    872705.36146  20840864.3524   20840866.4734
     -1469.5004      -1145.0654
  -5853586.78946  -3583072.32246  21905227.8834   21905231.5864
      1752.2814       1365.4144
   7416510.88745   5779098.83245  23302866.2584   23302869.6214
     -2976.4224      -2319.2904
  -4916299.64845  -1575502.05445  22041815.9924   22041819.7194
       858.4534        668.9254
   1748758.47746   1362668.00446  21577097.6724   21577100.4964
     -1656.0944      -1290.4634
   -331098.63544   -214268.91442  24564098.6644   24564102.8714
      -450.7034       -351.1974
  -4998264.99146  -3847186.94947  20771709.7274   20771713.5474
       956.1884        745.0814
 98  6 25 15 36 15.0000000  0  7G 4G 5G 7G 8G 9G16G24
   1125862.46946    889947.30746  20845074.8594   20845076.9924
     -1481.0314      -1154.0504
  -5879825.65346  -3603518.16846  21900234.3524   21900238.0084
      1746.0784       1360.5804
   7461179.16245   5813905.28145  23311365.8524   23311369.1454
     -2979.6094      -2321.7744
  -4929088.52545  -1585467.41945  22039382.0004   22039385.5984
       846.5474        659.6474
   1773679.10246   1382086.67346  21581839.4694   21581842.2814
     -1666.8444      -1298.8394
   -324258.48644   -208938.96742  24565400.6334   24565407.6684
      -461.5314       -359.6354
  -5012531.35046  -3858303.57447  20768995.0084   20768998.7234
       945.7974        736.9854
 98  6 25 15 36 30.0000000  0  7G 4G 5G 7G 8G 9G16G24
   1148162.98246    907324.34046  20849318.5314   20849320.6764
     -1492.2814      -1162.8174
  -5905972.38346  -3623892.22346  21895259.0784   21895262.3364
      1740.2344       1356.0274
   7505897.30545   5848750.58045  23319875.6644   23319879.4024
     -2982.7664      -2324.2334
  -4941699.41345  -1595294.06645  22036982.5394   22036986.1254
       835.0004        650.6494
   1798760.85646   1401630.88346  21586612.6954   21586615.7664
     -1677.3124      -1306.9974
   -317256.40344   -203482.74943  24566732.7894   24566738.3914
      -471.9694       -367.7684
  -5026642.27646  -3869299.08746  20766309.7424   20766313.5274
       935.6724        729.0954
 98  6 25 15 36 45.0000000  0  7G 4G 5G 7G 8G 9G16G24
   1170632.41946    924832.99446  20853594.5314   20853596.6884
     -1503.5944      -1171.6314
  -5932031.27746  -3644197.84546  21890300.0634   21890303.5314
      1734.3754       1351.4614
   7550663.02945   5883632.96345  23328394.4534   23328398.4264
     -2985.8594      -2326.6444
  -4954137.98845  -1604986.46945  22034615.3284   22034618.9384
       823.4844        641.6764
   1824001.08846   1421298.58546  21591415.6094   21591418.5514
     -1688.0474      -1315.3614
   -310097.35944   -197904.30143  24568094.7114   24568097.6994
      -482.5624       -376.0234
  -5040599.40246  -3880174.75646  20763653.6094   20763657.3954
       925.2504        720.9744
 98  6 25 15 37  0.0000000  0  7G 4G 5G 7G 8G 9G16G24
   1193271.68146    942473.98246  20857902.4064   20857904.4574
     -1514.9694      -1180.4954
  -5958002.71146  -3664435.30846  21885357.8444   21885361.2074
      1728.5634       1346.9324
   7595473.42545   5918550.14245  23336921.8364   23336925.9964
     -2988.8124      -2328.9454
  -4966401.76246  -1614542.63245  22032281.2664   22032285.1564
       811.7034        632.4964
   1849404.43246   1441093.39746  21596249.8284   21596252.3244
     -1699.0944      -1323.9694
   -302777.53244   -192200.52643  24569487.9694   24569494.0274
      -493.4224       -384.4854
  -5054397.01846  -3890926.13046  20761028.2034   20761032.0004
       914.4224        712.5374
 98  6 25 15 37 15.0000000  0  7G 4G 5G 7G 8G 9G16G24
   1216081.13146    960247.58646  20862242.9454   20862245.1374
     -1526.4374      -1189.4324
  -5983888.60146  -3684606.11946  21880431.9534   21880435.1644
      1722.7814       1342.4274
   7640328.11345   5953501.84145  23345457.3134   23345462.0594
     -2991.9374      -2331.3804
  -4978488.62245  -1623960.98245  22029980.9454   22029984.7774
       799.7344        623.1704
   1874975.19346   1461018.65946  21601115.7194   21601118.4844
     -1710.4224      -1332.7964
   -295293.75644   -186368.98743  24570911.8834   24570916.9224
      -504.5314       -393.1414
  -5068031.84246  -3901550.65246  20758433.3674   20758437.2464
       903.4384        703.9774
 98  6 25 15 37 30.0000000  0  7G 4G 5G 7G 8G 9G16G24
   1239063.25546    978155.73746  20866616.3284   20866618.4964
     -1538.0004      -1198.4424
  -6009688.71246  -3704710.08246  21875522.2504   21875525.7304
      1717.0944       1337.9954
   7685227.48345   5988488.35845  23354001.2584   23354006.0274
     -2994.7814      -2333.5964
  -4990397.00546  -1633240.20145  22027715.1564   22027719.0594
       787.8754        613.9294
   1900713.39546   1481074.38946  21606013.6724   21606016.4494
     -1721.4694      -1341.4044
   -287643.80544   -180407.96943  24572367.7734   24572374.2894
      -515.6874       -401.8344
  -5081503.57246  -3912048.09046  20755870.0704   20755873.9964
       892.5784        695.5154
 98  6 25 15 37 45.0000000  0  7G 4G 5G 7G 8G 9G16G24
   1262215.51346    996196.46346  20871022.1254   20871024.2464
     -1549.0314      -1207.0374
  -6035406.17946  -3724749.65546  21870628.4694   21870631.6914
      1711.7814       1333.8564
   7730167.24945   6023506.35745  23362553.7344   23362557.1684
     -2997.3594      -2335.6054
  -5002128.84946  -1642381.92145  22025482.7894   22025486.4924
       776.2974        604.9074
   1926614.57046   1501257.11246  21610942.3364   21610945.1484
     -1732.1094      -1349.6964
   -279826.90444   -174316.85343  24573854.4774   24573861.0274
      -526.6564       -410.3814
  -5094812.85546  -3922418.94746  20753337.2734   20753341.0124
       881.8284        687.1394
 98  6 25 15 38  0.0000000  0  7G 4G 5G 7G 8G 9G16G24
   1285534.92646   1014367.44346  20875459.5084   20875461.5594
     -1560.2664      -1215.7914
  -6061041.43246  -3744725.16046  21865750.4144   21865753.9304
      1706.2034       1329.5094
   7775150.22945   6058558.03445  23371113.0704   23371117.0904
     -3000.3914      -2337.9674
  -5013686.60546  -1651387.94645  22023283.8674   22023287.5354
       764.7034        595.8734
   1952677.62946   1521565.97746  21615901.7974   21615904.6684
     -1743.0314      -1358.2064
   -271842.56145   -168095.29743  24575375.0634   24575378.6134
      -537.9534       -419.1844
  -5107955.88946  -3932660.25446  20750836.1954   20750839.8874
       870.4844        678.3004
 98  6 25 15 38 15.0000000  0  7G 4G 5G 7G 8G 9G16G24
   1309021.86946   1032668.96046  20879929.1334   20879931.1254
     -1571.2664      -1224.3634
  -6086593.66746  -3764635.97446  21860887.2734   21860890.5204
      1700.9064       1325.3814
   7820178.29045   6093644.82145  23379681.8754   23379686.0824
     -3003.2664      -2340.2074
  -5025071.21845  -1660259.06645  22021117.2894   22021120.8754
       753.2344        586.9364
   1978904.88346   1542002.79546  21620892.8674   21620895.5744
     -1753.9064      -1366.6804
   -263689.73644   -161742.43143  24576925.6724   24576930.0084
      -549.0164       -427.8044
  -5120928.89646  -3942769.07846  20748367.7424   20748371.4454
       859.3594        669.6314
 98  6 25 15 38 30.0000000  0  7G 4G 5G 7G 8G 9G16G24
   1332672.51546   1051098.04046  20884429.3594   20884431.4924
     -1582.2034      -1232.8864
  -6112071.93646  -3784489.15546  21856038.9534   21856042.1294
      1696.1884       1321.7054
   7865244.71245   6128761.50945  23388257.6884   23388262.3054
     -3005.5624      -2341.9974
  -5036285.09945  -1668997.16645  22018982.7894   22018986.5864
       741.8594        578.0724
   2005292.41846   1562564.50146  21625914.2114   21625916.9654
     -1764.4844      -1374.9234
   -255376.16544   -155264.29543  24578507.9774   24578513.1804
      -559.4374       -435.9254
  -5133738.48646  -3952750.56646  20745930.1024   20745933.7814
       848.5634        661.2184
 98  6 25 15 38 45.0000000  0  7G 4G 5G 7G 8G 9G16G24
   1356486.10046   1069654.08746  20888961.1564   20888963.1024
     -1592.8284      -1241.1654
  -6137479.85846  -3804287.52146  21851204.4384   21851207.9304
      1691.6254       1318.1494
   7910341.84845   6163902.11045  23396838.9224   23396843.6454
     -3007.2664      -2343.3244
  -5047326.84145  -1677601.10745  22016882.2034   22016885.8714
       730.4694        569.1964
   2031838.59846   1583249.82946  21630965.8284   21630968.5824
     -1774.9064      -1383.0444
   -246906.93144   -148664.89042  24580119.0704   24580123.0434
      -569.7194       -443.9374
  -5146386.75846  -3962606.34946  20743523.0004   20743526.7384
       837.9224        652.9264
 98  6 25 15 39  0.0000000  0  7G 4G 5G 7G 8G 9G16G24
   1380465.80846   1088339.57646  20893524.3444   20893526.3014
     -1604.4374      -1250.2114
  -6162812.25546  -3824027.03946  21846383.7114   21846386.9924
      1686.0004       1313.7664
   7955469.31145   6199066.36945  23405426.0164   23405430.4104
     -3009.7344      -2345.2484
  -5058190.64745  -1686066.39845  22014815.3364   22014819.1454
       718.0004        559.4814
   2058547.99646   1604062.33746  21636048.0234   21636050.8134
     -1786.3284      -1391.9444
   -238276.03744   -141939.51443  24581762.0394   24581764.2894
      -581.0004       -452.7274
  -5158868.84246  -3972332.63446  20741147.7814   20741151.6024
       826.3914        643.9414
 98  6 25 15 39 15.0000000  0  7G 4G 5G 7G 8G 9G16G24
   1404612.27846   1107155.01346  20898119.2344   20898121.4614
     -1615.2344      -1258.6244
  -6188066.19546  -3843705.41646  21841578.1484   21841581.3594
      1681.0634       1309.9194
   8000628.11545   6234255.02845  23414020.1254   23414023.7704
     -3011.5784      -2346.6844
  -5068873.97345  -1694391.07045  22012781.5084   22012784.8484
       706.3914        550.4344
   2085420.74346   1625002.13146  21641162.2664   21641165.1844
     -1796.7664      -1400.0774
   -229483.52144   -135088.19742  24583435.8594   24583442.6214
      -591.4374       -460.8604
  -5171186.54746  -3981930.82846  20738804.0784   20738807.8284
       815.9534        635.8084
 98  6 25 15 39 30.0000000  0  7G 4G 5G 7G 8G 9G16G24
   1428923.23146   1126098.61346  20902745.5474   20902747.8324
     -1626.2814      -1267.2324
  -6213242.19946  -3863323.07146  21836787.4614   21836790.7424
      1675.6564       1305.7064
   8045816.88345   6269467.05145  23422619.6484   23422623.8914
     -3013.5944      -2348.2554
  -5079382.32946  -1702579.38245  22010782.2584   22010786.0204
       694.7034        541.3274
   2112450.32146   1646064.13146  21646305.7114   21646308.7464
     -1807.1564      -1408.1744
   -220532.31445   -128113.25442  24585139.4304   24585143.5434
      -602.0164       -469.1034
  -5183348.40046  -3991407.58446  20736489.6564   20736493.3954
       805.5944        627.7354
 98  6 25 15 39 45.0000000  0  7G 4G 5G 7G 8G 9G16G24
   1453402.87546   1145173.66546  20907403.7894   20907406.1564
     -1637.6724      -1276.1084
  -6238334.78846  -3882875.71746  21832012.2814   21832015.8204
      1670.0314       1301.3234
   8091038.11845   6304704.37745  23431224.5704   23431227.9454
     -3015.9374      -2350.0814
  -5089713.11345  -1710629.35745  22008815.9614   22008819.7814
       682.7034        531.9764
   2139637.72146   1667249.11546  21651479.0784   21651482.1134
     -1817.8284      -1416.4894
   -211421.37844   -121013.79042  24586872.1174   24586875.4344
      -612.7504       -477.4684
  -5195351.93646  -4000760.97646  20734205.2664   20734208.8754
       794.8914        619.3954
 98  6 25 15 40  0.0000000  0  7G 4G 5G 7G 8G 9G16G24
   1478052.93046   1164381.50246  20912094.5084   20912096.6884
     -1648.9844      -1284.9234
  -6263343.53446  -3902363.04546  21827253.0474   21827256.6564
      1664.5474       1297.0504
   8136295.29645   6339969.68445  23439836.8834   23439841.3594
     -3018.2974      -2351.9204
  -5099863.74845  -1718538.94645  22006884.5394   22006888.3364
       670.7664        522.6754
   2166985.34746   1688558.94346  21656683.3834   21656686.4184
     -1828.5314      -1424.8304
   -202150.82244   -113789.98442  24588636.2114   24588642.3164
      -623.2974       -485.6864
  -5207195.31146  -4009989.57146  20731951.5784   20731955.1174
       784.3284        611.1654
 98  6 25 15 40 15.0000000  0  7G 4G 5G 7G 8G 9G16G24
   1502870.11546   1183719.57346  20916817.0784   20916819.3054
     -1660.0784      -1293.5674
  -6288275.01746  -3921790.15846  21822508.9924   21822512.4844
      1659.5634       1293.1664
   8181583.35545   6375259.07445  23448454.7814   23448458.5784
     -3020.2194      -2353.4174
  -5109839.83446  -1726312.50145  22004986.7194   22004990.6334
       659.2194        513.6774
   2194490.85946   1709991.80246  21661917.4844   21661920.6024
     -1839.0004      -1432.9874
   -192725.16345   -106445.29843  24590429.8834   24590433.8554
      -633.5624       -493.6854
  -5218886.91146  -4019099.89246  20729726.8204   20729730.3244
       774.4694        603.4824
 98  6 25 15 40 30.0000000  0  7G 4G 5G 7G 8G 9G16G24
   1527859.42346   1203191.76646  20921572.2114   20921574.6844
     -1671.8444      -1302.7354
  -6313126.79246  -3941155.16546  21817779.6564   21817783.4064
      1653.9534       1288.7954
   8226905.31345   6410574.88645  23457078.6254   23457082.6564
     -3022.7194      -2355.3654
  -5119635.93445  -1733945.83245  22003121.9844   22003125.6994
       646.9064        504.0834
   2222158.63446   1731551.10046  21667182.0314   21667184.8914
     -1850.0314      -1441.5834
   -183139.87044    -98976.24443  24592253.9694   24592258.4924
      -644.4844       -502.1964
  -5230427.38346  -4028092.45646  20727530.7344   20727534.1804
       764.2344        595.5074
 98  6 25 15 40 45.0000000  0  7G 4G 5G 7G 8G 9G16G24
   1553023.63146   1222800.24046  20926360.7424   20926363.1214
     -1683.2814      -1311.6484
  -6337894.15946  -3960454.39946  21813067.1094   21813070.6024
      1648.3914       1284.4604
   8272263.91245   6445919.21345  23465710.9064   23465714.7154
     -3025.0944      -2357.2164
  -5129248.81346  -1741436.38745  22001293.4454   22001296.8094
       634.8914        494.7204
   2249989.64046   1753237.58046  21672478.6334   21672481.6564
     -1860.7034      -1449.8994
   -173392.94345    -91381.26043  24594109.0164   24594113.8914
      -655.0624       -510.4384
  -5241814.58446  -4036965.58546  20725363.7424   20725367.3404
       754.1564        587.6544
 98  6 25 15 41  0.0000000  0  7G 4G 5G 7G 8G 9G16G24
   1578359.65646   1242542.60046  20931182.3444   20931184.4064
     -1694.5004      -1320.3904
  -6362576.57546  -3979687.44046  21808369.8284   21808373.3554
      1642.9064       1280.1874
   8317662.25445   6481294.55445  23474349.8284   23474353.6024
     -3027.8124      -2359.3344
  -5138680.05046  -1748785.39345  21999498.8444   21999502.2894
       622.9534        485.4184
   2277981.40046   1775049.33946  21677804.9064   21677807.7304
     -1871.2194      -1458.0934
   -163484.01844    -83660.00742  24595994.4064   24595999.4574
      -665.7974       -518.8034
  -5253049.30246  -4045719.90146  20723225.8284   20723229.3204
       744.0944        579.8134
 98  6 25 15 41 15.0000000  0  8G 4G 5G 7G 8G 9G16G30G24
   1603861.62746   1262414.26746  20936035.0864   20936037.3134
     -1705.8754      -1329.2534
  -6387178.12946  -3998857.47346  21803688.1174   21803691.5744
      1637.1724       1275.7184
   8363102.11745   6516702.22145  23482997.0234   23483001.7114
     -3030.9374      -2361.7694
  -5147934.81246  -1755996.88745  21997737.5554   21997741.6094
       610.8914        476.0194
   2306128.34246   1796982.01046  21683161.5474   21683164.4774
     -1881.7974      -1466.3354
   -153416.68244    -75815.28042  24597910.1024   24597914.2154
      -676.6254       -527.2404
    -18278.18551                  24485724.2424
      2610.7664
  -5264134.46146  -4054357.67646  20721116.4384   20721119.7894
       733.7974        571.7904
 98  6 25 15 41 30.0000000  0  8G 4G 5G 7G 8G 9G16G30G24
   1629532.60546   1282417.63146  20940920.2504   20940922.3364
     -1717.1724      -1338.0564
  -6411696.37746  -4017962.59146  21799022.4924   21799026.3244
      1631.7504       1271.4944
   8408586.54945   6552144.62945  23491652.6644   23491657.7154
     -3033.8284      -2364.0224
  -5157011.16646  -1763069.36245  21996009.7034   21996013.7814
       599.1094        466.8384
   2334430.81346   1819035.87946  21688547.3364   21688550.4064
     -1892.0784      -1474.3474
   -143188.74143    -67845.48242  24599856.0234   24599860.2774
      -687.2974       -535.5564
    -57426.42242                  24478276.4774
      2608.7504
  -5275067.45847  -4062876.87646  20719035.9694   20719039.3674
       723.7194        563.9374
 98  6 25 15 41 45.0000000  0  8G 4G 5G 7G 8G 9G16G30G24
   1655375.39446   1302554.86946  20945838.0474   20945840.2384
     -1728.5314      -1346.9074
  -6436131.67046  -4037003.06546  21794372.4144   21794375.6844
      1626.2504       1267.2084
   8454116.36745   6587622.40645  23500316.1724   23500320.4494
     -3036.8594      -2366.3844
  -5165908.04845  -1770002.00145  21994317.2424   21994321.3674
       587.0784        457.4634
   2362890.02546   1841211.87646  21693962.9774   21693965.8954
     -1902.5164      -1482.4804
   -132799.53443    -59749.99842  24601833.0554   24601837.6374
      -697.9534       -543.8604
    -96541.42843                  24470833.1564
      2606.5634
  -5285845.71947  -4071275.51246  20716984.7664   20716988.0704
       713.3284        555.8404
 98  6 25 15 42  0.0000000  0  8G 4G 5G 7G 8G 9G16G30G24
   1681386.75046   1322823.46446  20950787.6804   20950789.7074
     -1740.0004      -1355.8444
  -6460485.69046  -4055980.21446  21789738.3674   21789741.8954
      1620.5004       1262.7274
   8499690.92245   6623135.03444  23508988.5164   23508992.3834
     -3040.1564      -2368.9534
  -5174624.54845  -1776794.07545  21992658.4774   21992662.4024
       574.7344        447.8454
   2391505.54346   1863509.67146  21699408.2894   21699411.3484
     -1913.2814      -1490.8694
   -122249.89343    -51529.50942  24603840.6564   24603845.9884
      -709.0784       -552.5284
   -135624.69243                  24463395.6254
      2604.1564
  -5296468.39546  -4079552.91046  20714963.5394   20714966.8914
       702.6094        547.4884
 98  6 25 15 42 15.0000000  0  8G 4G 5G 7G 8G 9G16G30G24
   1707563.77646   1343221.14246  20955769.0164   20955771.2074
     -1750.4064      -1363.9534
  -6484756.59046  -4074892.59946  21785119.3834   21785123.0984
      1615.4224       1258.7704
   8545310.19645   6658682.53745  23517668.9694   23517672.3324
     -3042.5784      -2370.8404
  -5183162.60146  -1783447.10245  21991033.5554   21991037.3524
       563.4694        439.0674
   2420278.75046   1885930.34446  21704883.7194   21704886.8244
     -1923.3444      -1498.7094
   -111537.08943    -43181.80842  24605879.3204   24605883.7854
      -719.4844       -560.6374
   -174676.50643                  24455963.5084
      2602.5784
  -5306935.07847  -4087708.75846  20712971.6954   20712975.0824
       692.7664        539.8174
 98  6 25 15 42 30.0000000  0  8G 4G 5G 7G 8G 9G16G30G24
   1733898.83546   1363741.97146  20960780.3914   20960782.7464
     -1761.0004      -1372.2084
  -6508946.43146  -4093741.81646  21780516.3984   21780519.8914
      1609.8284       1254.4124
   8590969.91045   6694261.49844  23526358.2584   23526361.2234
     -3045.4064      -2373.0444
  -5191527.29345  -1789965.03245  21989442.0944   21989446.2544
       551.7344        429.9234
   2449205.64946   1908470.77146  21710388.0554   21710390.8914
     -1933.5784      -1506.6844
   -100665.08343    -34710.18342  24607947.6884   24607953.3834
      -730.1564       -568.9534
   -213701.60843    -14186.29353  24448536.9694   24448543.0744
      2600.6724       2026.4984
  -5317249.74947  -4095746.14847  20711008.9224   20711012.3444
       682.4224        531.7574
 98  6 25 15 42 45.0000000  0  8G 4G 5G 7G 8G 9G16G30G24
   1760394.50446   1384387.94946  20965821.9844   20965824.3404
     -1771.5314      -1380.4144
  -6533050.41046  -4112524.13046  21775929.8674   21775933.2074
      1604.2664       1250.0774
   8636670.98845   6729872.70845  23535055.1644   23535058.7624
     -3047.8444      -2374.9434
  -5199715.01246  -1796345.08345  21987883.8834   21987887.2114
       540.1884        420.9254
   2478285.19646   1931130.15246  21715921.8444   21715924.5864
     -1943.4694      -1514.3914
    -89633.38843    -26114.03242  24610047.7814   24610052.2464
      -740.4844       -577.0014
   -252696.97042    -44572.24342  24441116.7274   24441123.2544
      2598.8754       2025.0974
  -5327407.38947  -4103661.18046  20709075.9774   20709079.4924
       672.1414        523.7464
 98  6 25 15 43  0.0000000  0  8G 4G 5G 7G 8G 9G16G30G24
   1787053.58846   1405161.26246  20970895.3204   20970897.7584
     -1782.5784      -1389.0224
  -6557067.49746  -4131238.73246  21771359.3984   21771363.0434
      1598.4224       1245.5244
   8682413.36845   6765516.12645  23543759.9454   23543764.0124
     -3050.7194      -2377.1834
  -5207724.96945  -1802586.61145  21986358.7734   21986362.1954
       528.2034        411.5874
   2507517.69046   1953908.71446  21721484.6644   21721487.6644
     -1953.8124      -1522.4514
    -78442.10043    -17393.56842  24612177.0164   24612179.1724
      -751.3754       -585.4874
   -291659.20142    -74932.33942  24433702.8834   24433708.4264
      2596.5004       2023.2474
  -5337404.59747  -4111451.20147  20707173.7664   20707177.0704
       661.2814        515.2844
 98  6 25 15 43 15.0000000  0  8G 4G 5G 7G 8G 9G16G30G24
   1813875.52946   1426061.47146  20975999.2504   20976001.6294
     -1793.2504      -1397.3384
  -6580998.50646  -4149886.26246  21766805.0634   21766808.2034
      1592.7504       1241.1044
   8728196.30045   6801191.14044  23552471.8754   23552474.5944
     -3053.2194      -2379.1314
  -5215555.79946  -1808688.54645  21984869.1094   21984872.2974
       516.3594        402.3584
   2536905.37446   1976808.19246  21727077.0784   21727079.8324
     -1964.2194      -1530.5604
    -67087.16643     -8545.53842  24614337.3444   24614343.7894
      -762.1564       -593.8884
   -330587.18842   -105265.80741  24426294.8754   24426299.1644
      2594.2344       2021.4814
  -5347240.49046  -4119115.52047  20705301.9224   20705305.3094
       650.5634        506.9324
 98  6 25 15 43 30.0000000  0  8G 4G 5G 7G 8G 9G16G30G24
   1840854.56546   1447084.09946  20981133.5164   20981135.9064
     -1804.1724      -1405.8484
  -6604847.70246  -4168470.04546  21762267.3054   21762270.6454
      1587.0004       1236.6234
   8774010.23145   6836890.30344  23561189.1954   23561192.4304
     -3055.4844      -2380.8974
  -5223212.69346  -1814654.97045  21983411.9694   21983415.8484
       504.3754        393.0194
   2566447.58146   1999828.08046  21732698.6724   21732701.6024
     -1974.9374      -1538.9124
    -55574.67643       425.25342  24616529.1174   24616531.9414
      -772.9844       -602.3254
   -369484.09642   -135575.10342  24418892.3754   24418896.1724
      2591.8754       2019.6434
  -5356919.51746  -4126657.60846  20703460.0084   20703463.4654
       639.8284        498.5674
 98  6 25 15 43 45.0000000  0  8G 4G 5G 7G 8G 9G16G30G24
   1868000.34246   1468236.64946  20986298.9454   20986301.2304
     -1815.3754      -1414.5784
  -6628608.53646  -4186984.96146  21757745.6804   21757749.1024
      1580.9224       1231.8874
   8819861.35545   6872618.41344  23569915.6414   23569919.8484
     -3058.1874      -2383.0034
  -5230686.72146  -1820478.87245  21981990.4064   21981994.0044
       492.0634        383.4254
   2596154.94046   2022976.66246  21738352.0314   21738354.9494
     -1986.2664      -1547.7394
    -43898.34942      9523.60942  24618750.6024   24618758.2344
      -784.0314       -610.9334
   -408342.65542   -165854.43642  24411498.0944   24411503.1914
      2589.1094       2017.4884
  -5366435.28546  -4134072.48147  20701649.2274   20701652.6374
       628.7974        489.9724
 98  6 25 15 44  0.0000000  0  8G 4G 5G 7G 8G 9G16G30G24
   1895310.93246   1489517.62846  20991496.2194   20991498.2814
     -1825.9374      -1422.8084
  -6652278.26146  -4205428.89446  21753241.4304   21753245.2624
      1575.0784       1227.3344
   8865751.74345   6908377.15045  23578647.6024   23578651.4344
     -3060.4844      -2384.7934
  -5237977.95146  -1826160.36945  21980602.5634   21980606.6054
       480.1884        374.1724
   2626032.20946   2046257.63546  21744037.5004   21744040.5944
     -1997.3284      -1556.3604
    -32056.40843     18751.15242  24621004.1484   24621011.1604
      -794.8754       -619.3834
   -447162.27342   -196103.39142  24404111.8594   24404118.0124
      2586.8444       2015.7224
  -5375786.14246  -4141358.84947  20699870.0704   20699873.4804
       618.0004        481.5584
 98  6 25 15 44 15.0000000  0  8G 4G 5G 7G 8G 9G16G30G24
   1922777.70146   1510920.30746  20996722.7974   20996725.0004
     -1836.1254      -1430.7474
  -6675862.65946  -4223806.33746  21748753.1254   21748756.5234
      1569.6884       1223.1334
   8911674.32645   6944160.97045  23587385.8754   23587389.4964
     -3062.3914      -2386.2784
  -5245093.86846  -1831705.22045  21979248.0234   21979252.2304
       468.7664        365.2724
   2656073.13246   2069666.14246  21749754.0004   21749757.0944
     -2007.9534      -1564.6394
    -20054.21943     28103.50441  24623287.8134   24623291.4104
      -805.2344       -627.4554
   -485949.20643   -226326.91542  24396730.3674   24396735.1954
      2584.8594       2014.1764
  -5384976.91546  -4148520.47946  20698120.7734   20698124.2304
       607.5784        473.4384
 98  6 25 15 44 30.0000000  0  8G 4G 5G 7G 8G 9G16G30G24
   1950399.58446   1532443.85346  21001979.2274   21001981.3364
     -1846.7194      -1439.0024
  -6699363.49946  -4242118.66546  21744281.3134   21744284.8164
      1563.8594       1218.5924
   8957627.74845   6979968.83745  23596131.5864   23596136.0274
     -3064.5784      -2387.9834
  -5252035.59446  -1837114.36745  21977926.8834   21977930.6914
       456.8444        355.9824
   2686275.70246   2093200.60346  21755501.0164   21755504.0864
     -2018.9224      -1573.1864
     -7896.38642     37577.10542  24625601.1804   24625609.2344
      -815.6874       -635.6014
   -524702.67843   -256524.43942  24389356.9694   24389360.2384
      2582.3754       2012.2404
  -5394009.39346  -4155558.76247  20696402.1254   20696405.4534
       596.8444        465.0734
 98  6 25 15 44 45.0000000  0  8G 4G 5G 7G 8G 9G16G30G24
   1978182.56846   1554092.93046  21007265.9224   21007268.3134
     -1857.6094      -1447.4884
  -6722777.10446  -4260363.02246  21739826.0634   21739829.5084
      1558.0314       1214.0504
   9003612.63245   7015801.19445  23604882.1954   23604886.6844
     -3066.6094      -2389.5664
  -5258797.87246  -1842383.66745  21976640.2504   21976643.8594
       444.8754        346.6564
   2716640.52046   2116861.49146  21761279.6024   21761282.2504
     -2029.6414      -1581.5384
      4417.26942     47172.21742  24627945.0554   24627952.0204
      -826.0164       -643.6494
   -563419.18843   -286693.13942  24381988.4304   24381992.3204
      2579.9844       2010.3774
  -5402880.01346  -4162470.91947  20694714.0394   20694717.2384
       586.0164        456.6364
 98  6 25 15 45  0.0000000  0  8G 4G 5G 7G 8G 9G16G30G24
   2006130.66746   1575870.67046  21012584.2974   21012586.6524
     -1868.6254      -1456.0714
  -6746100.94746  -4278537.42746  21735387.4844   21735390.8714
      1551.9224       1209.2904
   9049630.49145   7051659.26245  23613638.5004   23613642.9414
     -3069.0784      -2391.4894
  -5265377.85345  -1847510.91845  21975388.1094   21975392.0004
       432.5634        337.0624
   2747170.09146   2140650.75246  21767089.1564   21767092.1334
     -2040.8914      -1590.3044
     16889.02343     56890.43242  24630318.1954   24630322.8014
      -836.7664       -652.0254
   -602097.75243   -316832.16942  24374628.2814   24374632.6764
      2577.2344       2008.2354
  -5411586.13546  -4169254.90346  20693057.1884   20693060.6334
       574.8754        447.9554
 98  6 25 15 45 15.0000000  0  8G 4G 5G 7G 8G 9G16G30G24
   2034238.76046   1597773.08146  21017933.1724   21017935.4454
     -1879.0474      -1464.1924
  -6769335.51946  -4296642.27746  21730965.8754   21730969.2624
      1546.0164       1204.6884
   9095683.96245   7087545.06945  23622401.9774   23622405.9494
     -3071.3444      -2393.2554
  -5271775.67646  -1852496.24145  21974171.1954   21974174.7344
       420.5634        327.7114
   2777866.52946   2164570.04846  21772930.7734   21772933.6454
     -2051.9534      -1598.9254
     29520.35443     66733.02442  24632722.0784   24632726.6254
      -847.3124       -660.2444
   -640738.34143   -346941.67042  24367274.9774   24367280.3674
      2574.8754       2006.3964
  -5420127.43446  -4175910.44446  20691431.9454   20691435.4844
       564.0314        439.5054
 98  6 25 15 45 30.0000000  0  8G 4G 5G 7G 8G 9G16G30G24
   2062503.78146   1619797.77446  21023311.7894   21023314.2384
     -1889.5944      -1472.4114
  -6792479.99946  -4314676.91646  21726561.5554   21726564.7424
      1539.9844       1199.9884
   9141771.55645   7123457.48144  23631172.2974   23631175.9534
     -3073.6094      -2395.0204
  -5277993.67246  -1857341.42045  21972987.4304   21972990.8874
       408.6414        318.4214
   2808728.66746   2188618.45546  21778803.2894   21778806.1254
     -2062.8444      -1607.4114
     42307.98943     76697.44542  24635154.4144   24635161.8714
      -857.5784       -668.2434
   -679342.45943   -377022.79942  24359928.8054   24359934.5234
      2572.4384       2004.4974
  -5428506.17646  -4182439.32646  20689837.3444   20689840.7544
       553.2504        431.1044
 98  6 25 15 45 45.0000000  0  8G 4G 5G 7G 8G 9G16G30G24
   2090927.60846   1641946.21046  21028720.5394   21028722.9414
     -1900.2034      -1480.6784
  -6815535.45246  -4332642.19946  21722174.7504   21722177.9964
      1534.1094       1195.4104
   9187893.39045   7159396.53845  23639949.3444   23639954.3364
     -3075.9694      -2396.8594
  -5284034.80946  -1862048.81545  21971837.6094   21971841.3364
       396.9224        309.2904
   2839748.96646   2212790.10146  21784706.3674   21784709.1914
     -2073.0784      -1615.3864
     55248.26842     86780.77842  24637617.5164   24637624.2074
      -867.7814       -676.1934
   -717912.97944   -407077.68143  24352589.7504   24352595.1644
      2570.3284       2002.8534
  -5436725.82846  -4188844.23947  20688273.1484   20688276.7234
       542.7814        422.9464
 98  6 25 15 46  0.0000000  0  8G 4G 5G 7G 8G 9G16G30G24
   2119510.99746   1664218.98046  21034160.0704   21034162.4144
     -1910.7974      -1488.9334
  -6838499.80846  -4350536.48246  21717804.7974   21717808.1374
      1527.9064       1190.5764
   9234053.61945   7195365.54944  23648733.7814   23648737.8954
     -3078.5784      -2398.8924
  -5289898.28546  -1866617.74545  21970722.3984   21970726.1954
       385.0164        300.0124
   2870921.46046   2237080.34146  21790638.4224   21790641.3874
     -2083.1094      -1623.2024
     68343.72242     96985.02742  24640109.2734   24640116.9064
      -878.2034       -684.3144
   -756449.95944   -437106.42543  24345255.8444   24345259.8874
      2568.0164       2001.0514
  -5444787.60046  -4195126.12746  20686739.2114   20686742.9264
       532.2344        414.7284
 98  6 25 15 46 15.0000000  0  8G 4G 5G 7G 8G 9G16G30G24
   2148252.74346   1686615.14746  21039629.1884   21039631.4844
     -1921.2504      -1497.0784
  -6861372.47446  -4368359.32946  21713451.7194   21713454.9534
      1521.9694       1185.9504
   9280250.78045   7231363.31545  23657524.4774   23657530.3014
     -3080.8754      -2400.6824
  -5295582.56246  -1871047.04445  21969640.7664   21969644.0824
       373.0944        290.7224
   2902241.35146   2261485.44046  21796598.4534   21796601.5354
     -2092.6564      -1630.6414
     81595.61542    107311.15442  24642631.0554   24642635.5434
      -888.4694       -692.3134
   -794952.68243   -467108.57142  24337928.9534   24337934.1094
      2565.8594       1999.3714
  -5452692.15546  -4201285.50446  20685235.0234   20685238.7734
       521.8914        406.6684
 98  6 25 15 46 30.0000000  0  8G 4G 5G 7G 8G 9G16G30G24
   2177152.64446   1709134.54746  21045128.7584   21045130.8444
     -1932.0314      -1505.4794
  -6884156.22846  -4386112.88446  21709116.4064   21709119.5124
      1515.8754       1181.2014
   9326482.85045   7267388.30245  23666322.3834   23666327.3404
     -3083.3594      -2402.6184
  -5301086.82646  -1875336.09345  21968593.3754   21968597.0664
       360.8284        281.1654
   2933703.82446   2286001.64146  21802585.2664   21802588.2544
     -2102.3124      -1638.1664
     95000.91342    117756.84942  24645182.7974   24645185.0234
      -898.8914       -700.4344
   -833421.55943   -497084.26943  24330608.7584   24330613.4924
      2563.3754       1997.4354
  -5460441.95446  -4207324.30346  20683760.1564   20683763.8244
       511.4534        398.5354
 98  6 25 15 46 45.0010000  0  8G 4G 5G 7G 8G 9G16G30G24
   2206216.34846   1731781.59246  21050659.3494   21050661.5524
     -1942.8754      -1513.9294
  -6906850.24746  -4403796.51846  21704797.6064   21704800.9234
      1509.8754       1176.5264
   9372753.07345   7303442.99144  23675126.8024   23675130.1654
     -3085.5624      -2404.3344
  -5306408.22246  -1879482.61845  21967580.6144   21967584.5284
       348.7194        271.7294
   2965312.20646   2310631.53546  21808599.9894   21808603.1884
     -2111.7974      -1645.5564
    108563.76943    128325.30841  24647763.5364   24647770.0754
      -909.3124       -708.5554
   -871858.71743   -527035.15943  24323295.2394   24323301.4274
      2561.3594       1995.8644
  -5468036.85046  -4213242.39146  20682314.9114   20682318.4624
       501.1884        390.5364
 98  6 25 15 47  0.0010000  0  8G 4G 5G 7G 8G 9G16G30G24
   2235447.22046   1754558.89846  21056221.7244   21056223.9974
     -1954.0314      -1522.6224
  -6929448.79146  -4421405.75946  21700497.2314   21700500.5954
      1503.7344       1171.7414
   9419060.33845   7339526.58044  23683938.8964   23683942.6924
     -3088.2814      -2406.4534
  -5311542.69546  -1883483.51645  21966603.3254   21966606.6424
       336.3754        262.1104
   2997065.99446   2335374.73446  21814642.7244   21814645.5834
     -2121.6564      -1653.2394
    122288.18142    139019.57541  24650374.9974   24650381.4314
      -920.1254       -716.9814
   -910260.11943   -556958.36842  24315986.4194   24315991.9274
      2559.2814       1994.2454
  -5475472.01546  -4219036.01446  20680899.9974   20680903.6774
       490.6564        382.3304
 98  6 25 15 47 15.0010000  0  8G 4G 5G 7G 8G 9G16G30G24
   2264840.57046   1777462.80546  21061815.2244   21061817.2744
     -1964.8594      -1531.0594
  -6951958.88746  -4438946.07246  21696213.9584   21696217.3214
      1497.8754       1167.1754
   9465405.66045   7375639.81644  23692758.1694   23692763.1144
     -3090.8444      -2408.4504
  -5316494.33946  -1887341.93245  21965661.2244   21965664.8454
       324.0784        252.5284
   3028966.56246   2360232.31046  21820713.4274   21820716.4504
     -2131.4694      -1660.8854
    136172.25142    149838.40842  24653017.0674   24653020.7124
      -930.8284       -725.3214
   -948631.91943   -586858.39542  24308683.9894   24308690.5754
      2557.1564       1992.5894
  -5482751.73946  -4224708.52146  20679514.7864   20679518.2084
       480.2034        374.1844
 98  6 25 15 47 30.0010000  0  8G 4G 5G 7G 8G 9G16G30G24
   2294394.87446   1800492.13646  21067439.4034   21067441.4314
     -1975.5944      -1539.4244
  -6974384.09346  -4456420.24646  21691946.4584   21691949.7744
      1492.2974       1162.8294
   9511785.45945   7411779.89144  23701583.3884   23701587.5134
     -3092.9694      -2410.1064
  -5321264.91046  -1891059.24845  21964753.2944   21964757.0564
       312.1564        243.2394
   3061010.60846   2385201.68446  21826811.0674   21826813.8684
     -2140.9224      -1668.2514
    150213.10744    160779.35142  24655689.5754   24655694.1574
      -941.1094       -733.3324
   -986973.60944   -616734.93942  24301388.1924   24301394.1464
      2555.2034       1991.0674
  -5489878.12246  -4230261.53346  20678158.7084   20678162.2594
       470.1414        366.3434
 98  6 25 15 47 45.0010000  0  8G 4G 5G 7G 8G 9G16G30G24
   2324115.79546   1823651.28546  21073094.9664   21073097.2284
     -1986.8444      -1548.1904
  -6996722.11446  -4473826.48346  21687695.7944   21687698.9234
      1486.4694       1158.2874
   9558202.39445   7447948.93145  23710415.8024   23710419.8334
     -3095.6874      -2412.2244
  -5325852.62045  -1894634.09745  21963880.2714   21963883.9974
       299.8594        233.6574
   3093199.76546   2410284.13246  21832936.6224   21832939.6694
     -2150.6724      -1675.8484
    164411.67544    171843.04642  24658391.6064   24658398.1694
      -951.7664       -741.6364
  -1025281.74442   -646585.53142  24294097.7784   24294101.4114
      2552.8594       1989.2414
  -5496849.82446  -4235694.02046  20676832.0284   20676835.6494
       459.7194        358.2224
 98  6 25 15 48  0.0010000  0  8G 4G 5G 7G 8G 9G16G30G24
   2353998.24446   1846936.30546  21078781.3724   21078783.5994
     -1997.7344      -1556.6764
  -7018979.83746  -4491170.15446  21683460.2314   21683463.7124
      1480.9384       1153.9774
   9604654.75745   7484145.54544  23719255.9034   23719260.3804
     -3098.2344      -2414.2094
  -5330261.43646  -1898069.54645  21963041.7714   21963045.1924
       287.6884        224.1724
   3125530.75146   2435477.08746  21839089.1224   21839092.4854
     -2160.4844      -1683.4944
    178765.40443    183027.86142  24661122.5754   24661126.6424
      -962.3754       -749.9034
  -1063560.58143   -676413.04042  24286814.1534   24286819.2864
      2550.6414       1987.5124
  -5503669.85546  -4241008.32646  20675534.1224   20675537.9074
       449.2974        350.1014
 98  6 25 15 48 15.0010000  0  8G 4G 5G 7G 8G 9G16G30G24
   2384049.22346   1870352.63246  21084499.7944   21084502.0444
     -2009.0004      -1565.4554
  -7041148.93846  -4508444.78946  21679241.3254   21679244.6774
      1475.0474       1149.3874
   9651149.22545   7520374.95744  23728104.1694   23728107.9784
     -3100.9694      -2416.3394
  -5334482.68446  -1901358.85646  21962237.9504   21962241.3494
       275.2344        214.4684
   3158017.42346   2460791.33846  21845271.0284   21845274.1224
     -2171.0314      -1691.7134
    193284.49443    194341.37942  24663885.2554   24663887.1424
      -973.3914       -758.4864
  -1101799.54443   -706209.67143  24279537.7004   24279540.6884
      2547.9844       1985.4424
  -5510325.44646  -4246194.51346  20674267.7864   20674271.2204
       438.1724        341.4334
 98  6 25 15 48 30.0010000  0  8G 4G 5G 7G 8G 9G16G30G24
   2414260.03846   1893893.52846  21090248.8494   21090251.1574
     -2019.4224      -1573.5754
  -7063238.04346  -4525657.06246  21675037.8804   21675041.0214
      1469.8594       1145.3454
   9697676.69345   7556630.13744  23736958.0054   23736961.9424
     -3103.0784      -2417.9834
  -5338526.99346  -1904510.25646  21961468.6614   21961472.4464
       263.6724        205.4594
   3190654.80246   2486223.05846  21851481.5754   21851484.6694
     -2180.9374      -1699.4324
    207960.00943    205776.86742  24666677.5994   24666683.9274
      -983.6414       -766.4734
  -1140008.63143   -735982.87742  24272266.8414   24272272.2674
      2546.2664       1984.1034
  -5516822.17347  -4251256.89047  20673031.3804   20673034.7314
       427.7344        333.3004
 98  6 25 15 48 45.0010000  0  8G 4G 5G 7G 8G 9G16G30G24
   2444632.00746   1917559.99846  21096028.3964   21096030.6344
     -2030.3914      -1582.1234
  -7085243.63446  -4542804.25446  21670850.6694   21670853.6694
      1463.9534       1140.7434
   9744242.66045   7592915.31545  23745819.2714   23745823.5014
     -3105.9694      -2420.2354
  -5342392.53546  -1907522.36246  21960733.2634   21960736.7434
       251.5314        195.9984
   3223446.33146   2511774.88646  21857721.6774   21857724.8764
     -2191.5314      -1707.6874
    222794.48743    217336.14741  24669499.9504   24669504.0994
      -994.5784       -774.9964
  -1178187.24344   -765732.46842  24265001.7634   24265005.5954
      2544.0474       1982.3744
  -5523157.23947  -4256193.29347  20671825.8414   20671829.2634
       416.6724        324.6794
 98  6 25 15 49  0.0010000  0  8G 4G 5G 7G 8G 9G16G30G24
   2475170.48747   1941356.22047  21101839.7784   21101842.0404
     -2041.1254      -1590.4874
  -7107157.38046  -4559879.88646  21666680.5284   21666683.6344
      1458.0634       1136.1534
   9790855.62445   7629237.08745  23754689.4194   23754693.6614
     -3109.0004      -2422.5974
  -5346073.61246  -1910390.75246  21960033.1384   21960036.1384
       239.4694        186.5994
   3256400.82746   2537453.70246  21863992.5604   21863995.6774
     -2202.2034      -1716.0024
    237796.51742    229026.02642  24672355.0994   24672360.2314
     -1005.5474       -783.5434
  -1216330.61843   -795454.50443  24257742.8564   24257748.9744
      2541.8284       1980.6454
  -5529321.68347  -4260996.74747  20670652.8024   20670656.2594
       405.4384        315.9254
 98  6 25 15 49 15.0010000  0  8G 4G 5G 7G 8G 9G16G30G24
   2505861.80547   1965271.52847  21107679.8804   21107682.0834
     -2051.1094      -1598.2674
  -7128985.99846  -4576889.18346  21662526.6694   21662529.9274
      1452.2664       1131.6364
   9837510.64245   7665591.61645  23763567.8564   23763571.5714
     -3111.7814      -2424.7654
  -5349577.49746  -1913121.03946  21959365.8964   21959369.4584
       227.5784        177.3344
   3289511.93546   2563254.55346  21870293.4034   21870296.6144
     -2212.7504      -1724.2214
    252959.57443    240841.45442  24675240.8724   24675244.6694
     -1016.3284       -791.9444
  -1254441.06543   -825150.83942  24250490.1464   24250497.3804
      2539.3444       1978.7094
  -5535321.52147  -4265671.93347  20669511.0214   20669514.6184
       394.3914        307.3174
 98  6 25 15 49 30.0010000  0  8G 4G 5G 7G 8G 9G16G30G24
   2536703.74547   1989304.21047  21113549.2164   21113551.4784
     -2061.0624      -1606.0234
  -7150725.77346  -4593829.25246  21658389.3884   21658392.6104
      1446.4844       1127.1314
   9884208.60845   7701979.65144  23772453.7864   23772457.9814
     -3114.4694      -2426.8594
  -5352901.84546  -1915711.43046  21958733.2244   21958736.6574
       215.8444        168.1904
   3322780.57546   2589178.15646  21876624.4424   21876627.7354
     -2222.8914      -1732.1234
    268286.55543    252784.58642  24678156.5364   24678161.4354
     -1027.1414       -800.3694
  -1292510.64443   -854815.49643  24243246.5834   24243252.7594
      2536.7664       1976.7004
  -5541154.04047  -4270216.74847  20668401.0214   20668404.5014
       383.4534        298.7954
 98  6 25 15 49 45.0010000  0  8G 4G 5G 7G 8G 9G16G30G24
   2567698.87447   2013456.25747  21119447.3494   21119449.3534
     -2071.5474      -1614.1924
  -7172374.62546  -4610698.47546  21654269.7634   21654272.8804
      1440.0784       1122.1394
   9930950.31445   7738401.73444  23781348.0444   23781353.3994
     -3117.6724      -2429.3554
  -5356048.24246  -1918163.17546  21958134.4814   21958137.7744
       203.7194        158.7424
   3356203.52746   2615221.99946  21882984.4424   21882987.5954
     -2233.3914      -1740.3044
    283779.94243    264857.29142  24681105.2164   24681109.8214
     -1038.6564       -809.3434
  -1330539.70744   -884448.43844  24236010.3254   24236015.7984
      2533.8914       1974.4604
  -5546821.11747  -4274632.63747  20667322.5914   20667325.9894
       372.2344        290.0534
 98  6 25 15 50  0.0010000  0  8G 4G 5G 7G 8G 9G16G30G24
   2598845.51447   2037726.36547  21125374.2714   21125376.4974
     -2081.3914      -1621.8634
  -7193931.80546  -4627496.25846  21650167.5444   21650170.4624
      1434.1094       1117.4884
   9977734.20345   7774856.69644  23790251.0834   23790255.1384
     -3120.1564      -2431.2914
  -5359016.80246  -1920476.32446  21957569.8644   21957572.9814
       192.0314        149.6354
   3389777.29346   2641383.36346  21889373.4814   21889376.6574
     -2243.1874      -1747.9384
    299442.69943    277062.11142  24684086.5914   24684093.0134
     -1049.8284       -818.0484
  -1368532.66043   -914053.26343  24228779.5364   24228785.1964
      2531.7814       1972.8174
  -5552325.24047  -4278921.55647  20666275.1534   20666278.6814
       361.5634        281.7374
 98  6 25 15 50 15.0010000  0  8G 4G 5G 7G 8G 9G16G30G24
   2630140.08547   2062111.74647  21131329.3964   21131331.4114
     -2091.3284      -1629.6064
  -7215395.67546  -4644221.33346  21646083.3964   21646086.5244
      1427.5784       1112.3994
  10024553.75345   7811339.48244  23799160.2474   23799163.8804
     -3122.5784      -2433.1784
  -5361809.65346  -1922652.57046  21957038.0754   21957041.7784
       180.1724        140.3944
   3423498.89446   2667659.92246  21895790.1694   21895793.1814
     -2253.1564      -1755.7064
    315275.37143    289399.22241  24687098.9584   24687103.2824
     -1061.2974       -826.9854
  -1406493.17344   -943632.82343  24221557.1694   24221561.6344
      2529.5004       1971.0394
  -5557668.07847  -4283084.79347  20665258.3334   20665261.8024
       350.7344        273.3004
 98  6 25 15 50 30.0010000  0  8G 4G 5G 7G 8G 9G16G30G24
   2661585.10547   2086614.36046  21137313.2084   21137315.2714
     -2101.1874      -1637.2894
  -7236759.03046  -4660868.08346  21642017.6464   21642020.9504
      1421.0164       1107.2854
  10071411.43345   7847851.92944  23808077.4664   23808080.9704
     -3125.0314      -2435.0894
  -5364421.20346  -1924687.54646  21956541.3414   21956545.0794
       168.1414        131.0194
   3457371.22646   2694053.93446  21902236.4194   21902239.5244
     -2263.0004      -1763.3774
    331280.52643    301870.76142  24690143.9504   24690147.3964
     -1072.5784       -835.7754
  -1444417.57343   -973184.26643  24214339.3254   24214344.8564
      2527.1884       1969.2374
  -5562848.41147  -4287121.40747  20664272.6304   20664276.2394
       340.1564        265.0574
 98  6 25 15 50 45.0010000  0  8G 4G 5G 7G 8G 9G16G30G24
   2693176.98147   2111231.40047  21143325.0834   21143327.1464
     -2111.2194      -1645.1064
  -7258025.17246  -4677439.08646  21637971.0054   21637974.3214
      1414.4384       1102.1594
  10118304.21845   7884391.75045  23817000.3494   23817005.2124
     -3127.4064      -2436.9404
  -5366852.77046  -1926582.27746  21956078.3494   21956081.9814
       155.9224        121.4984
   3491389.00546   2720561.27846  21908709.5754   21908712.5754
     -2272.8124      -1771.0234
    347452.82843    314472.54942  24693222.9114   24693228.2784
     -1083.8284       -844.5414
  -1482307.79344  -1002709.01644  24207129.6464   24207135.0134
      2524.6884       1967.2894
  -5567873.60847  -4291037.13747  20663316.4424   20663319.8414
       329.7664        256.9604
 98  6 25 15 51  0.0010000  0  8G 4G 5G 7G 8G 9G16G30G24
   2724919.85647   2135966.10747  21149365.7634   21149367.8134
     -2121.1874      -1652.8734
  -7279194.52846  -4693934.66846  21633942.7944   21633945.9234
      1408.2034       1097.3014
  10165229.16045   7920956.62645  23825930.6144   23825935.2554
     -3129.1874      -2438.3284
  -5369101.76146  -1928334.72446  21955650.5444   21955654.2944
       143.9694        112.1834
   3525553.21046   2747182.72346  21915210.6614   21915213.7084
     -2282.4064      -1778.4984
    363793.04543    327205.21942  24696331.7394   24696338.3024
     -1094.8444       -853.1254
  -1520159.39144  -1032203.77143  24199926.0284   24199930.6464
      2522.1724       1965.3294
  -5572743.04147  -4294831.49047  20662389.8644   20662393.1104
       319.4844        248.9494
 98  6 25 15 51 15.0010000  0  8G 4G 5G 7G 8G 9G16G30G24
   2756813.10347   2160817.98647  21155434.5524   21155436.4854
     -2131.4694      -1660.8854
  -7300270.85146  -4710357.76246  21629931.5674   21629934.6614
      1401.7664       1092.2854
  10212180.56245   7957542.12745  23834865.0134   23834868.8104
     -3131.1564      -2439.8624
  -5371169.94246  -1929946.29546  21955256.9584   21955260.3684
       131.6414        102.5774
   3559860.90746   2773915.98646  21921739.0914   21921742.1854
     -2292.1254      -1786.0714
    380297.05243    340065.46142  24699471.9424   24699477.0524
     -1105.7974       -861.6604
  -1557972.05244  -1061668.15744  24192730.5994   24192735.9424
      2519.3284       1963.1134
  -5577457.80847  -4298505.32547  20661492.7084   20661496.0364
       309.0474        240.8164
 98  6 25 15 51 30.0010000  0  8G 4G 5G 7G 8G 9G16G30G24
   2788864.38447   2185793.00947  21161533.8644   21161535.8454
     -2142.1724      -1669.2254
  -7321249.80346  -4726704.97946  21625939.7474   21625942.9114
      1395.3754       1087.3054
  10259160.26945   7994149.68345  23843804.7394   23843809.4034
     -3132.9374      -2441.2504
  -5373052.01546  -1931412.84146  21954898.6614   21954902.4114
       119.2034         92.8864
   3594315.19946   2800763.47346  21928295.5994   21928298.5874
     -2301.8754      -1793.6694
    396965.11444    353053.49142  24702645.1224   24702648.3454
     -1116.6874       -870.1464
  -1595741.75444  -1091099.00843  24185543.1464   24185547.9854
      2516.5634       1960.9584
  -5582016.86947  -4302057.83447  20660625.2004   20660628.4464
       298.7034        232.7564
 98  6 25 15 51 45.0010000  0  8G 4G 5G 7G 8G 9G16G30G24
   2821077.37547   2210894.04047  21167663.8334   21167665.7554
     -2152.9534      -1677.6264
  -7342134.73246  -4742978.93046  21621965.5914   21621969.0244
      1389.2664       1082.5454
  10306166.83945   8030778.13945  23852749.5214   23852754.6304
     -3134.6254      -2442.5654
  -5374749.65446  -1932735.67246  21954575.6854   21954579.0834
       107.1094         83.4624
   3628914.14646   2827723.67946  21934880.0134   21934883.0834
     -2311.4224      -1801.1084
    413795.49744    366168.13942  24705846.7004   24705853.3104
     -1127.3754       -878.4744
  -1633473.33144  -1120500.20543  24178363.0214   24178367.4854
      2514.3134       1959.2054
  -5586421.18747  -4305489.75847  20659787.0054   20659790.2284
       288.5004        224.8054
 98  6 25 15 52  0.0010000  0  8G 4G 5G 7G 8G 9G16G30G24
   2853451.85647   2236120.90647  21173824.3644   21173826.4034
     -2163.6254      -1685.9424
  -7362927.87146  -4759181.35446  21618008.7474   21618011.9934
      1383.1724       1077.7964
  10353200.04345   8067427.37145  23861700.0834   23861705.2044
     -3136.4534      -2443.9894
  -5376264.79646  -1933916.31046  21954286.8724   21954290.3994
        94.8754         73.9294
   3663658.51546   2854797.20146  21941491.6774   21941494.7244
     -2321.2194      -1808.7424
    430785.62244    379407.16742  24709080.1694   24709086.9544
     -1137.9224       -886.6924
  -1671170.90945  -1149874.87544  24171190.2554   24171195.5994
      2512.0314       1957.4274
  -5590671.06847  -4308801.34847  20658978.3804   20658981.5214
       278.1254        216.7214
 98  6 25 15 52 15.0010000  0  8G 4G 5G 7G 8G 9G16G30G24
   2885988.65647   2261474.25947  21180015.6924   21180017.6854
     -2174.3914      -1694.3304
  -7383627.53646  -4775310.94846  21614069.8804   21614073.4074
      1377.0164       1072.9994
  10400263.24545   8104099.98045  23870655.2314   23870658.7354
     -3138.4694      -2445.5604
  -5377594.03046  -1934952.06846  21954034.7244   21954038.0404
        82.5784         64.3474
   3698554.98546   2881989.24246  21948132.1384   21948135.2904
     -2331.4694      -1816.7294
    447933.97744    392769.56743  24712344.1924   24712349.3494
     -1148.2974       -894.7774
  -1708830.96245  -1179220.32344  24164023.3804   24164028.0794
      2509.4694       1955.4304
  -5594760.71347  -4311988.07347  20658200.0134   20658203.3064
       267.3594        208.3324
 98  6 25 15 52 30.0010000  0  8G 4G 5G 7G 8G 9G16G30G24
   2918686.75647   2286953.29747  21186238.1144   21186240.2124
     -2185.0164      -1702.6104
  -7404236.02046  -4791369.49446  21610148.3414   21610151.8564
      1371.2194       1068.4824
  10447359.01145   8140797.97444  23879617.8964   23879623.0284
     -3140.6874      -2447.2894
  -5378737.32446  -1935842.96346  21953816.7084   21953820.2004
        70.2194         54.7164
   3733606.95646   2909302.45046  21954802.2864   21954805.2634
     -2341.7504      -1824.7404
    465235.92744    406251.59343  24715636.3724   24715639.8064
     -1158.2344       -902.5204
  -1746449.73244  -1208533.62543  24156863.7784   24156868.1964
      2506.6884       1953.2634
  -5598688.76147  -4315048.88047  20657452.4814   20657455.9384
       256.7504        200.0654
 98  6 25 15 52 45.0010000  0  8G 4G 5G 7G 8G 9G16G30G24
   2951545.29147   2312557.34747  21192490.8804   21192493.0954
     -2195.9374      -1711.1204
  -7424760.13446  -4807362.28746  21606242.1774   21606245.2944
      1365.5004       1064.0264
  10494488.53745   8177522.27645  23888586.6144   23888590.5754
     -3143.0314      -2449.1154
  -5379696.14146  -1936590.07546  21953634.3644   21953637.8104
        57.8284         45.0614
   3768812.52446   2936735.35246  21961501.6224   21961504.6344
     -2352.0784      -1832.7884
    482686.99444    419849.80343  24718957.3174   24718962.3104
     -1168.3754       -910.4224
  -1784026.33345  -1237814.04844  24149713.9894   24149718.3604
      2503.7344       1950.9624
  -5602456.62547  -4317984.87147  20656735.5284   20656738.8334
       245.8444        191.5674
 98  6 25 15 53  0.0010000  0  8G 4G 5G 7G 8G 9G16G30G24
   2984565.71947   2338287.54647  21198774.5284   21198776.6854
     -2206.8124      -1719.5944
  -7445200.11846  -4823289.53446  21602352.9894   21602356.3064
      1359.7974       1059.5824
  10541650.03045   8214271.45945  23897561.4274   23897566.2554
     -3145.2344      -2450.8324
  -5380472.04546  -1937194.67646  21953486.6534   21953490.4854
        45.5634         35.5034
   3804170.32646   2964286.87346  21968229.9584   21968233.1104
     -2362.3594      -1840.8004
    500288.31844    433565.12342  24722306.2714   24722310.2084
     -1178.5004       -918.3124
  -1821561.49345  -1267062.13344  24142570.2784   24142574.9664
      2500.9064       1948.7584
  -5606061.62947  -4320793.95047  20656049.5754   20656052.8564
       234.6884        182.8734
 98  6 25 15 53 15.0010000  0  8G 4G 5G 7G 8G 9G16G30G24
   3017748.47047   2364144.23647  21205088.9814   21205091.0674
     -2217.3284      -1727.7884
  -7465551.75346  -4839147.93346  21598479.9194   21598483.1884
      1353.9384       1055.0164
  10588848.74045   8251049.68044  23906542.6224   23906546.6884
     -3147.8124      -2452.8414
  -5381063.99046  -1937655.94246  21953374.2394   21953377.8604
        33.5004         26.1044
   3839683.61346   2991959.54746  21974988.0214   21974991.0214
     -2372.5624      -1848.7504
    518043.09644    447400.01242  24725685.5674   24725690.5014
     -1188.6254       -926.2014
  -1859052.67445  -1296275.96444  24135437.6774   24135443.9814
      2498.0944       1946.5674
  -5609496.65547  -4323470.58547  20655395.8724   20655399.0484
       223.5474        174.1924
 98  6 25 15 53 30.0010000  0  8G 4G 5G 7G 8G 9G16G30G24
   3051090.64847   2390125.15447  21211433.6924   21211435.7674
     -2227.9374      -1736.0554
  -7485811.32646  -4854934.59546  21594624.7554   21594628.0714
      1347.6564       1050.1224
  10636090.94845   8287861.77744  23915532.0524   23915535.6854
     -3150.8284      -2455.1914
  -5381472.32946  -1937974.12746  21953296.4504   21953299.9314
        21.3134         16.6074
   3875352.93146   3019753.81546  21981775.3494   21981778.4664
     -2382.9844      -1856.8714
    535953.30845    461356.05443  24729093.2394   24729096.7434
     -1199.0944       -934.3594
  -1896498.65045  -1325454.62544  24128310.4894   24128314.6614
      2495.0164       1944.1684
  -5612762.81347  -4326015.63647  20654774.5054   20654777.6574
       212.2814        165.4144
 98  6 25 15 53 45.0010000  0  8G 4G 5G 7G 8G 9G16G30G24
   3084588.37547   2416227.27647  21217808.0754   21217810.0444
     -2238.2344      -1744.0794
  -7505978.95546  -4870649.61746  21590786.9974   21590790.0444
      1341.4534       1045.2884
  10683376.97545   8324708.00944  23924530.1534   23924534.6884
     -3153.9064      -2457.5894
  -5381700.65646  -1938152.03246  21953252.8024   21953256.5634
         9.2504          7.2084
   3911175.48046   3047667.47446  21988592.0214   21988594.9744
     -2393.2194      -1864.8464
    554021.06445    475434.82543  24732531.5444   24732535.4704
     -1209.8284       -942.7234
  -1933898.41545  -1354597.23844  24121194.2084   24121199.5874
      2491.7194       1941.5994
  -5615860.94147  -4328429.75347  20654184.9354   20654188.1104
       200.8754        156.5264
 98  6 25 15 54  0.0010000  0  8G 4G 5G 7G 8G 9G16G30G24
   3118236.62647   2442446.69747  21224211.1924   21224213.1384
     -2248.0474      -1751.7254
  -7526054.65746  -4886293.00846  21586966.7164   21586969.8804
      1335.3914       1040.5644
  10730706.24945   8361587.93344  23933536.4744   23933540.6104
     -3156.4844      -2459.5984
  -5381751.39246  -1938191.56646  21953243.4354   21953247.1264
        -2.3914         -1.8634
   3947146.87846   3075697.11846  21995437.5284   21995440.4704
     -2402.8594      -1872.3584
    572247.34844    489637.15043  24735999.6064   24736003.3564
     -1220.1874       -950.7954
  -1971252.63745  -1383704.36544  24114085.8644   24114090.1424
      2488.9064       1939.4074
  -5618790.06047  -4330712.17647  20653627.4354   20653630.6814
       189.8444        147.9304
 98  6 25 15 54 15.0010000  0  8G 4G 5G 7G 8G 9G16G30G24
   3152032.45347   2468781.10447  21230642.2164   21230644.2554
     -2258.1414      -1759.5904
  -7546035.78646  -4901862.70446  21583164.4354   21583167.5524
      1328.6254       1035.2924
  10778075.36345   8398498.88344  23942551.0604   23942555.5954
     -3159.4374      -2461.8994
  -5381623.84946  -1938092.18946  21953267.6614   21953271.4234
       -14.7344        -11.4814
   3983264.65646   3103840.83246  22002310.5674   22002313.6734
     -2412.8914      -1880.1754
    590630.25244    503961.43943  24739497.9894   24739501.5994
     -1230.9844       -959.2094
  -2008561.18945  -1412775.96543  24106985.6924   24106989.8764
      2485.4534       1936.7174
  -5621552.71347  -4332864.88447  20653101.8334   20653105.0094
       178.4534        139.0544
 98  6 25 15 54 30.0010000  0  8G 4G 5G 7G 8G 9G16G30G24
   3185973.77847   2495228.88747  21237101.2394   21237103.3844
     -2267.5944      -1766.9564
  -7565920.89746  -4917357.58246  21579380.5754   21579383.5634
      1322.4534       1030.4834
  10825481.02845   8435438.39244  23951572.3564   23951576.8454
     -3161.5624      -2463.5554
  -5381316.91646  -1937853.02046  21953326.4274   21953329.8964
       -26.4534        -20.6134
   4019524.42646   3132095.18246  22009210.8414   22009214.0754
     -2421.9064      -1887.2004
    609170.44344    518408.36743  24743026.4584   24743030.6534
     -1241.2814       -967.2324
  -2045823.29945  -1441811.26743  24099895.5834   24099899.4504
      2482.5474       1934.4524
  -5624151.61847  -4334889.99547  20652606.9814   20652610.0524
       167.8284        130.7754
 98  6 25 15 54 45.0010000  0  8G 4G 5G 7G 8G 9G16G30G24
   3220061.14046   2521790.47146  21243587.9034   21243589.9314
     -2277.3444      -1774.5544
  -7585707.76246  -4932775.90146  21575614.5444   21575617.4624
      1315.8284       1025.3214
  10872922.70445   8472405.90244  23960599.9194   23960603.8804
     -3163.9224      -2465.3944
  -5380828.36946  -1937472.32746  21953418.9584   21953422.7314
       -38.6564        -30.1224
   4055921.86646   3160456.81146  22016136.7084   22016139.9664
     -2430.9694      -1894.2614
    627871.31844    532980.46542  24746584.2084   24746587.7474
     -1252.1094       -975.6704
  -2083037.44145  -1470809.30244  24092813.7084   24092817.8104
      2479.4534       1932.0414
  -5626586.09647  -4336786.97946  20652144.0364   20652147.2714
       156.8284        122.2044
 98  6 25 15 55  0.0010000  0  8G 4G 5G 7G 8G 9G16G30G24
   3254296.00246   2548466.99646  21250102.4664   21250104.8334
     -2287.1254      -1782.1754
  -7605391.91146  -4948114.17046  21571869.1694   21571872.1464
      1308.8444       1019.8784
  10920398.49844   8509400.02644  23969633.9424   23969639.4154
     -3166.0164      -2467.0254
  -5380156.75546  -1936948.98046  21953546.6534   21953550.3454
       -50.8124        -39.5944
   4092455.08046   3188924.24446  22023088.5284   22023091.4934
     -2440.0004      -1901.2994
    646736.88643    547680.94842  24750174.1694   24750178.2714
     -1263.1094       -984.2414
  -2120206.05245  -1499771.77244  24085740.9584   24085744.8964
      2476.5004       1929.7404
  -5628854.09346  -4338554.22946  20651712.2634   20651715.5444
       145.7504        113.5714
 98  6 25 15 55 15.0010000  0  8G 4G 5G 7G 8G 9G16G30G24
   3288673.54546   2575254.71846  21256644.1774   21256646.3684
     -2296.6254      -1789.5784
  -7624973.05646  -4963372.15946  21568143.4274   21568146.5214
      1301.8754       1014.4484
  10967904.35245   8546417.59544  23978675.2554   23978680.5524
     -3168.2344      -2468.7544
  -5379303.41446  -1936284.00846  21953708.8334   21953712.1144
       -63.0474        -49.1274
   4129122.95146   3217496.62446  22030066.3964   22030069.6654
     -2449.1414      -1908.4214
    665765.64043    562508.54842  24753795.6614   24753801.5914
     -1274.1724       -992.8614
  -2157332.36843  -1528701.32543  24078675.3414   24078679.0914
      2473.6094       1927.4884
  -5630957.95946  -4340193.56946  20651312.0054   20651315.0754
       134.7194        104.9764
 98  6 25 15 55 30.0010000  0  8G 4G 5G 7G 8G 9G16G30G24
   3323192.45846   2602152.56246  21263212.9974   21263215.1184
     -2306.0624      -1796.9324
  -7644449.87446  -4978548.89746  21564437.0444   21564440.1384
      1294.9534       1009.0544
  11015442.70445   8583460.44244  23987720.5674   23987724.8214
     -3170.2344      -2470.3124
  -5378266.75046  -1935476.21546  21953906.7084   21953910.2124
       -75.3124        -58.6854
   4165925.71746   3246174.07746  22037069.6924   22037073.1964
     -2458.0004      -1915.3254
    684959.21143    577464.57342  24757447.5834   24757453.3374
     -1285.0784      -1001.3604
  -2194415.77744  -1557597.44643  24071619.6534   24071624.2124
      2470.8284       1925.3214
  -5632900.54746  -4341707.27346  20650942.4114   20650945.6924
       124.1564         96.7454
 98  6 25 15 55 45.0010000  0  8G 4G 5G 7G 8G 9G16G30G24
   3357860.83846   2629166.88246  21269810.2164   21269812.3254
     -2316.3914      -1804.9804
  -7663818.33346  -4993641.18446  21560751.2084   21560754.3494
      1287.5474       1003.2834
  11063014.50044   8620529.34644  23996773.0674   23996779.2784
     -3172.6414      -2472.1874
  -5377039.23446  -1934519.71446  21954140.2944   21954143.6344
       -88.3914        -68.8764
   4202867.18146   3274959.62246  22044099.8644   22044103.3104
     -2467.5314      -1922.7524
    704321.61444    592552.21042  24761131.8174   24761136.2354
     -1296.5314      -1010.2844
  -2231453.79544  -1586458.20244  24064570.4274   24064574.5634
      2467.6414       1922.8374
  -5634678.27847  -4343092.51246  20650604.1534   20650607.3294
       112.8444         87.9304
 98  6 25 15 56  0.0010000  0  8G 4G 5G 7G 8G 9G16G30G24
   3392675.14446   2656294.91146  21276435.0524   21276437.2314
     -2325.6724      -1812.2124
  -7683085.97446  -5008654.92146  21557084.5054   21557087.5754
      1281.3444        998.4504
  11110612.41145   8657618.61444  24005831.3414   24005835.7944
     -3173.8444      -2473.1254
  -5375623.67946  -1933416.68046  21954409.5444   21954413.3174
      -100.4534        -78.2754
   4239943.01746   3303849.86746  22051155.1534   22051158.4814
     -2476.0474      -1929.3874
    723845.14443    607765.29643  24764847.3174   24764852.3564
     -1306.6564      -1018.1744
  -2268455.24344  -1615290.40843  24057530.4114   24057534.7824
      2465.8284       1921.4254
  -5636295.03147  -4344352.31046  20650296.4894   20650299.5244
       102.6564         79.9924
 98  6 25 15 56 15.0010000  0  8G 4G 5G 7G 8G 9G16G30G24
   3427638.96346   2683539.44246  21283088.3884   21283090.5444
     -2335.8444      -1820.1384
  -7702252.15646  -5023589.59046  21553437.6694   21553440.4934
      1274.5164        993.1294
  11158235.54845   8694727.54244  24014893.6464   24014897.3134
     -3175.6094      -2474.5014
  -5374018.33646  -1932165.76646  21954714.5364   21954718.1224
      -113.2664        -88.2594
   4277155.61846   3332846.68746  22058236.3964   22058239.6184
     -2485.3914      -1936.6684
    743527.05043    623101.83142  24768592.6774   24768595.7824
     -1317.2814      -1026.4534
  -2305422.76444  -1644096.21743  24050495.1144   24050497.9854
      2463.3754       1919.5134
  -5637752.32247  -4345487.85046  20650019.0214   20650022.0794
        91.9844         71.6764
 98  6 25 15 56 30.0010000  0  8G 4G 5G 7G 8G 9G16G30G24
   3462751.25046   2710899.66746  21289770.2084   21289772.2354
     -2345.6564      -1827.7844
  -7721320.63046  -5038448.12446  21549808.8334   21549811.8104
      1268.1254        988.1494
  11205882.34245   8731854.90243  24023960.2474   24023965.0054
     -3177.1724      -2475.7184
  -5372225.06346  -1930768.40346  21955056.2314   21955059.8884
      -125.7034        -97.9504
   4314507.25446   3361951.84146  22065343.9194   22065347.0014
     -2494.6564      -1943.8884
    763365.03743    638559.98942  24772367.7944   24772373.6064
     -1327.7034      -1034.5744
  -2342355.18743  -1672874.69443  24043466.8024   24043470.9744
      2461.1254       1917.7604
  -5639052.83847  -4346501.23346  20649771.6384   20649774.8604
        81.5784         63.5674
 98  6 25 15 56 45.0010000  0  8G 4G 5G 7G 8G 9G16G30G24
   3498013.22646   2738376.53246  21296480.0674   21296482.1654
     -2355.8444      -1835.7224
  -7740292.60246  -5053231.46746  21546198.8414   21546201.6064
      1261.5784        983.0484
  11253555.33345   8769002.68344  24033032.6224   24033035.9744
     -3179.1724      -2477.2774
  -5370242.73946  -1929223.73746  21955433.2394   21955436.9544
      -138.5164       -107.9344
   4352000.26546   3391167.16146  22072478.6534   22072481.8534
     -2504.2814      -1951.3884
    783362.63043    654142.56242  24776173.5754   24776179.7044
     -1338.4844      -1042.9754
  -2379252.82943  -1701626.10243  24036444.6064   24036448.9194
      2458.7034       1915.8734
  -5640193.94546  -4347390.40146  20649554.4504   20649557.5914
        70.7194         55.1064
 98  6 25 15 57  0.0010000  0  8G 4G 5G 7G 8G 9G16G30G24
   3533426.91546   2765971.61646  21303219.2164   21303221.4894
     -2366.1564      -1843.7584
  -7759167.46746  -5067939.14446  21542606.5604   21542609.3844
      1254.9844        977.9104
  11301258.95045   8806174.30544  24042110.2784   24042114.7674
     -3181.4844      -2479.0794
  -5368069.97646  -1927530.65446  21955846.9354   21955850.4504
      -151.2504       -117.8574
   4389637.53446   3420494.88946  22079641.1464   22079644.3924
     -2514.2034      -1959.1194
    803520.09044    669849.65742  24780009.2394   24780014.6304
     -1349.2974      -1051.4004
  -2416117.09343  -1730351.43843  24029429.6774   24029435.0674
      2456.3594       1914.0464
  -5641173.89447  -4348153.98746  20649367.7474   20649371.1224
        59.8284         46.6194
 98  6 25 15 57 15.0010000  0  8G 4G 5G 7G 8G 9G16G30G24
   3568993.74246   2793686.02146  21309987.1614   21309989.6104
     -2375.9064      -1851.3564
  -7777945.80146  -5082571.59046  21539033.4194   21539036.2674
      1249.0004        973.2474
  11348997.01745   8843372.80644  24051194.5754   24051198.5014
     -3183.5164      -2480.6624
  -5365709.01946  -1925690.96246  21956295.9034   21956299.5014
      -163.4064       -127.3304
   4427423.33746   3449938.35046  22086831.3964   22086834.6064
     -2523.7504      -1966.5584
    823837.79744    685681.70442  24783875.6384   24783880.7124
     -1359.5784      -1059.4124
  -2452946.18943  -1759049.37943  24022421.2394   24022425.0014
      2454.3444       1912.4764
  -5641993.31446  -4348792.48846  20649212.0214   20649215.1264
        49.5784         38.6324
 98  6 25 15 57 30.0010000  0  8G 4G 5G 7G 8G 9G16G30G24
   3604708.31146   2821515.55146  21316783.5524   21316785.8724
     -2385.9224      -1859.1604
  -7796634.04446  -5097133.85046  21535477.0284   21535479.9464
      1242.9224        968.5114
  11396769.70745   8880598.27544  24060284.5674   24060286.6184
     -3186.0784      -2482.6584
  -5363164.19946  -1923707.97446  21956779.9814   21956784.0014
      -175.7504       -136.9484
   4465353.40446   3479494.23246  22094049.0214   22094052.2084
     -2533.4064      -1974.0834
    844311.64344    701635.24842  24787771.8494   24787776.5714
     -1370.1094      -1067.6184
  -2489742.78244  -1787722.00443  24015420.7784   24015426.5214
      2452.0164       1910.6624
  -5642656.83246  -4349309.51246  20649085.7004   20649088.7004
        39.0784         30.4504
 98  6 25 15 57 45.0010000  0  8G 4G 5G 7G 8G 9G16G30G24
   3640574.48746   2849463.22046  21323608.8174   21323611.1734
     -2396.2034      -1867.1714
  -7815231.82046  -5111625.60546  21531938.0914   21531941.1144
      1236.8134        963.7504
  11444580.77245   8917853.60543  24069383.0914   24069387.7204
     -3188.7194      -2484.7164
  -5360434.64846  -1921581.04646  21957299.6304   21957303.3214
      -188.1564       -146.6154
   4503428.13046   3509162.83446  22101294.5674   22101297.7434
     -2543.2344      -1981.7414
    864942.86943    717711.58642  24791697.0604   24791703.2714
     -1380.7034      -1075.8734
  -2526504.50544  -1816367.46043  24008424.6924   24008427.6694
      2449.5944       1908.7744
  -5643161.63646  -4349702.85746  20648989.7314   20648992.8254
        28.1724         21.9524
 98  6 25 15 58  0.0010000  0  8G 4G 5G 7G 8G 9G16G30G24
   3676595.44046   2877531.49246  21330463.5134   21330465.9974
     -2406.4224      -1875.1344
  -7833736.34246  -5126044.70046  21528416.6774   21528419.5954
      1230.5314        958.8564
  11492433.29445   8955141.25743  24078489.4974   24078493.4934
     -3191.4844      -2486.8714
  -5357517.10646  -1919307.63546  21957854.8334   21957858.0794
      -200.6724       -156.3684
   4541653.37446   3538948.72446  22108568.1694   22108571.6264
     -2553.2974      -1989.5824
    885735.11343    733913.32442  24795654.8414   24795659.3534
     -1391.5314      -1084.3104
  -2563227.07143  -1844982.39344  24001435.9034   24001440.8964
      2446.8914       1906.6684
  -5643500.48846  -4349966.89446  20648925.1144   20648928.3494
        17.1564         13.3694
 98  6 25 15 58 15.0010000  0  8G 4G 5G 7G 8G 9G16G30G24
   3712766.36646   2905716.62846  21337346.4194   21337348.6224
     -2416.1254      -1882.6954
  -7852147.08346  -5140390.72746  21524913.4114   21524916.5634
      1224.4844        954.1444
  11540325.14345   8992459.58843  24087602.9974   24087606.9704
     -3193.8124      -2488.6854
  -5354414.81446  -1916890.26746  21958445.3884   21958449.0674
      -212.7034       -165.7434
   4580026.63446   3568849.94246  22115871.0284   22115874.2984
     -2562.8914      -1997.0584
    906689.51544    750241.39042  24799642.2714   24799646.2784
     -1402.1414      -1092.5774
  -2599908.85144  -1873565.48843  23994455.5674   23994459.5994
      2444.2814       1904.6354
  -5643676.90046  -4350104.34846  20648891.4354   20648894.5404
         6.5944          5.1384
 98  6 25 15 58 30.0010000  0  8G 4G 5G 7G 8G 9G16G30G24
   3749080.27046   2934013.17446  21344256.9424   21344259.2394
     -2425.7664      -1890.2074
  -7870468.99246  -5154667.52346  21521426.7714   21521429.9234
      1218.3284        949.3474
  11588250.34245   9029803.92443  24096722.8884   24096725.8534
     -3196.3284      -2490.6454
  -5351134.27846  -1914334.00146  21959069.6534   21959073.1224
      -224.8284       -175.1914
   4618542.81546   3598862.54146  22123200.6384   22123203.9074
     -2572.6874      -2004.6924
    927802.84844    766693.36542  24803659.9894   24803664.8764
     -1413.1094      -1101.1244
  -2636552.68043  -1902119.13943  23987481.4894   23987487.0324
      2441.4844       1902.4554
  -5643694.31946  -4350117.90846  20648888.3254   20648891.3964
        -4.3444         -3.3854
 98  6 25 15 58 45.0010000  0  8G 4G 5G 7G 8G 9G16G30G24
   3785537.93446   2962421.74346  21351194.6694   21351196.6734
     -2435.5004      -1897.7924
  -7888696.43946  -5168870.71746  21517958.1224   21517961.3214
      1211.7504        944.2214
  11636215.21645   9067179.11843  24105850.3414   24105854.9464
     -3199.2034      -2492.8864
  -5347670.04546  -1911634.60346  21959728.7084   21959732.1884
      -237.3444       -184.9434
   4657205.41546   3628989.22146  22130557.2164   22130560.2864
     -2582.4844      -2012.3254
    949083.10744    783275.38243  24807709.9744   24807713.6534
     -1424.5164      -1110.0124
  -2673155.05644  -1930640.35044  23980518.0214   23980523.3884
      2438.6414       1900.2394
  -5643548.22446  -4350004.06746  20648916.1224   20648919.3454
       -15.3914        -11.9934
 98  6 25 15 59  0.0010000  0  8G 4G 5G 7G 8G 9G16G30G24
   3822143.07846   2990945.23046  21358160.4584   21358162.4384
     -2445.2344      -1905.3774
  -7906823.64346  -5182995.80546  21514508.5754   21514511.6344
      1205.1414        939.0714
  11684224.25945   9104588.75644  24114985.5524   24114989.9584
     -3202.0164      -2495.0774
  -5344017.19446  -1908788.23146  21960424.1304   21960427.7044
      -249.7194       -194.5864
   4696014.88946   3659230.35046  22137942.4194   22137945.5134
     -2592.1874      -2019.8864
    970534.16844    799990.49242  24811791.4894   24811793.8454
     -1435.6564      -1118.6934
  -2709713.36743  -1959127.32343  23973560.2784   23973564.3104
      2435.7344       1897.9754
  -5643235.50046  -4349760.37446  20648975.2944   20648978.7044
       -26.3444        -20.5284
 98  6 25 15 59 15.0010000  0  8G 4G 5G 7G 8G 9G16G30G24
   3858894.24046   3019582.50046  21365153.6144   21365155.7354
     -2454.8754      -1912.8904
  -7924850.51246  -5197042.70046  21511078.4354   21511081.5524
      1198.5164        933.9084
  11732274.70945   9142030.64643  24124130.2084   24124134.3684
     -3204.6564      -2497.1354
  -5340179.60646  -1905797.89446  21961154.3884   21961157.7864
      -261.9534       -204.1194
   4734971.80746   3689586.37546  22145356.0364   22145359.3414
     -2602.0474      -2027.5694
    992153.83644    816836.97942  24815905.7474   24815909.7084
     -1446.9534      -1127.4964
  -2746225.20144  -1987578.03643  23966613.2864   23966618.4894
      2432.4844       1895.4424
  -5642758.16446  -4349388.41746  20649066.3174   20649069.5634
       -37.3124        -29.0754
 98  6 25 15 59 30.0010000  0  8G 4G 5G 7G 8G 9G16G30G24
   3895793.20546   3048334.93346  21372175.5364   21372177.5874
     -2464.7344      -1920.5724
  -7942774.26246  -5211009.24646  21507667.7004   21507670.8994
      1191.5784        928.5024
  11780365.74445   9179504.18043  24133281.5054   24133284.4114
     -3207.1564      -2499.0834
  -5336153.61846  -1902660.75246  21961920.5754   21961924.0564
      -274.6724       -214.0304
   4774078.97646   3720059.48046  22152797.8964   22152801.0604
     -2611.9534      -2035.2884
   1013946.32244    833818.12042  24820052.7864   24820055.9504
     -1458.4224      -1136.4334
  -2782684.48744  -2015987.79343  23959674.1064   23959677.6344
      2429.0314       1892.7524
  -5642112.95846  -4348885.65446  20649189.1924   20649192.2864
       -48.4694        -37.7684
 98  6 25 15 59 45.0010000  0  8G 4G 5G 7G 8G 9G16G30G24
   3932840.68646   3077203.10146  21379225.0834   21379227.1924
     -2474.9534      -1928.5354
  -7960593.26746  -5224894.17846  21504276.5914   21504279.9424
      1184.2664        922.8044
  11828491.82044   9217004.98443  24142439.6774   24142443.6144
     -3209.6724      -2501.0434
  -5331937.01846  -1899375.11046  21962722.8564   21962726.2554
      -287.5314       -224.0504
   4813334.75546   3750648.38146  22160267.8564   22160271.1034
     -2622.1874      -2043.2634
   1035910.65543    850933.22442  24824232.2944   24824238.2824
     -1470.0624      -1145.5034
  -2819092.38045  -2044357.54744  23952747.0134   23952752.0634
      2425.3284       1889.8664
  -5641301.26046  -4348253.15646  20649343.7164   20649347.1034
       -59.7504        -46.5584
 98  6 25 16  0  0.0010000  0  8G 4G 5G 7G 8G 9G16G30G24
   3970033.17546   3106184.26246  21386302.7164   21386304.8134
     -2484.3594      -1935.8644
  -7978309.68046  -5238699.16346  21500905.3334   21500908.7904
      1177.5004        917.5324
  11876646.06944   9254527.75443  24151602.5364   24151607.5754
     -3211.2344      -2502.2614
  -5327535.90646  -1895945.66546  21963560.4664   21963563.9464
      -299.7034       -233.5354
   4852736.64346   3781351.13446  22167765.8964   22167769.1184
     -2631.7504      -2050.7144
   1058039.63143    868176.53542  24828442.4584   24828449.3994
     -1480.8124      -1153.8804
  -2855452.33244  -2072689.92844  23945826.4504   23945831.0794
      2422.2814       1887.4924
  -5640328.32146  -4347495.01446  20649528.6614   20649531.7674
       -70.2814        -54.7654
 98  6 25 16  0 15.0010000  0  8G 4G 5G 7G 8G 9G16G30G24
   4007370.86346   3135278.55746  21393408.2244   21393410.2044
     -2494.3124      -1943.6204
  -7995920.10346  -5252421.55846  21497554.0524   21497557.3104
      1170.2814        911.9074
  11924828.21944   9292072.26943  24160771.1694   24160775.1064
     -3213.3284      -2503.8924
  -5322947.46746  -1892370.25846  21964433.2394   21964436.7904
      -312.3594       -243.3974
   4892285.20046   3812168.17546  22175291.3254   22175294.5364
     -2641.6254      -2058.4094
   1080335.21943    885549.73142  24832686.1774   24832693.7284
     -1492.1874      -1162.7444
  -2891761.60444  -2100982.87144  23938916.2554   23938919.6064
      2418.6884       1884.6924
  -5639196.00746  -4346612.68146  20649744.0364   20649747.4814
       -80.9844        -63.1054
 98  6 25 16  0 30.0010000  0  8G 4G 5G 7G 8G 9G16G30G24
   4044850.88846   3164483.77146  21400540.2784   21400542.3994
     -2503.4844      -1950.7674
  -8013430.40046  -5266065.93146  21494222.0134   21494225.0364
      1164.0314        907.0374
  11973035.25544   9329636.18443  24169945.0054   24169949.5634
     -3214.7504      -2505.0004
  -5318176.57746  -1888652.67846  21965341.5134   21965344.7474
      -324.2194       -252.6384
   4931973.90546   3843094.42146  22182844.2714   22182847.5174
     -2650.6094      -2065.4104
   1102793.03643    903049.27943  24836959.7714   24836964.8454
     -1502.5784      -1170.8404
  -2928024.48844  -2129239.59744  23932017.1614   23932021.2394
      2415.9224       1882.5374
  -5637909.53346  -4345610.22446  20649989.0134   20649992.2124
       -90.9694        -70.8854
 98  6 25 16  0 45.0010000  0  8G 4G 5G 7G 8G 9G16G30G24
   4082470.88346   3193798.05046  21407698.9354   21407701.1144
     -2512.7664      -1957.9994
  -8030844.43546  -5279635.29646  21490908.0054   21490911.4624
      1157.5784        902.0094
  12021268.62445   9367220.59543  24179123.9354   24179128.0364
     -3216.6254      -2506.4614
  -5313224.67046  -1884794.03146  21966283.5284   21966287.2784
      -336.3124       -262.0624
   4971798.90146   3874126.86846  22190422.8804   22190426.0324
     -2659.5944      -2072.4114
   1125408.47943    920671.69543  24841263.2784   24841267.9894
     -1513.0944      -1179.0344
  -2964243.52545  -2157462.19944  23925125.4034   23925129.2124
      2412.9844       1880.2484
  -5636471.83446  -4344489.93346  20650262.5914   20650265.8494
      -100.9224        -78.6404
 98  6 25 16  1  0.0010000  0  8G 4G 5G 7G 8G 9G16G30G24
   4120237.08146   3223226.25546  21414885.8724   21414888.0754
     -2522.8444      -1965.8524
  -8048155.31346  -5293124.28046  21487613.8964   21487617.3764
      1150.4534        896.4574
  12069535.83044   9404831.41043  24188308.4894   24188313.0604
     -3219.0944      -2508.3854
  -5308085.47546  -1880789.47546  21967261.8564   21967265.2904
      -349.0004       -271.9484
   5011763.39546   3905268.01546  22198027.7944   22198030.8174
     -2669.1094      -2079.8254
   1148184.40143    938419.18143  24845596.7714   24845604.1574
     -1523.7814      -1187.3624
  -3000411.76844  -2185645.20744  23918241.7864   23918248.0214
      2409.3134       1877.3864
  -5634880.31246  -4343249.77946  20650565.1924   20650568.2984
      -111.4374        -86.8344
 98  6 25 16  1 15.0010000  0  8G 4G 5G 7G 8G 9G16G30G24
   4158151.90146   3252770.26946  21422100.9034   21422103.1304
     -2532.3284      -1973.2434
  -8065363.94346  -5306533.59046  21484339.2164   21484342.4854
      1144.1564        891.5504
  12117837.52644   9442469.07243  24197500.2164   24197505.4194
     -3220.9694      -2509.8464
  -5302760.93646  -1876640.47446  21968274.7864   21968278.6884
      -360.7504       -281.1044
   5051868.21446   3936518.50746  22205659.2554   22205662.2554
     -2678.0164      -2086.7654
   1171116.94844    956288.64343  24849960.7714   24849966.3134
     -1533.7814      -1195.1544
  -3036526.45645  -2213786.47144  23911370.5444   23911374.6924
      2406.1564       1874.9274
  -5633132.57346  -4341887.89446  20650897.8884   20650901.0284
      -121.4844        -94.6634
 98  6 25 16  1 30.0010000  0  8G 4G 5G 7G 8G 9G16G30G24
   4196209.87146   3282425.82846  21429342.8724   21429345.0634
     -2542.2814      -1980.9984
  -8082477.01346  -5319868.43646  21481082.6924   21481086.1854
      1137.3754        886.2664
  12166169.32344   9480130.19244  24206696.8964   24206701.8764
     -3223.4694      -2511.7944
  -5297258.74346  -1872353.05046  21969322.0604   21969325.6924
      -373.0784       -290.7104
   5092105.58646   3967872.28146  22213316.5674   22213319.8494
     -2687.1094      -2093.8514
   1194200.64143    974275.95942  24854352.4664   24854358.9584
     -1544.2194      -1203.2874
  -3072593.83043  -2241890.91243  23904506.3334   23904510.7984
      2402.6094       1872.1634
  -5631233.34546  -4340407.96846  20651259.3564   20651262.6734
      -131.9534       -102.8214
 98  6 25 16  1 45.0010000  0  8G 4G 5G 7G 8G 9G16G30G24
   4234415.16246   3312196.18246  21436612.7164   21436615.0134
     -2551.8124      -1988.4254
  -8099489.52946  -5333124.92946  21477845.3644   21477848.5524
      1130.8594        881.1894
  12214536.35044   9517818.73643  24215901.0284   24215904.8604
     -3225.6094      -2513.4624
  -5291575.48946  -1867924.55046  21970403.0214   21970406.5834
      -384.7664       -299.8174
   5132474.64046   3999328.67046  22220998.2864   22221001.4274
     -2695.5004      -2100.3904
   1217436.64244    992381.95943  24858775.7164   24858781.0364
     -1553.9844      -1210.8974
  -3108611.71145  -2269956.74344  23897652.3334   23897656.3884
      2399.6884       1869.8864
  -5629179.93246  -4338807.89746  20651650.2004   20651653.3994
      -141.9534       -110.6134
 98  6 25 16  2  0.0010000  0  8G 4G 5G 7G 8G 9G16G30G24
   4272755.95046   3342072.11746  21443908.9744   21443911.1654
     -2559.8444      -1994.6834
  -8116410.52446  -5346310.11146  21474625.3644   21474628.6464
      1125.7194        877.1834
  12262932.13843   9555529.75943  24225109.9504   24225113.9234
     -3226.7664      -2514.3634
  -5285724.98346  -1863365.70846  21971516.6064   21971519.7474
      -394.9224       -307.7314
   5172963.57446   4030878.46946  22228703.4274   22228706.4624
     -2702.5624      -2105.8934
   1240813.06144   1010597.35343  24863223.7474   24863229.2674
     -1562.4374      -1217.4844
  -3144590.95045  -2297992.41144  23890806.1924   23890810.9384
      2397.9384       1868.5234
  -5626981.74146  -4337095.01446  20652068.6534   20652071.8414
      -150.7194       -117.4434
 98  6 25 16  2 15.0010000  0  8G 4G 5G 7G 8G 9G16G30G24
   4311227.89846   3372050.25846  21451229.9584   21451232.1854
     -2569.6254      -2002.3054
  -8133243.53146  -5359426.73046  21471421.9974   21471425.0914
      1118.7974        871.7904
  12311355.66143   9593262.35443  24234324.0364   24234328.6884
     -3229.5944      -2516.5674
  -5279709.85146  -1858678.59946  21972661.2314   21972664.7004
      -406.9534       -317.1064
   5213566.94646   4062517.44146  22236429.9504   22236433.0564
     -2711.0944      -2112.5414
   1264328.10144   1028920.72843  24867698.5674   24867702.2124
     -1572.8444      -1225.5934
  -3180532.17443  -2325998.60444  23883964.5214   23883970.5674
      2394.4064       1865.7714
  -5624641.37846  -4335271.34246  20652513.7244   20652516.9234
      -161.2034       -125.6134
 98  6 25 16  2 30.0010000  0  8G 4G 5G 7G 8G 9G16G30G24
   4349841.48546   3402138.76346  21458577.9744   21458580.1064
     -2578.8284      -2009.4764
  -8149979.42946  -5372467.67746  21468237.5834   21468240.5364
      1112.5944        866.9564
  12359817.03443   9631024.43743  24243546.1224   24243551.5714
     -3231.9694      -2518.4174
  -5273521.95146  -1853856.86546  21973838.6614   21973842.2244
      -418.1094       -325.8004
   5254292.79746   4094251.85546  22244179.5994   22244182.7164
     -2719.0314      -2118.7264
   1287994.89544   1047362.37143  24872202.1064   24872206.0214
     -1582.6564      -1233.2394
  -3216425.70245  -2353967.48544  23877137.4744   23877141.2824
      2391.3914       1863.4214
  -5622149.05146  -4333329.25846  20652988.0754   20652991.4974
      -171.1724       -133.3814
 98  6 25 16  2 45.0010000  0  9G10G 4G 5G 7G 8G 9G16G30G24
     -9717.50851                  25030915.7394
      2429.6094
   4388593.59146   3432335.20846  21465952.4664   21465954.6224
     -2588.3754      -2016.9164
  -8166618.92646  -5385433.50746  21465071.2004   21465074.2714
      1105.7664        861.6364
  12408315.47343   9668815.39843  24252774.6144   24252781.6144
     -3234.7034      -2520.5484
  -5267164.82946  -1848903.24846  21975048.3334   21975051.8024
      -429.7344       -334.8584
   5295139.57646   4126080.49446  22251952.5674   22251955.6264
     -2727.4224      -2125.2644
   1311807.19644   1065917.37643  24876733.4664   24876736.3254
     -1592.5474      -1240.9464
  -3252273.95644  -2381901.19244  23870313.6144   23870317.7864
      2388.1414       1860.8894
  -5619505.55146  -4331269.37946  20653491.0524   20653494.5094
      -181.5004       -141.4294
 98  6 25 16  3  0.0010000  0  9G10G 4G 5G 7G 8G 9G16G30G24
    -46156.98042                  25023981.3884
      2428.8444
   4427488.42646   3462642.86946  21473353.4894   21473355.7044
     -2597.7974      -2024.2574
  -8183154.67346  -5398318.49246  21461924.4274   21461927.2394
      1098.8284        856.2304
  12456854.03844   9706637.61943  24262012.5754   24262015.8804
     -3237.1874      -2522.4844
  -5260632.82846  -1843813.38546  21976291.1694   21976294.5794
      -441.3284       -343.8924
   5336112.26446   4158007.24346  22259749.3564   22259752.3684
     -2735.8124      -2131.8024
   1335768.65744   1084588.68242  24881293.4974   24881300.7204
     -1602.4694      -1248.6774
  -3288072.96845  -2409796.43844  23863501.7634   23863505.9354
      2384.9384       1858.3934
  -5616707.24146  -4329088.87046  20654023.4744   20654027.1064
      -191.8124       -149.4644
 98  6 25 16  3 15.0010000  0  9G10G 4G 5G 7G 8G 9G16G30G24
    -82588.30842                  25017049.4584
      2428.6094
   4466523.72146   3493059.98546  21480781.8254   21480784.0754
     -2606.9374      -2031.3804
  -8199588.79546  -5411124.28846  21458797.1144   21458800.3134
      1092.3914        851.2134
  12505425.56344   9744485.53443  24271254.4744   24271259.8294
     -3239.0004      -2523.8964
  -5253930.65446  -1838590.91046  21977566.8024   21977570.5174
      -452.2974       -352.4394
   5377209.51346   4190031.05946  22267569.7944   22267572.8064
     -2743.8444      -2138.0604
   1359877.34644   1103374.65943  24885881.3494   24885886.3644
     -1612.1414      -1256.2134
  -3323827.38744  -2437657.04244  23856698.6064   23856703.1654
      2382.3134       1856.3474
  -5613755.17346  -4326788.54746  20654585.3724   20654588.7124
      -201.8444       -157.2814
 98  6 25 16  3 30.0010000  0  9G10G 4G 5G 7G 8G 9G16G30G24
   -119012.69142                  25010116.3964
      2428.0164
   4505698.44346   3523585.73646  21488236.6144   21488238.9354
     -2616.2974      -2038.6734
  -8215922.82046  -5423852.09346  21455688.9584   21455692.1574
      1085.5164        845.8564
  12554025.71244   9782355.79843  24280504.1144   24280509.5174
     -3240.9224      -2525.3944
  -5247059.94646  -1833237.11446  21978874.5914   21978878.2244
      -463.7344       -361.3514
   5418429.48146   4222150.49146  22275413.8724   22275417.0954
     -2752.1094      -2144.5014
   1384136.29044   1122277.71843  24890497.1854   24890502.8924
     -1622.3914      -1264.2004
  -3359539.79545  -2465484.79444  23849901.9584   23849906.9154
      2379.3444       1854.0344
  -5610649.44946  -4324368.49846  20655176.5444   20655179.8254
      -212.1564       -165.3174
 98  6 25 16  3 45.0010000  0  9G10G 4G 5G 7G 8G 9G16G30G24
   -155427.93342                  25003188.2714
      2427.5784
   4545012.84746   3554220.33546  21495717.4894   21495719.7164
     -2625.4064      -2045.7714
  -8232153.27146  -5436499.18046  21452600.5674   21452603.6494
      1078.7664        840.5974
  12602654.08245   9820247.99843  24289757.7164   24289763.0364
     -3242.5784      -2526.6844
  -5240016.02846  -1827748.34646  21980214.4194   21980217.9114
      -475.2814       -370.3494
   5459775.32146   4254368.00746  22283281.5604   22283284.5834
     -2760.5164      -2151.0514
   1408549.05444   1141300.67942  24895142.8254   24895149.3994
     -1632.4694      -1272.0544
  -3395206.56143  -2493277.07644  23843112.7714   23843116.8134
      2376.4534       1851.7824
  -5607390.81446  -4321829.28746  20655796.4424   20655799.7244
      -222.1564       -173.1094
 98  6 25 16  4  0.0010000  0  9G10G 4G 5G 7G 8G 9G16G30G24
   -191838.10142     -7564.31852  24996259.8414   24996266.7714
      2427.2194       1891.3394
   4584460.59246   3584958.83346  21503224.5214   21503226.7594
     -2634.1724      -2052.6014
  -8248285.76746  -5449069.94846  21449530.4584   21449533.6574
      1072.3754        835.6174
  12651304.26344   9858157.18443  24299015.5134   24299019.3454
     -3243.9844      -2527.7804
  -5232799.86246  -1822125.36046  21981587.7944   21981591.2164
      -486.7814       -379.3104
   5501246.06946   4286682.86046  22291173.5364   22291176.9704
     -2768.8444      -2157.5414
   1433111.11344   1160439.92742  24899816.6384   24899822.8964
     -1642.3444      -1279.7484
  -3430833.60145  -2521038.34944  23836335.1534   23836339.8884
      2373.8914       1849.7854
  -5603983.44946  -4319174.19146  20656444.8414   20656448.1464
      -232.0474       -180.8164
 98  6 25 16  4 15.0010000  0  9G10G 4G 5G 7G 8G 9G16G30G24
   -228241.03242    -35930.10742  24989331.5134   24989337.4544
      2426.7974       1891.0114
   4624040.88846   3615800.62246  21510756.4814   21510758.7784
     -2642.9224      -2059.4204
  -8264322.69746  -5461566.24846  21446478.6694   21446481.8924
      1066.1564        830.7714
  12699975.60545   9896082.90243  24308277.6224   24308281.6884
     -3245.2034      -2528.7304
  -5225408.13246  -1816365.57046  21982994.7864   21982998.3724
      -498.5164       -388.4544
   5542844.92046   4319097.53146  22299089.3024   22299092.6304
     -2777.3444      -2164.1644
   1457822.26444   1179695.37743  24904519.4354   24904525.7744
     -1652.2194      -1287.4434
  -3466420.27044  -2548768.15543  23829563.7784   23829569.1104
      2371.3444       1847.8004
  -5600427.15046  -4316403.03546  20657121.6224   20657124.7744
      -241.8444       -188.4504
 98  6 25 16  4 30.0010000  0  9G10G 4G 5G 7G 8G 9G16G30G24
   -264641.77242    -64294.24042  24982405.7314   24982410.9464
      2426.5164       1890.7914
   4663749.08846   3646742.07146  21518312.4814   21518314.7314
     -2651.6254      -2066.2014
  -8280268.01446  -5473991.16146  21443444.2394   21443447.3104
      1059.7664        825.7914
  12748661.16345   9934019.70544  24317542.4114   24317546.5244
     -3246.3444      -2529.6194
  -5217843.06746  -1810470.71646  21984434.1144   21984437.8534
      -510.3284       -397.6584
   5584568.69446   4351609.54246  22307029.2164   22307032.7674
     -2786.0004      -2170.9094
   1482681.09344   1199065.86443  24909249.9744   24909255.0954
     -1662.4224      -1295.3944
  -3501973.58945  -2576472.02544  23822797.6694   23822801.1854
      2369.0164       1845.9864
  -5596725.41046  -4313518.55146  20657825.9974   20657829.1384
      -251.9224       -196.3034
 98  6 25 16  4 45.0010000  0  9G10G 4G 5G 7G 8G 9G16G30G24
   -301040.21842    -92656.58442  24975478.6064   24975484.4194
      2426.3594       1890.6704
   4703585.06446   3677783.08746  21525893.0674   21525895.2124
     -2660.0474      -2072.7644
  -8296121.18646  -5486344.27346  21440427.7004   21440430.5244
      1053.7194        821.0804
  12797362.35245   9971968.65744  24326809.8024   24326814.3724
     -3247.3754      -2530.4224
  -5210102.26546  -1804438.92146  21985907.0604   21985910.5284
      -522.1414       -406.8634
   5626420.41846   4384221.26546  22314993.2634   22314996.5794
     -2794.4844      -2177.5204
   1507688.41344   1218552.09543  24914009.1464   24914013.9384
     -1672.0944      -1302.9304
  -3537496.12744  -2604151.84343  23816038.0604   23816041.3994
      2367.1094       1844.5014
  -5592873.61046  -4310517.13746  20658558.7944   20658561.7944
      -261.9534       -204.1194
 98  6 25 16  5  0.0010000  0  9G10G 4G 5G 7G 8G 9G16G30G24
   -337434.96042   -121016.03842  24968552.8804   24968560.6654
      2426.2034       1890.5484
   4743548.81046   3708923.67246  21533498.0444   21533500.2474
     -2668.5314      -2079.3754
  -8311880.67646  -5498624.38246  21437428.5444   21437431.4854
      1047.4694        816.2094
  12846080.67544  10009930.97744  24336079.5214   24336084.8174
     -3248.5004      -2531.2994
  -5202179.79346  -1798265.57346  21987414.4894   21987418.1924
      -534.2814       -416.3234
   5668402.20846   4416934.32546  22322982.1304   22322985.3994
     -2803.1874      -2184.3024
   1532844.73644   1238154.40843  24918795.3254   24918799.3804
     -1682.2504      -1310.8444
  -3572988.05843  -2631807.89144  23809282.9894   23809287.8884
      2365.0474       1842.8944
  -5588868.31146  -4307396.11746  20659321.0524   20659324.4034
      -272.2504       -212.1434
 98  6 25 16  5 15.0010000  0  9G10G 4G 5G 7G 8G 9G16G30G24
   -373827.73543   -149373.99642  24961628.1384   24961634.9354
      2426.2504       1890.5844
   4783637.96646   3740161.96946  21541126.5674   21541128.6774
     -2676.6564      -2085.7064
  -8327547.36946  -5510832.18746  21434447.5284   21434450.4934
      1041.4844        811.5464
  12894814.88744  10047905.66444  24345354.1924   24345358.5634
     -3249.3444      -2531.9564
  -5194076.86046  -1791951.58146  21988956.6384   21988960.2714
      -546.0624       -425.5034
   5710514.28346   4449748.91346  22330995.8254   22330999.1884
     -2811.7034      -2190.9374
   1558155.36144   1257876.97743  24923612.1304   24923615.8454
     -1692.4534      -1318.7954
  -3608447.96445  -2659438.90445  23802535.6144   23802539.2594
      2363.0164       1841.3114
  -5584707.17546  -4304153.66246  20660112.9034   20660116.0094
      -282.5314       -220.1544
 98  6 25 16  5 30.0010000  0  9G10G 4G 5G 7G 8G 9G16G30G24
   -410222.03543   -177733.13842  24954702.5754   24954708.7394
      2426.4694       1890.7554
   4823848.63546   3771494.95646  21548778.3724   21548780.4234
     -2684.5784      -2091.8794
  -8343124.13546  -5522969.91846  21431483.3804   21431486.2164
      1035.5474        806.9204
  12943562.75045  10085890.95444  24354630.3724   24354634.5564
     -3250.2504      -2532.6624
  -5185796.78446  -1785499.58646  21990532.1534   21990535.7514
      -557.8594       -434.6964
   5752753.98046   4482662.94346  22339033.7944   22339037.1464
     -2820.0944      -2197.4764
   1583620.34045   1277719.84243  24928457.9114   24928461.6854
     -1702.6564      -1326.7454
  -3643876.57645  -2687045.54345  23795794.2554   23795798.7314
      2360.8914       1839.6554
  -5580390.81946  -4300790.26046  20660934.3964   20660937.5714
      -292.8754       -228.2144
 98  6 25 16  5 45.0010000  0  9G10G 4G 5G 7G 8G 9G16G30G24
   -446619.13543   -206094.39242  24947776.5994   24947782.1184
      2426.2974       1890.6214
   4864176.09046   3802918.94946  21556452.6224   21556454.6614
     -2692.6414      -2098.1624
  -8358611.21446  -5535037.76246  21428536.1614   21428538.9154
      1029.2034        801.9764
  12992325.36945  10123887.78744  24363909.9194   24363914.3724
     -3251.7034      -2533.7954
  -5177339.93346  -1778909.82946  21992141.3494   21992144.9114
      -569.9224       -444.0954
   5795119.53146   4515675.04946  22347095.5214   22347098.8844
     -2828.8754      -2204.3184
   1609235.72045   1297679.86543  24933332.1384   24933335.5954
     -1712.9374      -1334.7564
  -3679272.32144  -2714626.61844  23789058.6064   23789063.1184
      2358.3284       1837.6584
  -5575919.15546  -4297305.83546  20661785.1304   20661788.3414
      -303.5784       -236.5544
 98  6 25 16  6  0.0010000  0  9G10G 4G 5G 7G 8G 9G16G30G24
   -483016.07442   -234455.55342  24940849.5604   24940856.8644
      2426.7034       1890.9384
   4904622.77746   3834435.84446  21564149.1694   21564151.2314
     -2700.2034      -2104.0544
  -8374005.10346  -5547032.99246  21425606.9274   21425609.8334
      1023.3754        797.4354
  13041108.39845  10161900.52844  24373193.0214   24373196.1964
     -3252.5944      -2534.4894
  -5168703.32246  -1772179.99046  21993784.8334   21993788.4314
      -581.5164       -453.1294
   5837614.39546   4548787.90346  22355182.0444   22355185.4784
     -2836.9694      -2210.6254
   1635002.63345   1317757.94143  24938235.8494   24938240.0564
     -1722.5784      -1342.2694
  -3714632.58545  -2742179.99945  23782330.5284   23782334.1614
      2356.4844       1836.2224
  -5571287.12146  -4293696.44946  20662666.6144   20662669.7904
      -313.9844       -244.6634
 98  6 25 16  6 15.0010000  0  9G10G 4G 5G 7G 8G 9G16G30G24
   -519417.27142   -262819.98142  24933922.7394   24933929.9744
      2426.9534       1891.1324
   4945185.03646   3866042.80046  21571867.8884   21571870.0914
     -2707.9374      -2110.0814
  -8389308.70346  -5558957.86346  21422695.0604   21422697.8724
      1017.2664        792.6754
  13089905.07545  10199923.90344  24382478.8334   24382483.8374
     -3253.4224      -2535.1344
  -5159892.88346  -1765314.71946  21995461.5284   21995465.2204
      -593.0004       -462.0784
   5880229.96746   4581994.82446  22363291.7864   22363295.5244
     -2844.9374      -2216.8344
   1660915.87745   1337950.10643  24943166.8334   24943171.1464
     -1732.3594      -1349.8904
  -3749964.16745  -2769711.05145  23775606.0364   23775610.3494
      2354.5314       1834.7004
  -5566496.69846  -4289963.64146  20663578.3024   20663581.5134
      -324.5474       -252.8944
 98  6 25 16  6 30.0010000  0  9G10G 4G 5G 7G 8G 9G16G30G24
   -555818.96442   -291184.85742  24926996.1064   24927002.6224
      2427.0944       1891.2424
   4985866.18446   3897742.39446  21579609.2554   21579611.6464
     -2715.8124      -2116.2184
  -8404516.78446  -5570808.30646  21419800.5444   21419803.1924
      1010.9224        787.7314
  13138716.62945  10237958.86043  24391766.5674   24391771.0324
     -3254.3754      -2535.8774
  -5150908.59546  -1758313.98446  21997171.3334   21997175.0364
      -604.4224       -470.9784
   5922967.38946   4615296.69446  22371424.5054   22371428.1144
     -2852.8754      -2223.0194
   1686981.13644   1358260.71043  24948126.9894   24948131.8174
     -1742.5784      -1357.8534
  -3785261.86244  -2797215.73444  23768889.0754   23768894.3844
      2352.3134       1832.9714
  -5561544.43946  -4286104.72846  20664520.7164   20664524.0564
      -335.3444       -261.3074
 98  6 25 16  6 45.0010000  0  9G10G 4G 5G 7G 8G 9G16G30G24
   -592223.01343   -319551.56342  24920068.0444   24920074.2554
      2426.8754       1891.0714
   5026666.91246   3929535.16546  21587373.4354   21587375.5674
     -2724.1414      -2122.7074
  -8419629.12846  -5582584.14846  21416924.8804   21416927.2824
      1004.2664        782.5454
  13187544.41745  10276006.49044  24401059.0994   24401063.2354
     -3255.8124      -2536.9974
  -5141753.30746  -1751179.99746  21998913.7554   21998917.3294
      -616.1564       -480.1224
   5965822.75346   4648690.46946  22379579.4744   22379582.9194
     -2861.0164      -2229.3634
   1713199.25844   1378690.43443  24953116.2394   24953121.1144
     -1752.9374      -1365.9254
  -3820525.25545  -2824693.62445  23762178.8334   23762181.4354
      2349.5784       1830.8404
  -5556429.82546  -4282119.30146  20665493.6924   20665496.9744
      -346.3914       -269.9154
 98  6 25 16  7  0.0010000  0  9G10G 4G 5G 7G 8G 9G16G30G24
   -628623.77743   -347915.76842  24913141.5754   24913148.6814
      2426.8754       1891.0714
   5067590.73146   3961423.85246  21595161.0214   21595163.2244
     -2732.0624      -2128.8804
  -8434645.02946  -5594284.83646  21414067.4274   21414069.9934
       998.0474        777.6994
  13236390.25245  10314068.15344  24410354.7554   24410359.9234
     -3256.6874      -2537.6794
  -5132424.45446  -1743910.75446  22000688.5054   22000692.3134
      -627.4224       -488.9004
   6008796.36946   4682176.38646  22387756.9974   22387760.1854
     -2868.5314      -2235.2194
   1739568.42845   1399237.79643  24958133.8334   24958139.1304
     -1762.7344      -1373.5594
  -3855748.55645  -2852140.31445  23755476.6304   23755480.8254
      2347.0634       1828.8804
  -5551155.38146  -4278009.34046  20666497.6774   20666500.9464
      -356.5784       -277.8534
 98  6 25 16  7 15.0010000  0  9G10G 4G 5G 7G 8G 9G16G30G24
   -665026.95643   -376281.76542  24906214.7714   24906221.4384
      2426.8284       1891.0354
   5108631.53946   3993403.70046  21602970.8104   21602973.3064
     -2740.1254      -2135.1624
  -8449567.29146  -5605912.56046  21411227.8724   21411230.6614
       991.5164        772.6104
  13285248.12245  10352139.20343  24419651.2474   24419656.6034
     -3257.7034      -2538.4704
  -5122929.63046  -1736512.18746  22002495.5444   22002498.7784
      -638.5944       -497.6064
   6051880.34346   4715748.29446  22395955.6224   22395959.0094
     -2876.0164      -2241.0514
   1766084.86444   1419899.98443  24963179.5284   24963185.3644
     -1772.8284      -1381.4254
  -3890934.02844  -2879557.53545  23748780.8964   23748785.7354
      2344.2194       1826.6644
  -5545730.59246  -4273782.22246  20667529.9894   20667532.9314
      -366.8124       -285.8284
 98  6 25 16  7 30.0010000  0  9G10G 4G 5G 7G 8G 9G16G30G24
   -701430.00042   -404647.72442  24899286.7084   24899293.0484
      2426.7504       1890.9744
   5149792.17746   4025476.92046  21610803.4814   21610806.0714
     -2748.2194      -2141.4694
  -8464393.99846  -5617465.83046  21408406.2864   21408409.1104
       985.2504        767.7274
  13334118.47744  10390219.95943  24428950.6304   24428956.4544
     -3258.5314      -2539.1154
  -5113268.48046  -1728984.01746  22004334.1144   22004337.7824
      -649.7974       -506.3354
   6095073.08246   4749404.95646  22404175.2394   22404178.6264
     -2883.1724      -2246.6274
   1792749.82445   1440677.85043  24968254.1144   24968258.0524
     -1782.6254      -1389.0584
  -3926078.32545  -2906942.64845  23742091.4114   23742094.6344
      2341.5784       1824.6064
  -5540154.98546  -4269437.58446  20668591.0134   20668594.1534
      -376.7194       -293.5474
 98  6 25 16  7 45.0010000  0  9G10G 4G 5G 7G 8G 9G16G30G24
   -737821.93443   -433004.98342  24892362.0214   24892368.3724
      2425.9694       1890.3654
   5191085.80946   4057653.77346  21618661.4974   21618663.7354
     -2757.1874      -2148.4584
  -8479117.88646  -5628938.98146  21405604.3644   21405606.9424
       978.3594        762.3584
  13383011.82044  10428318.68343  24438254.7714   24438258.9544
     -3260.1564      -2540.3814
  -5103429.35746  -1721317.18146  22006206.5994   22006210.0214
      -661.6874       -515.6014
   6138380.64246   4783151.08546  22412416.2784   22412419.5714
     -2890.7194      -2252.5084
   1819569.38644   1461576.22943  24973357.7784   24973361.0134
     -1792.8284      -1397.0094
  -3961174.95045  -2934290.59545  23735415.2314   23735418.6774
      2338.4384       1822.1594
  -5534422.94746  -4264971.05346  20669681.7474   20669685.0404
      -387.0944       -301.6314
 98  6 25 16  8  0.0010000  0  9G10G 4G 5G 7G 8G 9G16G30G24
   -774214.71943   -461362.96842  24885436.2714   24885444.9234
      2426.4844       1890.7674
   5232503.68746   4089927.44246  21626542.9274   21626545.2714
     -2765.1564      -2154.6674
  -8493750.98546  -5640341.38746  21402819.8884   21402822.7124
       972.8284        758.0484
  13431917.67044  10466427.12043  24447561.0134   24447563.8024
     -3260.5784      -2540.7104
  -5093422.98946  -1713519.99846  22008110.2394   22008113.7904
      -672.4534       -523.9894
   6181788.77046   4816975.58146  22420676.8964   22420680.1534
     -2896.9534      -2257.3664
   1846529.07344   1482583.74443  24978487.5214   24978492.9584
     -1801.7344      -1403.9494
  -3996237.97945  -2961612.38745  23728742.9274   23728747.5564
      2336.6564       1820.7714
  -5528549.04346  -4260393.97846  20670799.6224   20670803.0324
      -396.0164       -308.5844
 98  6 25 16  8 15.0010000  0  9G10G 4G 5G 7G 8G 9G16G30G24
   -810606.77342   -489720.27342  24878510.5364   24878517.5954
      2426.0004       1890.3904
   5274050.76546   4122301.78646  21634449.0284   21634451.4194
     -2774.2344      -2161.7414
  -8508291.59846  -5651671.72146  21400052.9974   21400055.9154
       966.1094        752.8134
  13480838.41644  10504547.14143  24456870.4424   24456874.7674
     -3261.9844      -2541.8064
  -5083245.28046  -1705589.32946  22010047.3494   22010051.0174
      -684.3594       -533.2674
   6225299.36246   4850879.91746  22428956.3884   22428959.6344
     -2904.2504      -2263.0524
   1873632.07244   1503702.99043  24983644.8254   24983648.7864
     -1811.7974      -1411.7904
  -4031263.77944  -2988905.18945  23722075.4504   23722078.8024
      2333.6254       1818.4094
  -5522533.51246  -4255706.53946  20671944.0604   20671947.2354
      -405.7974       -316.2054
 98  6 25 16  8 30.0010000  0  9G10G 4G 5G 7G 8G 9G16G30G24
   -846990.92742   -518071.46842  24871586.5364   24871593.3684
      2425.2814       1889.8304
   5315733.13146   4154781.54546  21642381.0994   21642383.5134
     -2783.3754      -2168.8644
  -8522733.02646  -5662924.77246  21397304.7634   21397307.5524
       959.4534        747.6264
  13529782.05544  10542685.05942  24466184.5444   24466190.2984
     -3263.9064      -2543.3044
  -5072890.58246  -1697520.71946  22012017.8804   22012021.3024
      -696.2504       -542.5324
   6268920.24346   4884870.19946  22437257.1144   22437260.1734
     -2911.8594      -2268.9814
   1900886.06044   1524939.84843  24988831.6534   24988834.7474
     -1822.0164      -1419.7524
  -4066243.60045  -3016162.13445  23715420.2314   23715423.8414
      2330.4224       1815.9134
  -5516373.84546  -4250906.79246  20673116.5214   20673119.6264
      -415.4064       -323.6934
 98  6 25 16  8 45.0010000  0  9G10G 4G 5G 7G 8G 9G16G30G24
   -883370.59342   -546419.20542  24864664.1064   24864671.6814
      2425.2344       1889.7934
   5357546.70546   4187363.54546  21650337.7864   21650340.1304
     -2791.8914      -2175.4994
  -8537079.84246  -5674104.09546  21394574.6144   21394577.3684
       953.3444        742.8654
  13578751.66644  10580843.17142  24475503.0444   24475508.7514
     -3265.5164      -2544.5584
  -5062362.29846  -1689316.86946  22014020.9664   22014024.5284
      -707.6564       -551.4204
   6312649.89546   4918945.23546  22445578.8564   22445582.2674
     -2918.8594      -2274.4364
   1928287.03944   1546291.26443  24994046.2474   24994050.1494
     -1831.5314      -1427.1674
  -4101179.94644  -3043385.22444  23708770.2084   23708775.0134
      2327.6884       1813.7824
  -5510076.89446  -4246000.06746  20674314.4814   20674317.9034
      -424.2664       -330.5974
 98  6 25 16  9  0.0010000  0  9G10G 4G 5G 7G 8G 9G16G30G24
   -919745.23342   -574762.94241  24857742.3024   24857746.4154
      2424.8284       1889.4764
   5399490.17246   4220046.76346  21658319.5994   21658321.8964
     -2800.4534      -2182.1714
  -8551332.35446  -5685209.94146  21391862.5834   21391865.2674
       947.0944        737.9954
  13627747.48944  10619021.73142  24484826.4974   24484828.9934
     -3267.1254      -2545.8124
  -5051658.85646  -1680976.52746  22016057.8024   22016061.5404
      -719.3594       -560.5404
   6356487.76346   4953104.58846  22453920.9194   22453924.2824
     -2926.1094      -2280.0854
   1955831.17845   1567754.23243  24999287.8104   24999292.2044
     -1840.9224      -1434.4854
  -4136072.94945  -3070574.51445  23702132.0284   23702136.0954
      2324.8444       1811.5674
  -5503645.64046  -4240988.69546  20675538.4584   20675541.5754
      -433.1094       -337.4884
 98  6 25 16  9 15.0010000  0  9G10G 4G 5G 7G 8G 9G16G30G24
   -956116.77342   -603104.43441  24850821.0994   24850827.9814
      2424.7504       1889.4164
   5441559.73146   4252828.23246  21666325.0214   21666327.3064
     -2808.7974      -2188.6734
  -8565491.94946  -5696243.37846  21389168.2394   21389171.0754
       940.8444        733.1254
  13676766.29944  10657218.16442  24494154.9584   24494160.5134
     -3268.7194      -2547.0544
  -5040781.43246  -1672500.60446  22018128.1224   22018132.0604
      -730.9224       -569.5504
   6400433.07546   4987347.66446  22462283.0364   22462286.1534
     -2933.2664      -2285.6624
   1983515.75545   1589326.63043  25004555.3414   25004559.1144
     -1850.3754      -1441.8514
  -4170925.55445  -3097732.33445  23695499.3414   23695503.8884
      2322.1884       1809.4974
  -5497082.56346  -4235874.60146  20676787.4504   20676790.5324
      -442.0164       -344.4284
 98  6 25 16  9 30.0010000  0  9G10G 4G 5G 7G 8G 9G16G30G24
   -992488.03442   -631445.55542  24843899.7084   24843907.0834
      2424.8284       1889.4764
   5483754.61146   4285707.35846  21674354.2554   21674356.3994
     -2817.1254      -2195.1624
  -8579559.64046  -5707205.20646  21386491.1464   21386494.2284
       934.9844        728.5594
  13725808.74043  10695433.06742  24503486.8024   24503493.7314
     -3270.1874      -2548.1984
  -5029731.82046  -1663890.53146  22020230.4274   22020233.7904
      -742.2814       -578.4014
   6444486.54946   5021675.03046  22470666.4814   22470669.5054
     -2940.4844      -2291.2874
   2011340.98445   1611008.59843  25009850.6854   25009855.7004
     -1859.5624      -1449.0104
  -4205739.81045  -3124860.30945  23688874.5754   23688879.5094
      2319.7664       1807.6104
  -5490385.39346  -4230656.01646  20678061.6064   20678064.8644
      -450.8914       -351.3434
 98  6 25 16  9 45.0010000  0  9G10G 4G 5G 7G 8G 9G16G30G24
  -1028853.60142   -659782.30941  24836980.0674   24836985.0134
      2424.6094       1889.3064
   5526080.69946   4318688.72246  21682408.9194   21682411.4744
     -2825.6874      -2201.8344
  -8593535.33946  -5718095.35046  21383831.5994   21383834.3994
       929.0944        723.9694
  13774881.20143  10733671.34842  24512825.7944   24512832.3104
     -3272.1414      -2549.7204
  -5018505.68946  -1655142.88446  22022366.8884   22022370.5794
      -753.8444       -587.4114
   6488656.66946   5056093.29146  22479071.7004   22479074.5134
     -2948.2814      -2297.3624
   2039310.07145   1632802.69943  25015173.6384   25015178.6304
     -1868.9534      -1456.3274
  -4240510.85945  -3151954.55445  23682258.8804   23682262.6654
      2317.0164       1805.4674
  -5483548.64046  -4225328.66946  20679362.9424   20679366.2244
      -460.0314       -358.4664
 98  6 25 16 10  0.0010000  0  9G10G 4G 5G 7G 8G 9G16G30G24
  -1065222.78642   -688121.88041  24830057.8494   24830064.1304
      2424.5634       1889.2694
   5568529.07146   4351765.37246  21690486.5834   21690488.8564
     -2834.0784      -2208.3734
  -8607425.63846  -5728918.95146  21381188.3414   21381191.0484
       922.9064        719.1484
  13823978.39042  10771928.91141  24522166.6384   24522173.9314
     -3274.1414      -2551.2784
  -5007112.02146  -1646264.71146  22024534.6384   22024538.4354
      -765.3594       -596.3844
   6532940.44246   5090600.10346  22487498.5444   22487501.8374
     -2956.3284      -2303.6324
   2067413.13344   1654701.19943  25020520.2714   25020526.3414
     -1878.2034      -1463.5354
  -4275245.77845  -3179020.70445  23675648.0364   23675652.1144
      2314.2194       1803.2874
  -5476579.58546  -4219898.23446  20680688.9114   20680691.9464
      -469.2504       -365.6494
 98  6 25 16 10 15.0010000  0  9G10G 4G 5G 7G 8G 9G16G30G24
  -1101592.34541   -716461.74841  24823137.3964   24823146.5874
      2424.6564       1889.3434
   5611098.56846   4384936.39746  21698587.2084   21698589.3884
     -2841.8594      -2214.4364
  -8621225.47646  -5739672.06146  21378562.0834   21378564.8844
       916.9844        714.5334
  13873101.67142  10810206.71942  24531515.2474   24531522.4814
     -3275.6414      -2552.4474
  -4995547.97046  -1637253.76046  22026735.7004   22026739.3214
      -776.5004       -605.0654
   6577346.09146   5125201.87946  22495948.6064   22495951.8644
     -2964.4844      -2309.9884
   2095653.92244   1676706.98143  25025894.9114   25025899.8564
     -1887.2814      -1470.6094
  -4309939.05244  -3206054.39945  23669045.7864   23669050.4974
      2311.5164       1801.1814
  -5469474.13846  -4214361.51046  20682041.1064   20682044.3764
      -478.1874       -372.6144
 98  6 25 16 10 30.0010000  0  9G10G 4G 5G 7G 8G 9G16G30G24
  -1137961.22742   -744800.91541  24816216.2164   24816226.3334
      2424.2504       1889.0264
   5653784.77446   4418198.37746  21706709.9664   21706712.1224
     -2849.8914      -2220.6944
  -8634934.62946  -5750354.50746  21375953.5524   21375956.3414
       910.6724        709.6144
  13922247.53842  10848502.22842  24540867.0054   24540872.6304
     -3277.3594      -2553.7874
  -4983817.21446  -1628112.93546  22028967.6534   22028971.2044
      -787.7974       -613.8684
   6621875.40646   5159900.03246  22504422.6304   22504425.6774
     -2972.9844      -2316.6114
   2124032.08344   1698819.81043  25031294.5754   25031299.8844
     -1896.7194      -1477.9634
  -4344591.46045  -3233056.18445  23662452.4974   23662455.6614
      2308.6094       1798.9164
  -5462233.85246  -4208719.72746  20683418.7714   20683421.9584
      -487.4844       -379.8584
 98  6 25 16 10 45.0010000  0  9G10G 4G 5G 7G 8G 9G16G30G24
  -1174323.09842   -773134.84241  24809296.7084   24809305.9114
      2423.8594       1888.7224
   5696592.31446   4451554.89546  21714856.2864   21714858.4424
     -2857.9374      -2226.9644
  -8648548.62446  -5760962.80346  21373362.9354   21373365.9234
       904.2974        704.6474
  13971419.65442  10886818.10242  24550225.1694   24550229.2354
     -3279.0624      -2555.1144
  -4971916.36346  -1618839.53046  22031232.8104   22031236.4314
      -799.1414       -622.7074
   6666532.59646   5194697.81146  22512920.6924   22512923.9744
     -2981.4064      -2323.1744
   2152553.07944   1721043.97243  25036722.3724   25036727.0714
     -1906.2194      -1485.3654
  -4379200.83945  -3260024.52245  23655865.6534   23655870.3414
      2305.8134       1796.7374
  -5454851.96946  -4202967.60146  20684823.4584   20684826.6224
      -496.9844       -387.2614
 98  6 25 16 11  0.0010000  0  9G10G 4G 5G 7G 8G 9G16G30G24
  -1210680.86942   -801465.46442  24802377.5754   24802383.2714
      2423.4694       1888.4174
   5739518.48546   4485003.85046  21723024.7554   21723027.0994
     -2865.8594      -2233.1374
  -8662067.16746  -5771496.72046  21370790.5524   21370793.3534
       897.8754        699.6434
  14020612.60442  10925150.27242  24559587.1304   24559592.3334
     -3280.2664      -2556.0514
  -4959847.02446  -1609434.85546  22033529.0444   22033532.5714
      -810.3754       -631.4614
   6711312.63046   5229591.33546  22521441.7864   22521445.1034
     -2989.6094      -2329.5664
   2181214.38944   1743377.45943  25042175.9664   25042181.1104
     -1915.6724      -1492.7314
  -4413770.01645  -3286961.49345  23649287.5524   23649291.3964
      2303.1254       1794.6434
  -5447326.43946  -4197103.54446  20686255.7634   20686258.8804
      -506.7664       -394.8824
 98  6 25 16 11 15.0010000  0  9G10G 4G 5G 7G 8G 9G16G30G24
  -1247030.64342   -829789.86742  24795461.0914   24795466.2714
      2422.9064       1887.9794
   5782564.29546   4518546.03846  21731216.0604   21731218.3804
     -2873.8444      -2239.3594
  -8675489.09446  -5781955.35446  21368236.4424   21368239.1494
       891.4064        694.6024
  14069823.61443  10963496.46642  24568950.9894   24568953.8724
     -3281.5164      -2557.0254
  -4947608.21946  -1599898.12446  22035858.3174   22035862.1964
      -821.7194       -640.3004
   6756218.10046   5264582.58546  22529987.1464   22529990.5674
     -2998.0784      -2336.1654
   2210018.17644   1765821.97443  25047657.4114   25047660.7164
     -1925.1724      -1500.1344
  -4448299.15945  -3313867.25945  23642717.7634   23642721.7474
      2300.4384       1792.5494
  -5439651.94246  -4191123.41446  20687715.8104   20687719.2784
      -516.7814       -402.6874
 98  6 25 16 11 30.0010000  0  9G10G 4G 5G 7G 8G 9G16G30G24
  -1283374.16942   -858109.47741  24788545.1614   24788549.0634
      2422.7034       1887.8214
   5825727.77846   4552179.91346  21739429.9744   21739432.4464
     -2881.4064      -2245.2524
  -8688813.39646  -5792337.91646  21365700.7474   21365703.6884
       885.0314        689.6354
  14119053.71143  11001857.50842  24578320.1464   24578325.4194
     -3282.6094      -2557.8774
  -4935202.44746  -1590231.28846  22038218.9584   22038222.4744
      -832.4694       -648.6774
   6801249.53646   5299671.99246  22538556.4034   22538559.9194
     -3006.2664      -2342.5454
   2238965.36544   1788378.17342  25053165.6614   25053172.1424
     -1934.5314      -1507.4274
  -4482788.62444  -3340742.13745  23636153.1144   23636158.2004
      2298.0784       1790.7104
  -5431826.68246  -4185025.80146  20689204.9894   20689208.1884
      -526.7504       -410.4554
 98  6 25 16 11 45.0010000  0  9G10G 4G 5G 7G 8G 9G16G30G24
  -1319711.85742   -886424.49341  24781630.0604   24781635.0874
      2422.6884       1887.8084
   5869005.20346   4585902.57546  21747665.1304   21747667.5094
     -2888.5784      -2250.8404
  -8702041.07946  -5802645.19446  21363183.6304   21363186.3024
       878.9224        684.8744
  14168300.62943  11040231.75343  24587690.0214   24587693.5134
     -3283.3444      -2558.4504
  -4922633.66346  -1580437.43046  22040610.6774   22040614.1924
      -843.0624       -656.9324
   6846405.53646   5334858.46746  22547149.2714   22547152.6104
     -3014.1874      -2348.7184
   2268052.89644   1811043.79242  25058701.0914   25058708.2434
     -1943.5164      -1514.4284
  -4517240.91745  -3367588.03345  23629598.1144   23629602.0524
      2295.9064       1789.0184
  -5423851.12346  -4178811.07646  20690722.6304   20690725.7594
      -536.3124       -417.9064
 98  6 25 16 12  0.0010000  0  9G10G 4G 5G 7G 8G 9G16G30G24
  -1356042.26542   -914733.82842  24774716.6924   24774724.2554
      2421.7344       1887.0664
   5912395.16446   4619712.92846  21755922.0284   21755924.3604
     -2896.4064      -2256.9404
  -8715168.21246  -5812874.11846  21360685.5444   21360688.3804
       871.6094        679.1764
  14217563.75043  11078618.57242  24597064.8724   24597070.6854
     -3284.7194      -2559.5214
  -4909898.55646  -1570513.97046  22043034.1384   22043038.0174
      -854.6564       -665.9664
   6891685.58246   5370141.60146  22555765.5834   22555768.8174
     -3022.7504      -2355.3904
   2297281.91644   1833819.64843  25064263.1924   25064269.9544
     -1953.3124      -1522.0624
  -4551655.89845  -3394404.84645  23623047.8804   23623052.6144
      2293.1094       1786.8384
  -5415725.92846  -4172479.74746  20692268.7714   20692272.0634
      -546.6724       -425.9784
 98  6 25 16 12 15.0010000  0  9G10G 4G 5G 7G 8G 9G16G30G24
  -1392365.78642   -943037.80342  24767803.8254   24767808.4314
      2420.9534       1886.4574
   5955893.81646   4653607.97646  21764199.6774   21764201.7744
     -2903.7814      -2262.6874
  -8728190.91746  -5823021.66646  21358207.4504   21358210.2634
       864.3914        673.5514
  14266838.29544  11117014.30642  24606442.5834   24606447.2714
     -3285.5944      -2560.2034
  -4896996.85346  -1560460.69746  22045489.0604   22045492.6924
      -865.9534       -674.7694
   6937082.71246   5405515.96346  22564404.7084   22564408.0484
     -3030.5624      -2361.4774
   2326649.48843   1856703.47643  25069851.6534   25069858.3214
     -1962.7974      -1529.4524
  -4586036.65645  -3421195.02845  23616505.3334   23616510.0794
      2290.5784       1784.8664
  -5407454.18246  -4166034.22646  20693842.8254   20693846.0484
      -556.6724       -433.7704
 98  6 25 16 12 30.0010000  0  9G10G 4G 5G 7G 8G 9G16G30G24
  -1428679.06242   -971333.75442  24760894.6224   24760900.7044
      2420.7504       1886.2994
   5999500.12046   4687586.90946  21772497.7474   21772500.1494
     -2910.5164      -2267.9344
  -8741108.39946  -5833087.22746  21355749.4194   21355752.0794
       857.8754        668.4744
  14316122.54144  11155417.55642  24615820.2714   24615824.8534
     -3285.7344      -2560.3124
  -4883929.05246  -1550277.99046  22047975.6924   22047979.3134
      -876.4694       -682.9634
   6982592.21446   5440977.89546  22573064.7394   22573068.2084
     -3037.3284      -2366.7494
   2356159.04843   1879697.91743  25075466.3174   25075471.5444
     -1971.8284      -1536.4894
  -4620381.17945  -3447956.91945  23609970.6064   23609974.9314
      2288.6414       1783.3564
  -5399034.32246  -4159473.29246  20695445.1694   20695448.7434
      -566.0624       -441.0884
 98  6 25 16 12 45.0010000  0  9G10G 4G 5G 7G 8G 9G16G30G24
  -1464982.62642   -999622.17842  24753985.6384   24753990.6304
      2419.8284       1885.5804
   6043215.43346   4721650.78046  21780816.2714   21780818.4384
     -2918.0474      -2273.8034
  -8753921.14746  -5843071.17846  21353311.0054   21353313.8994
       850.6254        662.8254
  14365416.24844  11193828.27443  24625200.4114   24625203.7634
     -3286.6724      -2561.0434
  -4870695.68246  -1539966.27546  22050494.1534   22050497.6224
      -887.9064       -691.8754
   7028207.27746   5476522.07546  22581745.0214   22581748.4894
     -3044.5164      -2372.3504
   2385811.71944   1902803.88543  25081110.5054   25081115.2394
     -1981.7344      -1544.2094
  -4654689.16445  -3474690.39445  23603441.8884   23603445.6494
      2285.8754       1781.2014
  -5390465.72446  -4152796.46046  20697076.0444   20697079.2784
      -576.3594       -449.1114
 98  6 25 16 13  0.0010000  0  9G10G 4G 5G 7G 8G 9G16G30G24
  -1501279.49343  -1027905.38342  24747078.5444   24747085.3294
      2419.4844       1885.3134
   6087036.11746   4755796.76346  21789155.0834   21789157.2864
     -2924.9064      -2279.1484
  -8766632.05946  -5852975.77746  21350892.2314   21350895.2904
       843.9534        657.6264
  14414719.60644  11232246.43343  24634582.5444   24634587.5244
     -3287.2974      -2561.5304
  -4857296.49346  -1529525.35046  22053043.3724   22053046.6304
      -898.8914       -700.4344
   7073922.79446   5512144.53746  22590444.1144   22590447.2784
     -3051.0944      -2377.4764
   2415605.61343   1926019.83943  25086779.2084   25086785.4074
     -1991.0004      -1551.4294
  -4688961.54945  -3501396.09345  23596920.5674   23596924.8214
      2283.5164       1779.3634
  -5381749.07946  -4146004.26146  20698734.4894   20698737.5364
      -586.0474       -456.6604
 98  6 25 16 13 15.0010000  0  9G10G 4G 5G 7G 8G 9G16G30G24
  -1537564.00442  -1056178.94242  24740173.7084   24740179.9664
      2418.4224       1884.4854
   6130964.29046   4790026.50246  21797514.4114   21797516.7554
     -2932.2344      -2284.8584
  -8779239.32246  -5862799.60846  21348492.9504   21348496.0214
       837.0164        652.2204
  14464036.75244  11270675.33243  24643967.4664   24643972.8454
     -3288.4374      -2562.4194
  -4843727.30646  -1518951.95746  22055626.0134   22055629.3414
      -910.3914       -709.3954
   7119743.29646   5547848.79446  22599163.9744   22599167.6654
     -3058.3754      -2383.1494
   2445544.06143   1949348.47143  25092476.2784   25092481.4814
     -2000.7974      -1559.0624
  -4723192.59045  -3528069.60345  23590405.7554   23590410.1144
      2280.6254       1777.1104
  -5372883.28546  -4139095.84646  20700421.6224   20700424.8564
      -596.0474       -464.4524
 98  6 25 16 13 30.0010000  0  9G10G 4G 5G 7G 8G 9G16G30G24
  -1573836.52843  -1084443.19742  24733272.1384   24733278.0214
      2417.8444       1884.0344
   6174999.93846   4824339.99146  21805894.0214   21805896.3764
     -2939.2974      -2290.3614
  -8791744.67146  -5872544.02546  21346113.2164   21346116.2744
       830.2504        646.9484
  14513371.57744  11309118.05443  24653355.7084   24653360.3024
     -3289.6254      -2563.3444
  -4829987.39546  -1508245.53746  22058240.6384   22058244.5994
      -921.6874       -718.1984
   7165669.73946   5583635.61646  22607903.4664   22607907.1924
     -3065.2194      -2388.4824
   2475625.17444   1972788.32143  25098200.9274   25098205.1104
     -2010.1874      -1566.3804
  -4757381.65545  -3554710.36945  23583900.4664   23583904.1224
      2277.8444       1774.9434
  -5363871.93246  -4132074.00846  20702136.4504   20702139.7314
      -605.5164       -471.8304
 98  6 25 16 13 45.0010000  0  9G10G 4G 5G 7G 8G 9G16G30G24
  -1610095.99743  -1112697.19642  24726371.5134   24726377.7474
      2417.1414       1883.4864
   6219146.90146   4858740.21646  21814295.0214   21814297.4584
     -2946.5944      -2296.0474
  -8804144.16746  -5882205.96046  21343754.0284   21343756.9934
       823.5164        641.7004
  14562727.60945  11347577.23743  24662747.7084   24662751.3994
     -3290.7194      -2564.1964
  -4816074.85946  -1497404.59946  22060888.5054   22060892.5604
      -932.9534       -726.9764
   7211701.04246   5619504.13646  22616663.0994   22616666.5914
     -3071.8594      -2393.6574
   2505851.84344   1996341.59243  25103952.8414   25103957.2594
     -2019.5624      -1573.6854
  -4791524.88645  -3581315.45745  23577402.8724   23577408.7904
      2275.0164       1772.7394
  -5354715.68246  -4124939.26346  20703878.5994   20703881.8214
      -614.8124       -479.0754
 98  6 25 16 14  0.0010000  0  9G10G 4G 5G 7G 8G 9G16G30G24
  -1646347.33944  -1140944.91543  24719473.0834   24719478.7204
      2416.4224       1882.9264
   6263401.68546   4893224.46146  21822716.5214   21822718.9584
     -2954.0314      -2301.8434
  -8816446.85746  -5891792.46046  21341412.7714   21341415.6774
       816.8594        636.5144
  14612096.78744  11386046.76943  24672142.2004   24672146.0214
     -3291.7974      -2565.0374
  -4801993.42446  -1486432.06446  22063567.5134   22063571.4034
      -944.4844       -735.9624
   7257827.22146   5655446.59246  22625440.1384   22625443.3134
     -3078.2344      -2398.6244
   2536216.02844   2020001.98343  25109730.6224   25109735.4154
     -2029.0164      -1581.0514
  -4825628.56045  -3607889.73745  23570913.8804   23570918.1224
      2272.1564       1770.5114
  -5345425.92746  -4117700.48746  20705646.5364   20705649.6064
      -623.7974       -486.0754
 98  6 25 16 14 15.0010000  0  9G10G 4G 5G 7G 8G 9G16G30G24
  -1682591.05144  -1169186.69143  24712576.4744   24712583.0484
      2415.6724       1882.3424
   6307764.76546   4927793.08646  21831158.6144   21831161.0874
     -2961.5164      -2307.6754
  -8828652.81046  -5901303.58646  21339090.0604   21339092.8374
       810.2034        631.3274
  14661479.26944  11424526.58743  24681540.1064   24681545.0754
     -3293.0004      -2565.9744
  -4787743.94646  -1475328.56846  22066279.3334   22066282.8964
      -955.8284       -744.8014
   7304044.35746   5691459.92446  22634235.2864   22634238.5214
     -3084.4694      -2403.4824
   2566718.83043   2043770.37943  25115535.2554   25115539.4504
     -2038.4694      -1588.4174
  -4859691.33545  -3634432.10345  23564429.9744   23564432.9854
      2269.0634       1768.1014
  -5336003.95946  -4110358.69446  20707439.6064   20707442.6774
      -632.9064       -493.1744
 98  6 25 16 14 30.0010000  0  9G10G 4G 5G 7G 8G 9G16G30G24
  -1718824.18544  -1197420.25142  24705681.3174   24705686.2164
      2415.3444       1882.0864
   6352240.63846   4962449.60746  21839621.8174   21839624.3374
     -2968.7034      -2313.2754
  -8840761.17046  -5910738.66146  21336785.7314   21336788.4624
       804.1724        626.6274
  14710881.02944  11463021.44042  24690940.7554   24690945.1964
     -3294.0164      -2566.7654
  -4773327.65446  -1464095.10846  22069022.4504   22069025.9074
      -966.5314       -753.1414
   7350354.52446   5727545.74646  22643048.0754   22643051.6734
     -3090.4064      -2408.1094
   2597363.94444   2067649.67443  25121367.2004   25121371.3604
     -2047.7344      -1595.6374
  -4893707.14845  -3660937.90345  23557957.8414   23557961.8844
      2266.2974       1765.9464
  -5326445.34946  -4102910.42346  20709258.2864   20709261.2284
      -641.7034       -500.0284
 98  6 25 16 14 45.0010000  0  9G10G 4G 5G 7G 8G 9G16G30G24
  -1755050.71444  -1225648.65343  24698788.3724   24698794.0564
      2414.7194       1881.5994
   6396828.69646   4997193.54346  21848106.7244   21848109.3134
     -2976.5474      -2319.3874
  -8852777.29446  -5920101.86846  21334499.0994   21334501.7944
       797.8284        621.6844
  14760301.65544  11501531.01242  24700345.1774   24700348.1774
     -3295.5784      -2567.9834
  -4758746.83346  -1452733.42546  22071797.0364   22071800.4584
      -977.7974       -761.9204
   7396759.34446   5763705.31446  22651878.3254   22651881.9814
     -3097.0944      -2413.3204
   2628151.48544   2091639.95043  25127225.7944   25127230.6924
     -2057.4224      -1603.1864
  -4927678.76945  -3687409.27245  23551494.0284   23551498.0604
      2263.0944       1763.4504
  -5316751.84546  -4095357.03846  20711103.0214   20711106.1144
      -650.9064       -507.2004
 98  6 25 16 15  0.0010000  0  9G10G 4G 5G 7G 8G 9G16G30G24
  -1791268.51044  -1253870.21643  24691895.5914   24691899.0714
      2414.0634       1881.0884
   6441534.44346   5032029.18646  21856613.8414   21856616.3964
     -2984.4534      -2325.5484
  -8864698.55846  -5929391.15046  21332230.9664   21332233.9194
       791.4534        616.7174
  14809747.55444  11540060.29242  24709754.7864   24709759.2864
     -3297.4374      -2569.4324
  -4743994.98446  -1441238.48746  22074604.5754   22074608.2434
      -989.3124       -770.8934
   7443266.51046   5799944.65046  22660728.3334   22660731.4744
     -3104.0784      -2418.7624
   2659083.72444   2115743.01744  25133112.1774   25133116.4194
     -2067.0784      -1610.7104
  -4961603.10345  -3713843.74445  23545037.9664   23545041.2944
      2259.9694       1761.0154
  -5306920.88746  -4087696.54646  20712973.6224   20712976.5994
      -660.0944       -514.3594
 98  6 25 16 15 15.0010000  0  9G10G 4G 5G 7G 8G 9G16G30G24
  -1827474.68544  -1282082.75243  24685005.8884   24685010.9974
      2413.5004       1880.6494
   6486360.34246   5066958.45246  21865144.2394   21865146.7474
     -2992.2664      -2331.6364
  -8876523.77746  -5938605.60146  21329980.2944   21329983.2474
       785.2974        611.9204
  14859220.12744  11578610.29443  24719169.2634   24719171.5364
     -3298.7664      -2570.4674
  -4729072.49646  -1429610.57546  22077444.0994   22077447.8494
     -1000.2504       -779.4164
   7489878.62846   5836265.74946  22669598.2944   22669601.4934
     -3110.7974      -2423.9984
   2690159.90544   2139958.19843  25139025.9424   25139031.8024
     -2076.2974      -1617.8944
  -4995481.48644  -3740242.46245  23538590.1304   23538595.4504
      2257.2664       1758.9084
  -5296953.18746  -4079929.50046  20714870.5284   20714873.5524
      -668.8914       -521.2134
 98  6 25 16 15 30.0010000  0  9G10G 4G 5G 7G 8G 9G16G30G24
  -1863671.94944  -1310288.30843  24678117.2084   24678122.7394
      2412.9844       1880.2484
   6531303.79346   5101979.31546  21873696.4814   21873699.0364
     -3000.0624      -2337.7114
  -8888255.39146  -5947747.10846  21327747.8804   21327750.7514
       778.9844        607.0014
  14908712.26743  11617175.61742  24728586.5134   24728593.2864
     -3300.0784      -2571.4894
  -4713986.35546  -1417855.13746  22080314.5834   22080317.7944
     -1011.0944       -787.8654
   7536592.15746   5872665.87946  22678487.2394   22678490.7904
     -3117.5004      -2429.2214
   2721373.36944   2164280.36743  25144965.1064   25144970.0524
     -2085.3594      -1624.9554
  -5029318.66045  -3766609.07245  23532149.9194   23532153.2944
      2254.5634       1756.8024
  -5286850.61246  -4072057.35946  20716792.9354   20716796.1224
      -678.0004       -528.3124
 98  6 25 16 15 45.0010000  0  9G10G 4G 5G 7G 8G 9G16G30G24
  -1899863.72644  -1338489.62243  24671230.4744   24671236.9784
      2412.3754       1879.7734
   6576363.00346   5137090.37946  21882271.1774   21882273.8374
     -3008.0314      -2343.9204
  -8899891.41346  -5956814.12746  21325533.6774   21325536.5604
       772.3284        601.8144
  14958221.69343  11655754.29542  24738007.7394   24738011.2314
     -3301.2814      -2572.4274
  -4698738.47546  -1405973.68946  22083216.5834   22083219.8644
     -1022.1414       -796.4734
   7583403.92146   5909142.55846  22687395.9814   22687399.2864
     -3124.2504      -2434.4814
   2752723.50444   2188709.03142  25150931.3104   25150936.6884
     -2094.8754      -1632.3704
  -5063115.70645  -3792944.35645  23525720.2244   23525723.4934
      2251.5784       1754.4764
  -5276611.55446  -4064078.87246  20718741.3494   20718744.5014
      -687.4224       -535.6534
 98  6 25 16 16  0.0010000  0  9G10G 4G 5G 7G 8G 9G16G30G24
  -1936044.24944  -1366682.16643  24664345.5054   24664351.9034
      2411.4694       1879.0674
   6621542.38246   5172295.08846  21890868.2714   21890870.8024
     -3016.0314      -2350.1544
  -8911427.75246  -5965803.47546  21323338.5444   21323341.6384
       765.6884        596.6404
  15007748.62543  11694346.74642  24747432.1854   24747440.9074
     -3302.5004      -2573.3774
  -4683324.50046  -1393962.79546  22086149.4584   22086152.9274
     -1033.2814       -805.1544
   7630318.64546   5945699.46646  22696323.4894   22696326.9234
     -3131.2344      -2439.9234
   2784217.60744   2213249.89942  25156923.8804   25156929.2354
     -2104.5164      -1639.8824
  -5096868.10045  -3819244.89045  23519298.0054   23519301.9894
      2248.5164       1752.0904
  -5266228.52146  -4055988.19246  20720717.2554   20720720.5244
      -697.2034       -543.2754
 98  6 25 16 16 15.0010000  0  9G10G 4G 5G 7G 8G 9G16G30G24
  -1972215.59744  -1394867.59143  24657462.5284   24657468.5754
      2411.4064       1879.0184
   6666836.16146   5207588.93846  21899487.4354   21899490.2244
     -3023.0784      -2355.6454
  -8922869.13246  -5974718.82546  21321161.1534   21321164.0014
       759.8754        592.1104
  15057288.68543  11732949.33542  24756859.4664   24756864.5284
     -3302.7664      -2573.5844
  -4667748.28346  -1381825.49346  22089113.6774   22089117.2864
     -1043.4844       -813.1054
   7677334.18446   5982334.92046  22705269.9274   22705273.2784
     -3137.4694      -2444.7814
   2815852.68643   2237900.60342  25162944.0444   25162949.7864
     -2113.4374      -1646.8344
  -5130578.89745  -3845513.03145  23512883.1854   23512887.5564
      2246.2664       1750.3374
  -5255701.17946  -4047785.06646  20722720.4114   20722723.5754
      -706.4844       -550.5074
 98  6 25 16 16 30.0010000  0  9G10G 4G 5G 7G 8G 9G16G30G24
  -2008380.28943  -1423047.78743  24650579.2944   24650584.5794
      2410.5314       1878.3364
   6712240.24046   5242968.73146  21908127.6384   21908130.2634
     -3030.7814      -2361.6484
  -8934218.96946  -5983562.84146  21319001.3964   21319004.2554
       753.4694        587.1194
  15106836.58443  11771558.05843  24766287.8254   24766291.6694
     -3303.5944      -2574.2294
  -4652014.88046  -1369565.69446  22092107.6614   22092111.1304
     -1054.3284       -821.5544
   7724448.81146   6019047.59846  22714235.5284   22714238.8564
     -3144.4844      -2450.2484
   2847625.19243   2262658.37842  25168990.2164   25168994.5754
     -2122.8754      -1654.1884
  -5164250.09545  -3871750.26945  23506475.3104   23506479.2004
      2243.2344       1747.9754
  -5245027.62146  -4039467.99946  20724751.6304   20724754.9814
      -716.6564       -558.4334
 98  6 25 16 16 45.0010000  0  9G10G 4G 5G 7G 8G 9G16G30G24
  -2044533.21443  -1451218.81343  24643699.7084   24643706.9894
      2409.6884       1877.6794
   6757757.64146   5278436.83546  21916789.2244   21916791.6384
     -3038.2344      -2367.4554
  -8945474.25846  -5992333.18646  21316859.5054   21316862.3884
       747.1254        582.1754
  15156393.67143  11810173.90942  24775718.8024   24775723.4194
     -3304.0624      -2574.5944
  -4636119.57246  -1357179.74646  22095132.7084   22095136.3764
     -1065.2344       -830.0534
   7771667.72246   6055841.53246  22723220.9354   22723224.1924
     -3151.5004      -2455.7144
   2879537.74543   2287525.31042  25175063.1224   25175069.4744
     -2132.2194      -1661.4694
  -5197879.03645  -3897954.59245  23500076.6614   23500081.0794
      2240.4694       1745.8204
  -5234203.40346  -4031033.53746  20726811.3494   20726814.5714
      -726.6724       -566.2384
 98  6 25 16 17  0.0010000  0  9G10G 4G 5G 7G 8G 9G16G30G24
  -2080669.44143  -1479376.86943  24636824.0364   24636829.6734
      2408.6884       1876.8994
   6803388.37346   5313993.24146  21925472.5604   21925475.1144
     -3045.5944      -2373.1904
  -8956630.87246  -6001026.64446  21314736.7164   21314739.5754
       740.6414        577.1234
  15205959.10843  11848796.28942  24785151.1224   24785154.1464
     -3304.4224      -2574.8744
  -4620057.16446  -1344663.58446  22098189.2634   22098192.8024
     -1076.1414       -838.5514
   7818994.24846   6092719.32246  22732226.9814   22732230.2044
     -3158.3444      -2461.0474
   2911591.02343   2312501.85142  25181162.2164   25181167.2204
     -2141.2974      -1668.5434
  -5231462.65845  -3924123.62445  23493685.7634   23493689.3844
      2237.5944       1743.5804
  -5223226.09346  -4022479.78646  20728900.3564   20728903.5444
      -736.7194       -574.0674
 98  6 25 16 17 15.0010000  0  9G10G 4G 5G 7G 8G 9G16G30G24
  -2116788.27343  -1507521.28942  24629950.4194   24629956.8534
      2407.2974       1875.8164
   6849128.97046   5349635.25946  21934176.8334   21934179.3294
     -3052.9844      -2378.9494
  -8967687.79446  -6009642.41846  21312632.4664   21312635.4424
       733.7814        571.7784
  15255530.85643  11887423.60743  24794583.9664   24794589.4624
     -3304.9064      -2575.2524
  -4603831.91246  -1332020.52246  22101276.4274   22101280.0134
     -1086.9844       -847.0014
   7866420.82046   6129675.07246  22741252.2244   22741255.3994
     -3164.9694      -2466.2094
   2943780.68143   2337584.70042  25187288.0674   25187292.9314
     -2150.5004      -1675.7144
  -5265003.33545  -3950259.17745  23487302.5604   23487306.6384
      2234.6884       1741.3154
  -5212097.07146  -4013807.81646  20731018.1694   20731021.2514
      -747.0004       -582.0784
 98  6 25 16 17 30.0010000  0  9G10G 4G 5G 7G 8G 9G16G30G24
  -2152889.42443  -1535651.98443  24623080.6304   24623087.0284
      2406.1094       1874.8904
   6894975.88646   5385360.12146  21942901.2314   21942903.9034
     -3060.0004      -2384.4164
  -8978644.79946  -6018180.33646  21310547.4814   21310550.4354
       727.0314        566.5184
  15305104.77544  11926052.63742  24804018.7164   24804023.7434
     -3305.1564      -2575.4464
  -4587448.81946  -1319254.48746  22104394.2554   22104397.8884
     -1097.6254       -855.2924
   7913942.85546   6166705.19246  22750295.1064   22750298.4584
     -3171.5004      -2471.2994
   2976105.16142   2362772.62842  25193438.3254   25193443.7284
     -2159.5624      -1682.7764
  -5298502.97245  -3976362.74545  23480927.6464   23480931.0324
      2231.7664       1739.0384
  -5200815.84746  -4005017.25046  20733164.8334   20733167.8564
      -757.2974       -590.1014
 98  6 25 16 17 45.0010000  0  9G10G 4G 5G 7G 8G 9G16G30G24
  -2188971.26043  -1563767.59742  24616214.5214   24616218.7514
      2405.0314       1874.0504
   6940929.21246   5421167.90546  21951645.6384   21951648.0174
     -3066.8594      -2389.7614
  -8989497.42346  -6026636.91946  21308482.3804   21308485.0874
       720.2504        561.2344
  15354687.67643  11964688.61142  24813452.9894   24813458.6614
     -3305.6094      -2575.8004
  -4570900.34046  -1306359.57846  22107542.9354   22107546.4854
     -1108.5784       -863.8274
   7961566.26546   6203814.33046  22759357.8884   22759361.1224
     -3178.0004      -2476.3644
   3008569.07442   2388069.19341  25199616.2864   25199625.5714
     -2168.7664      -1689.9474
  -5331954.75545  -4002429.03145  23474561.7784   23474564.8844
      2228.7344       1736.6764
  -5189377.93446  -3996104.57946  20735341.5134   20735344.8294
      -767.4374       -598.0034
 98  6 25 16 18  0.0010000  0  9G10G 4G 5G 7G 8G 9G16G30G24
  -2225035.91843  -1591869.85742  24609351.9114   24609357.9114
      2403.3284       1872.7234
   6986984.44446   5457055.09546  21960409.7784   21960412.3564
     -3074.0784      -2395.3864
  -9000250.53946  -6035015.95946  21306435.9194   21306438.7904
       713.2664        555.7914
  15404276.44844  12003329.16842  24822890.2164   24822894.0134
     -3306.5314      -2576.5184
  -4554188.30646  -1293337.21846  22110723.5054   22110727.1854
     -1119.9224       -872.6664
   8009286.44746   6240998.86346  22768438.4034   22768441.9194
     -3184.9534      -2481.7824
   3041170.56642   2413472.88742  25205820.1694   25205825.5484
     -2178.3124      -1697.3864
  -5365361.35845  -4028460.10945  23468205.1924   23468209.0484
      2225.2814       1733.9854
  -5177791.29246  -3987076.02446  20737546.5214   20737549.7784
      -777.6564       -605.9664
 98  6 25 16 18 15.0010000  0  9G10G 4G 5G 7G 8G 9G16G30G24
  -2261080.18743  -1619956.20443  24602492.6534   24602496.9074
      2402.1724       1871.8224
   7033141.54846   5493021.66346  21969193.1534   21969195.7204
     -3080.6094      -2400.4754
  -9010903.52446  -6043316.97846  21304408.7164   21304411.3294
       706.7664        550.7264
  15453875.12243  12041977.49642  24832327.8564   24832334.1034
     -3307.0164      -2576.8954
  -4537312.07446  -1280186.91646  22113935.1144   22113938.9584
     -1130.6724       -881.0434
   8057105.16546   6278260.17446  22777538.1774   22777541.8564
     -3191.2664      -2486.7004
   3073908.26343   2438982.78542  25212050.6304   25212053.8174
     -2187.0784      -1704.2174
  -5398722.53045  -4054455.80745  23461856.9974   23461861.0284
      2222.4844       1731.8064
  -5166058.28246  -3977933.41746  20739779.0604   20739782.2944
      -787.0784       -613.3084
 98  6 25 16 18 30.0010000  0  9G10G 4G 5G 7G 8G 9G16G30G24
  -2297108.43843  -1648030.06942  24595636.7314   24595643.5284
      2401.4844       1871.2874
   7079395.97246   5529064.06946  21977995.0284   21977997.5244
     -3086.7664      -2405.2724
  -9021459.19246  -6051542.16546  21302400.2244   21302403.0604
       700.4844        545.8324
  15503479.97843  12080630.59742  24841767.2634   24841772.5714
     -3307.1724      -2577.0174
  -4520274.74546  -1266911.07146  22117177.2784   22117181.2164
     -1141.1564       -889.2134
   8105017.34946   6315594.32546  22786655.9974   22786659.7594
     -3197.1564      -2491.2914
   3106775.52743   2464593.66142  25218305.5444   25218310.2314
     -2195.3754      -1710.6824
  -5432043.36045  -4080420.04545  23455515.3644   23455518.7164
      2220.1254       1729.9684
  -5154187.32446  -3968683.31846  20742038.0284   20742041.0284
      -795.8124       -620.1144
 98  6 25 16 18 45.0010000  0  9G10G 4G 5G 7G 8G 9G16G30G24
  -2333120.04243  -1676091.00042  24588783.9354   24588788.7744
      2400.4534       1870.4834
   7125748.87646   5565183.20746  21986815.6144   21986818.0874
     -3093.2814      -2410.3494
  -9031912.02846  -6059687.22446  21300411.0364   21300413.7204
       693.5474        540.4264
  15553097.12644  12119293.22742  24851209.3884   24851213.9114
     -3308.1414      -2577.7724
  -4503072.89246  -1253507.03946  22120450.7554   22120454.2824
     -1152.1254       -897.7604
   8153025.13246   6353002.96546  22795790.8254   22795794.3994
     -3203.5784      -2496.2954
   3139773.79643   2490306.56642  25224583.6304   25224588.0954
     -2204.1094      -1717.4884
  -5465321.16845  -4106350.76445  23449183.6384   23449187.1654
      2217.2814       1727.7524
  -5142180.70746  -3959327.50546  20744322.8024   20744325.8254
      -804.7194       -627.0544
 98  6 25 16 19  0.0020000  0  9G10G 4G 5G 7G 8G 9G16G30G24
  -2369118.51042  -1704141.73142  24581932.7134   24581939.2174
      2399.2344       1869.5334
   7172203.62546   5601381.71146  21995655.6434   21995658.0214
     -3100.0474      -2415.6214
  -9042258.63746  -6067749.51046  21298442.2364   21298445.0724
       686.1254        534.6434
  15602735.43542  12157972.50342  24860654.5964   24860660.9004
     -3309.6874      -2578.9774
  -4485702.83646  -1239971.93146  22123756.3144   22123759.8304
     -1163.5624       -906.6724
   8201134.53246   6390490.78146  22804945.9714   22804949.3814
     -3210.3754      -2501.5914
   3172907.70542   2516125.20442  25230889.2604   25230893.3264
     -2213.2664      -1724.6234
  -5498557.87645  -4132249.46645  23442858.4324   23442861.8894
      2214.1254       1725.2924
  -5130039.64046  -3949866.92546  20746633.2754   20746636.1934
      -813.7344       -634.0794
 98  6 25 16 19 15.0020000  0  9G10G 4G 5G 7G 8G 9G16G30G24
  -2405101.65442  -1732180.37842  24575085.2684   24575093.1584
      2398.8754       1869.2534
   7218752.60346   5637653.63346  22004513.7294   22004516.4124
     -3106.0944      -2420.3334
  -9052498.29646  -6075728.45346  21296493.8304   21296496.5254
       679.5634        529.5294
  15652390.64244  12196664.81543  24870104.1894   24870110.0844
     -3310.6874      -2579.7564
  -4468167.00646  -1226307.64746  22127092.7834   22127096.2994
     -1174.1564       -914.9274
   8249337.26646   6428051.32646  22814118.9864   22814122.3264
     -3216.2814      -2506.1934
   3206171.23942   2542044.83842  25237219.3224   25237224.6194
     -2221.5474      -1731.0754
  -5531750.08945  -4158113.48545  23436542.0414   23436546.8814
      2211.8594       1723.5274
  -5117768.65346  -3940305.11546  20748968.1744   20748971.1154
      -821.9844       -640.5074
 98  6 25 16 19 30.0020000  0  9G10G 4G 5G 7G 8G 9G16G30G24
  -2441075.22243  -1760211.70542  24568240.3144   24568248.3224
      2397.7504       1868.3774
   7265396.19246   5673999.28146  22013389.6434   22013392.1394
     -3112.9224      -2425.6534
  -9062635.93946  -6083627.90646  21294564.4794   21294567.2684
       672.3134        523.8804
  15702065.61043  12235372.58242  24879557.5104   24879562.1504
     -3312.4374      -2581.1204
  -4450467.86146  -1212516.11546  22130461.0334   22130464.5254
     -1185.6564       -923.8884
   8297635.13946   6465686.01146  22823309.4714   22823312.6234
     -3223.3444      -2511.6964
   3239564.59442   2568065.59542  25243572.5804   25243581.5254
     -2230.7344      -1738.2354
  -5564902.89245  -4183946.80345  23430232.8144   23430236.6234
      2208.5944       1720.9824
  -5105369.84646  -3930643.70146  20751327.7134   20751330.9004
      -831.0624       -647.5814
 98  6 25 16 19 45.0020000  0  9G10G 4G 5G 7G 8G 9G16G30G24
  -2477035.73543  -1788232.81742  24561397.1584   24561401.8694
      2397.0634       1867.8414
   7312138.10046   5710421.54746  22022284.4634   22022286.9364
     -3119.3284      -2430.6454
  -9072669.53646  -6091446.28246  21292655.0104   21292657.7644
       665.5474        518.6084
  15751763.50743  12274098.21042  24889014.1974   24889018.7914
     -3313.8914      -2582.2524
  -4432595.68346  -1198589.74746  22133861.6274   22133864.7094
     -1197.2344       -932.9104
   8346037.49146   6503402.10846  22832520.2444   22832523.6194
     -3230.2664      -2517.0904
   3273092.44842   2594191.22441  25249953.5414   25249959.2134
     -2239.5784      -1745.1264
  -5598007.12445  -4209742.26245  23423932.9394   23423936.5964
      2205.3594       1718.4624
  -5092839.35546  -3920879.67846  20753712.0334   20753715.0454
      -839.5944       -654.2294
 98  6 25 16 20  0.0020000  0  9G10G 4G 5G 7G 8G 9G16G30G24
  -2512987.91143  -1816247.41342  24554555.1664   24554561.1074
      2396.3594       1867.2934
   7358976.17746   5746918.73946  22031197.5884   22031199.8964
     -3125.9534      -2435.8084
  -9082603.95946  -6099187.38746  21290764.5574   21290767.3224
       658.8754        513.4094
  15801479.48343  12312837.84542  24898474.9474   24898480.9714
     -3315.1094      -2583.2024
  -4414552.65046  -1184530.24546  22137295.7684   22137299.6584
     -1208.6414       -941.7984
   8394539.96646   6541196.21746  22841749.6744   22841752.9084
     -3236.9374      -2522.2894
   3306751.06242   2620418.72842  25256358.8934   25256364.7404
     -2248.4224      -1752.0174
  -5631065.32845  -4235501.87945  23417642.7524   23417647.2644
      2202.2344       1716.0274
  -5080184.72746  -3911018.92546  20756120.1894   20756123.3544
      -847.8444       -660.6574
 98  6 25 16 20 15.0020000  0  9G10G 4G 5G 7G 8G 9G16G30G24
  -2548929.74743  -1844253.97342  24547715.7834   24547720.4714
      2396.0314       1867.0374
   7405914.90246   5783494.36946  22040129.5494   22040131.9044
     -3132.4694      -2440.8854
  -9092437.97146  -6106850.24046  21288893.1114   21288895.7834
       652.3594        508.3324
  15851215.02843  12351592.79942  24907938.6664   24907944.5844
     -3316.2344      -2584.0794
  -4396339.29646  -1170338.01846  22140760.8224   22140764.4554
     -1219.7504       -950.4554
   8443143.72646   6579069.25446  22850999.1504   22851002.4324
     -3243.5004      -2527.4034
   3340543.25242   2646750.28142  25262788.8774   25262795.5104
     -2257.0624      -1758.7504
  -5664076.44845  -4261224.79045  23411361.2684   23411364.5144
      2199.3594       1713.7874
  -5067405.72046  -3901061.25046  20758551.8934   20758554.9394
      -855.9694       -666.9894
 98  6 25 16 20 30.0020000  0  9G10G 4G 5G 7G 8G 9G16G30G24
  -2584865.50843  -1872255.79542  24540877.4004   24540882.2644
      2395.1884       1866.3804
   7452953.28646   5820147.65046  22049080.7294   22049083.1314
     -3139.5314      -2446.3884
  -9102172.24546  -6114435.38646  21287040.8384   21287043.6504
       645.3594        502.8774
  15900967.60543  12390361.05342  24917406.7834   24917410.4044
     -3317.6874      -2585.2114
  -4377957.10446  -1156014.24046  22144258.5494   22144261.9594
     -1231.4374       -959.5624
   8491846.36446   6617019.33746  22860266.9084   22860270.3304
     -3250.3914      -2532.7724
   3374466.50842   2673183.98041  25269244.0964   25269251.9634
     -2266.2034      -1765.8734
  -5697042.94145  -4286912.92545  23405088.3774   23405091.9284
      2195.8914       1711.0844
  -5054502.11646  -3891006.49146  20761007.3074   20761010.3074
      -864.7664       -673.8434
 98  6 25 16 20 45.0020000  0  9G10G 4G 5G 7G 8G 9G16G30G24
  -2620791.34943  -1900249.91443  24534041.1194   24534046.3344
      2394.7034       1866.0024
   7500094.51246   5856881.06846  22058051.5184   22058054.0614
     -3146.1874      -2451.5754
  -9111804.35246  -6121940.91246  21285208.0804   21285210.8344
       638.7034        497.6914
  15950740.09942  12429144.77041  24926878.0724   24926884.5764
     -3318.9374      -2586.1854
  -4359402.76846  -1141556.31846  22147789.8854   22147793.0724
     -1242.6724       -968.3164
   8540650.03146   6655048.13946  22869554.1504   22869557.2444
     -3256.9844      -2537.9104
   3408523.53442   2699721.90941  25275725.6044   25275733.5884
     -2274.9224      -1772.6664
  -5729958.68045  -4312561.52645  23398824.6824   23398827.9284
      2192.6094       1708.5274
  -5041467.73746  -3880849.82546  20763487.8304   20763491.1004
      -873.4374       -680.6014
 98  6 25 16 21  0.0020000  0  9G10G 4G 5G 7G 8G 9G16G30G24
  -2656711.08743  -1928239.21343  24527205.8544   24527212.1704
      2394.5164       1865.8564
   7547332.82146   5893690.13746  22067040.2364   22067042.4284
     -3152.3444      -2456.3724
  -9121339.12546  -6129370.59646  21283393.4714   21283396.1784
       632.5634        492.9064
  16000528.91344  12467941.21942  24936353.0104   24936356.8304
     -3319.5944      -2586.6964
  -4340683.16146  -1126969.61946  22151351.9244   22151355.3934
     -1253.3594       -976.6444
   8589551.11646   6693152.85446  22878859.2684   22878862.6784
     -3263.2344      -2542.7804
   3442708.87242   2726359.84541  25282230.6664   25282230.5144
     -2283.1874      -1779.1074
  -5762827.50045  -4338173.53745  23392569.2444   23392572.4904
      2189.8284       1706.3604
  -5028303.68546  -3870592.11846  20765992.9244   20765995.8184
      -881.8914       -687.1874
 98  6 25 16 21 15.0020000  0  9G10G 4G 5G 7G 8G 9G16G30G24
  -2692619.35943  -1956219.65343  24520372.5254   24520377.1784
      2393.5944       1865.1384
   7594670.30346   5930576.48546  22076048.5184   22076050.6744
     -3158.9694      -2461.5344
  -9130776.32246  -6136724.24646  21281597.8544   21281600.4204
       626.1564        487.9144
  16050332.84343  12506749.57842  24945830.2214   24945837.3504
     -3320.5004      -2587.4034
  -4321796.27246  -1112252.57346  22154946.2214   22154949.9244
     -1264.5314       -985.3494
   8638551.78846   6731335.17346  22888183.8074   22888187.2754
     -3269.7664      -2547.8694
   3477025.46443   2753100.04741  25288761.0644   25288766.3384
     -2291.9374      -1785.9254
  -5795647.58745  -4363747.61645  23386323.6584   23386327.3504
      2186.5634       1703.8154
  -5015004.62546  -3860229.20946  20768523.5334   20768526.6624
      -890.9374       -694.2374
 98  6 25 16 21 30.0020000  0  9G10G 4G 5G 7G 8G 9G16G30G24
  -2728513.37044  -1984188.92943  24513542.5024   24513546.4864
      2392.5474       1864.3224
   7642106.91146   5967540.06346  22085075.5804   22085077.9004
     -3165.6874      -2466.7694
  -9140119.22646  -6144004.42446  21279819.6894   21279822.5144
       619.7974        482.9594
  16100147.36543  12545565.96742  24955309.6504   24955316.3074
     -3321.1564      -2587.9144
  -4302744.58246  -1097407.11246  22158572.0884   22158575.7564
     -1275.4224       -993.8354
   8687648.31446   6769592.18246  22897526.9084   22897530.4364
     -3276.1564      -2552.8494
   3511470.03142   2779939.86541  25295314.9794   25295320.2054
     -2300.4224      -1792.5374
  -5828419.58345  -4389284.19445  23380087.3614   23380090.9004
      2183.2504       1701.2344
  -5001570.03646  -3849760.68946  20771079.8614   20771083.1194
      -900.0474       -701.3354
 98  6 25 16 21 45.0020000  0  7G10G 4G 5G 8G 9G30G24
  -2764393.59944  -2012147.48043  24506714.8304   24506719.2714
      2391.4384       1863.4584
   7689643.47746   6004581.54346  22094121.2364   22094123.7564
     -3172.6094      -2472.1634
  -9149367.26046  -6151210.67346  21278059.9244   21278062.5964
       613.2344        477.8454
  -4283531.06446  -1082435.53646  22162227.7364   22162231.4984
     -1286.3914      -1002.3824
   8736838.68446   6807922.31546  22906887.7524   22906891.4794
     -3282.5474      -2557.8294
  -5861143.05045  -4414782.94745  23373861.0024   23373864.5294
      2179.8284       1698.5674
  -4988001.30846  -3839187.64946  20773661.8144   20773664.9674
      -909.1254       -708.4094
 98  6 25 16 22  0.0020000  0  7G10G 4G 5G 8G 9G30G24
  -2800255.00644  -2040091.39543  24499890.4864   24499896.2994
      2389.9064       1862.2654
   7737286.55246   6041706.01346  22103187.7524   22103190.5644
     -3180.0314      -2477.9464
  -9158514.00646  -6158338.00046  21276319.6044   21276322.4754
       606.1094        472.2934
  -4264153.70746  -1067336.31846  22165915.3694   22165919.0024
     -1297.3594      -1010.9294
   8786124.48046   6846326.79646  22916266.4794   22916269.7714
     -3289.0314      -2562.8814
  -5893815.02145  -4440241.60345  23367642.8074   23367647.2604
      2176.3134       1695.8284
  -4974296.00646  -3828508.18746  20776270.1974   20776273.4204
      -918.4374       -715.6664
 98  6 25 16 22 15.0020000  0  7G10G 4G 5G 8G 9G30G24
  -2836092.31644  -2068016.50343  24493070.7914   24493076.9324
      2388.2344       1860.9624
   7785041.77046   6078917.87246  22112275.1824   22112277.6784
     -3187.4374      -2483.7184
  -9167552.64346  -6165381.08746  21274599.3224   21274601.8184
       598.9064        466.6804
  -4244613.53946  -1052110.21246  22169633.8304   22169637.4044
     -1308.1094      -1019.3064
   8835506.37846   6884806.17446  22925663.0964   22925666.5534
     -3295.3754      -2567.8254
  -5926435.85145  -4465660.40745  23361435.7604   23361439.7094
      2172.9694       1693.2224
  -4960448.96046  -3817718.27846  20778904.9324   20778908.0964
      -928.0164       -723.1294
 98  6 25 16 22 30.0020000  0  7G10G 4G 5G 8G 9G30G24
  -2871911.41444  -2095927.42943  24486254.0574   24486259.6824
      2387.1884       1860.1464
   7832899.75346   6116209.80246  22121382.0104   22121384.4244
     -3194.0004      -2488.8314
  -9176489.28246  -6172344.69046  21272898.9324   21272901.7564
       592.2034        461.4574
  -4224919.59746  -1036764.28946  22173380.9714   22173384.9434
     -1318.1564      -1027.1354
   8884976.04546   6923353.94346  22935077.0254   22935080.4124
     -3300.9534      -2572.1714
  -5959013.21245  -4491045.32745  23355235.2364   23355239.3964
      2170.2814       1691.1284
  -4946463.13046  -3806820.21746  20781566.7134   20781569.8184
      -937.1874       -730.2764
 98  6 25 16 22 45.0020000  0  7G10G 4G 5G 8G 9G30G24
  -2907705.94843  -2123819.17144  24479442.7754   24479448.5184
      2385.5164       1858.8434
   7880861.47046   6153582.56946  22130508.9944   22130511.2684
     -3200.8284      -2494.1524
  -9185318.46046  -6179224.56046  21271218.7834   21271221.5374
       585.1254        455.9424
  -4205068.32146  -1021295.77446  22177159.1434   22177162.6464
     -1328.5624      -1035.2444
   8934534.22846   6961970.67346  22944507.6894   22944511.0414
     -3306.7814      -2576.7134
  -5991542.02245  -4516392.43045  23349045.4864   23349048.9554
      2167.0314       1688.5964
  -4932333.33446  -3795809.98346  20784255.4794   20784258.4904
      -946.7034       -737.6914
 98  6 25 16 23  0.0020000  0  7G10G 4G 5G 8G 9G30G24
  -2943477.66544  -2151693.15543  24472635.3074   24472640.7214
      2384.0634       1857.7114
   7928924.76546   6191034.48246  22139655.3384   22139657.8224
     -3207.6414      -2499.4604
  -9194041.78646  -6186021.94846  21269558.5254   21269561.3264
       577.9694        450.3654
  -4185062.24046  -1005706.61246  22180965.4634   22180969.0494
     -1338.8754      -1043.2794
   8984180.10946   7000655.74746  22953955.0724   22953958.4944
     -3312.6724      -2581.3034
  -6024024.33245  -4541703.28245  23342864.7134   23342867.8184
      2163.9534       1686.1974
  -4918062.40946  -3784689.77046  20786970.9944   20786974.0294
      -956.0784       -744.9964
 98  6 25 16 23 15.0020000  0  7G10G 4G 5G 8G 9G30G24
  -2979226.33544  -2179549.21844  24465832.8144   24465838.7214
      2382.4694       1856.4694
   7977090.63446   6228566.32846  22148820.7524   22148823.0964
     -3214.5004      -2504.8054
  -9202658.07446  -6192735.93046  21267919.1504   21267922.0804
       570.9064        444.8624
  -4164901.72046   -989997.11546  22184802.6114   22184805.8934
     -1349.1874      -1051.3154
   9033914.28046   7039409.62446  22963419.0804   22963422.5374
     -3318.5004      -2585.8444
  -6056460.36645  -4566978.06245  23336692.6044   23336695.4044
      2160.8284       1683.7624
  -4903651.43746  -3773460.43746  20789713.3464   20789716.4754
      -965.3444       -752.2164
 98  6 25 16 23 30.0020000  0  7G10G 4G 5G 8G 9G30G24
  -3014951.10743  -2207386.61743  24459034.3224   24459039.2684
      2380.8594       1855.2154
   8025361.28746   6266179.81946  22158006.4864   22158008.9124
     -3221.6254      -2510.3574
  -9211167.12446  -6199366.35246  21266299.7914   21266302.3464
       563.5944        439.1644
  -4144585.44546   -974166.25846  22188668.3614   22188671.9124
     -1359.6254      -1059.4484
   9083734.74546   7078230.73446  22972899.5494   22972903.2524
     -3324.2504      -2590.3254
  -6088847.90845  -4592215.07645  23330529.5334   23330532.3574
      2157.5164       1681.1814
  -4889102.29446  -3762123.43946  20792481.9084   20792485.2014
      -974.5474       -759.3874
 98  6 25 16 23 45.0020000  0  7G10G 4G 5G 8G 9G30G24
  -3050659.36643  -2235211.19443  24452239.6044   24452245.5214
      2380.0474       1854.5824
   8073732.99746   6303872.05546  22167211.2754   22167213.7484
     -3228.0944      -2515.3984
  -9219570.77646  -6205914.64446  21264700.5574   21264703.1824
       556.6884        433.7824
  -4124120.09446   -958219.25246  22192562.9794   22192566.2954
     -1369.3124      -1066.9974
   9133635.94946   7117114.76046  22982395.2524   22982398.8264
     -3329.4064      -2594.3434
  -6121191.59645  -4617417.92245  23324375.1354   23324378.0884
      2154.7814       1679.0504
  -4874420.24846  -3750682.87946  20795275.8854   20795279.0024
      -983.2194       -766.1444
 98  6 25 16 24  0.0020000  0  7G10G 4G 5G 8G 9G30G24
  -3086350.73243  -2263022.58143  24445447.1504   24445451.2524
      2378.9064       1853.6934
   8122203.93846   6341641.61846  22176434.8694   22176437.2484
     -3234.5314      -2520.4144
  -9227867.79446  -6212379.84346  21263121.8934   21263124.4244
       549.7034        428.3404
  -4103504.27846   -942154.98046  22196485.8934   22196489.7364
     -1379.3754      -1074.8384
   9183617.64546   7156061.50646  22991907.1354   22991911.0254
     -3334.7194      -2598.4824
  -6153490.81845  -4642586.13345  23318228.0964   23318230.9904
      2151.8914       1676.7984
  -4859603.97246  -3739137.72646  20798095.4004   20798098.5184
      -992.2344       -773.1704
 98  6 25 16 24 15.0020000  0  7G10G 4G 5G 8G 9G30G24
  -3122026.31243  -2290821.64243  24438658.7364   24438664.5844
      2377.8444       1852.8654
   8170767.50246   6379483.35346  22185676.2684   22185678.8934
     -3240.5624      -2525.1144
  -9236061.43646  -6218764.49346  21261562.4324   21261565.2214
       542.8284        422.9834
  -4082738.31946   -925973.71446  22200437.1354   22200440.8734
     -1389.4224      -1082.6664
   9233677.48546   7195069.15046  23001433.0334   23001436.7834
     -3339.9374      -2602.5494
  -6185747.53545  -4667721.19445  23312089.8464   23312092.9634
      2149.0004       1674.5454
  -4844651.68446  -3727486.58446  20800940.7444   20800943.8854
     -1001.4064       -780.3174
 98  6 25 16 24 30.0020000  0  7G10G 4G 5G 8G 9G30G24
  -3157682.42243  -2318605.58543  24431872.8854   24431878.4984
      2376.3594       1851.7094
   8219423.64746   6417397.22746  22194935.3074   22194937.9084
     -3246.9374      -2530.0814
  -9244150.69546  -6225067.80546  21260023.1114   21260025.7484
       535.7034        417.4314
  -4061817.64346   -909671.87646  22204418.8224   22204422.3264
     -1400.0314      -1090.9334
   9283820.30146   7234141.44546  23010974.3774   23010977.4004
     -3345.8124      -2607.1274
  -6217955.44345  -4692818.23745  23305960.6744   23305963.9794
      2145.3284       1671.6844
  -4829559.35946  -3715726.32446  20803812.3774   20803815.4944
     -1010.9064       -787.7194
 98  6 25 16 24 45.0020000  0  7G10G 4G 5G 8G 9G30G24
  -3193319.86243  -2346374.94243  24425091.3074   24425097.1314
      2375.3444       1850.9174
   8268171.83546   6455382.82046  22204211.5964   22204213.8114
     -3252.7814      -2534.6354
  -9252135.57046  -6231289.77546  21258503.6664   21258506.2794
       529.0004        412.2084
  -4040739.89046   -893247.67246  22208429.6974   22208433.2364
     -1410.3124      -1098.9454
   9334048.91046   7273280.59846  23020533.1274   23020536.5964
     -3351.3284      -2611.4254
  -6250110.16145  -4717873.83245  23299842.4244   23299845.3184
      2142.0004       1669.0914
  -4814328.94346  -3703858.46446  20806710.7994   20806714.1394
     -1019.7194       -794.5864
 98  6 25 16 25  0.0020000  0  7G10G 4G 5G 8G 9G30G24
  -3228940.94444  -2374131.53943  24418313.5724   24418318.9284
      2374.2034       1850.0284
   8317009.94646   6493438.49046  22213505.2994   22213507.6784
     -3258.9694      -2539.4564
  -9260020.18046  -6237433.61846  21257003.0024   21257005.7794
       522.3284        407.0094
  -4019506.36746   -876702.07746  22212470.3544   22212474.1504
     -1420.7504      -1107.0784
   9384362.51646   7312485.96846  23030107.5964   23030111.3574
     -3357.1414      -2615.9544
  -6282213.85445  -4742889.66345  23293732.5414   23293735.6584
      2138.5634       1666.4124
  -4798966.20646  -3691887.49446  20809634.0644   20809637.0764
     -1028.6254       -801.5264
 98  6 25 16 25 15.0020000  0  7G10G 4G 5G 8G 9G30G24
  -3264547.43544  -2401876.82444  24411537.7054   24411543.2134
      2373.1884       1849.2374
   8365936.81046   6531563.31846  22222815.8544   22222818.0924
     -3264.7034      -2543.9254
  -9267807.10546  -6243501.34246  21255521.6354   21255524.5644
       515.8284        401.9444
  -3998119.38446   -860036.90246  22216540.1274   22216543.7134
     -1430.9374      -1115.0164
   9434760.11146   7351756.80346  23039697.5644   23039700.9864
     -3362.6414      -2620.2394
  -6314268.56545  -4767867.33645  23287632.8694   23287636.1394
      2135.3284       1663.8924
  -4783472.24346  -3679814.27146  20812582.6824   20812585.9754
     -1037.3284       -808.3084
 98  6 25 16 25 30.0020000  0  7G10G 4G 5G 8G 9G30G24
  -3300133.46444  -2429606.10743  24404765.8304   24404771.5964
      2371.9224       1848.2514
   8414953.10346   6569757.83146  22232143.2604   22232145.4634
     -3270.5164      -2548.4544
  -9275492.54846  -6249489.98946  21254058.9634   21254061.8464
       509.1884        396.7694
  -3976575.69646   -843249.61446  22220639.7364   22220643.2294
     -1441.3594      -1123.1374
   9485242.72146   7391093.87346  23049304.0494   23049307.7874
     -3368.0624      -2624.4644
  -6346271.23445  -4792804.44145  23281543.3694   23281546.9904
      2131.9694       1661.2744
  -4767843.88246  -3667636.31846  20815556.6584   20815559.7874
     -1046.1874       -815.2114
 98  6 25 16 25 45.0020000  0  7G10G 4G 5G 8G 9G30G24
  -3335696.40344  -2457317.43543  24397998.3854   24398004.3504
      2369.9064       1846.6804
   8464059.60646   6608022.62946  22241487.9244   22241490.5254
     -3276.8594      -2553.3974
  -9283074.01146  -6255397.61646  21252616.3614   21252619.0454
       501.8444        391.0474
  -3954870.70346   -826336.64646  22224770.2754   22224774.0144
     -1452.5624      -1131.8674
   9535809.77746   7430496.75346  23058926.9244   23058930.7684
     -3374.0474      -2629.1274
  -6378219.82245  -4817699.42945  23275463.5574   23275467.6114
      2127.9384       1658.1334
  -4752078.22446  -3655351.38546  20818556.7294   20818559.7644
     -1055.8124       -822.7114
 98  6 25 16 26  0.0020000  0  7G10G 4G 5G 8G 9G30G24
  -3371232.85043  -2485008.13243  24391235.3934   24391241.6974
      2368.1884       1845.3414
   8513254.36746   6646356.21046  22250849.3614   22250851.9164
     -3282.5474      -2557.8294
  -9290552.55546  -6261225.04546  21251193.1354   21251195.6194
       495.2034        385.8734
  -3933002.24146   -809296.29546  22228931.3694   22228935.2954
     -1463.3444      -1140.2684
   9586460.98046   7469965.18846  23068565.4394   23068569.5644
     -3379.5474      -2633.4134
  -6410111.93645  -4842550.40045  23269395.2914   23269398.8774
      2124.2814       1655.2844
  -4736173.56946  -3642958.14346  20821583.1824   20821585.9824
     -1064.8594       -829.7614
 98  6 25 16 26 15.0020000  0  7G10G 4G 5G 8G 9G30G24
  -3406742.11644  -2512677.60144  24384479.0884   24384484.3964
      2366.5314       1844.0504
   8562534.58246   6684756.36946  22260226.8854   22260229.2054
     -3288.0784      -2562.1394
  -9297932.58846  -6266975.71546  21249788.7834   21249791.4204
       488.8444        380.9174
  -3910971.15046   -792129.21446  22233123.8854   22233127.5764
     -1474.0314      -1148.5964
   9637196.33746   7509499.20846  23078220.4474   23078224.6194
     -3385.1564      -2637.7844
  -6441950.05045  -4867359.29845  23263335.8464   23263339.1394
      2120.8594       1652.6184
  -4720134.45046  -3630460.12246  20824635.4634   20824638.5334
     -1073.5624       -836.5424
 98  6 25 16 26 30.0020000  0  7G10G 4G 5G 8G 9G30G24
  -3442224.78243  -2540326.35043  24377726.5574   24377732.9554
      2364.8284       1842.7234
   8611901.18646   6723223.84646  22269621.3614   22269623.5884
     -3293.8754      -2566.6564
  -9305213.19846  -6272648.90546  21248403.3694   21248406.0414
       482.2344        375.7674
  -3888777.68046   -774835.59446  22237346.7754   22237350.1864
     -1484.7974      -1156.9854
   9688019.42046   7549101.57746  23087891.7214   23087896.0454
     -3390.9224      -2642.2774
  -6473733.77745  -4892125.80245  23257287.4084   23257291.4164
      2117.3914       1649.9154
  -4703964.86746  -3617860.44346  20827712.2994   20827715.5454
     -1081.9534       -843.0804
 98  6 25 16 26 45.0020000  0  7G10G 4G 5G 8G 9G30G24
  -3477680.74843  -2567954.34443  24370978.9474   24370983.3424
      2362.7194       1841.0804
   8661358.90046   6761762.32346  22279032.7604   22279035.1864
     -3300.3754      -2571.7214
  -9312391.95446  -6278242.72946  21247037.1114   21247039.7254
       474.9844        370.1184
  -3866419.85646   -757413.93646  22241601.7294   22241605.1394
     -1496.1874      -1165.8604
   9738931.43946   7588773.25046  23097579.2684   23097583.4754
     -3397.2344      -2647.1964
  -6505464.26445  -4916850.81245  23251249.6194   23251253.7214
      2113.4844       1646.8714
  -4687668.59846  -3605162.04246  20830813.4794   20830816.4904
     -1090.8124       -849.9844
 98  6 25 16 27  0.0020000  0  7G10G 4G 5G 8G 9G30G24
  -3513109.21443  -2595560.90043  24364237.6894   24364243.2684
      2360.9224       1839.6794
   8710908.16846   6800372.13646  22288461.7134   22288464.1394
     -3306.3284      -2576.3604
  -9319466.64746  -6283755.47446  21245690.7444   21245693.3464
       468.1884        364.8214
  -3843896.18146   -739863.04446  22245887.6504   22245891.3894
     -1507.0784      -1174.3474
   9789931.45346   7628513.49045  23107284.4794   23107288.4514
     -3402.9064      -2651.6154
  -6537143.15845  -4941535.64445  23245222.2134   23245225.9984
      2110.2504       1644.3514
  -4671243.88646  -3592363.56546  20833938.8304   20833942.0884
     -1099.2504       -856.5584
 98  6 25 16 27 15.0020000  0  7G10G 4G 5G 8G 9G30G24
  -3548510.11743  -2623145.99143  24357500.6824   24357505.2754
      2359.0634       1838.2314
   8760548.09146   6839052.58146  22297907.5254   22297909.7994
     -3312.3914      -2581.0844
  -9326437.40646  -6289187.23946  21244364.6044   21244367.0764
       461.1254        359.3184
  -3821209.17946   -722184.86246  22250204.5254   22250208.4044
     -1517.9694      -1182.8334
   9841016.53445   7668320.00245  23117005.3544   23117009.8074
     -3408.5314      -2655.9984
  -6568774.32245  -4966183.28345  23239202.8854   23239205.9324
      2107.0944       1641.8914
  -4654690.59946  -3579464.90946  20837088.7684   20837091.7914
     -1107.9374       -863.3284
 98  6 25 16 27 30.0020000  0  7G10G 4G 5G 8G 9G30G24
  -3583881.65943  -2650708.19143  24350769.4084   24350774.6114
      2357.3444       1836.8914
   8810278.08046   6877803.20746  22307370.9004   22307373.5254
     -3318.0944      -2585.5284
  -9333300.99346  -6294535.48546  21243058.3774   21243060.8504
       454.2504        353.9614
  -3798357.77446   -704378.58446  22254553.3074   22254556.9754
     -1528.6564      -1191.1614
   9892185.69146   7708192.04745  23126743.3694   23126747.5294
     -3413.8444      -2660.1384
  -6600355.84845  -4990792.24045  23233192.8074   23233195.8544
      2103.9844       1639.4684
  -4638007.83646  -3566465.35546  20840263.4244   20840266.7754
     -1116.2344       -869.7934
 98  6 25 16 27 45.0020000  0  7G10G 4G 5G 8G 9G30G24
  -3619226.61843  -2678249.63342  24344043.6974   24344050.1894
      2355.5314       1835.4794
   8860096.09746   6916622.44146  22316851.1434   22316853.6044
     -3324.1094      -2590.2154
  -9340061.97146  -6299803.77346  21241771.4634   21241774.2874
       447.4384        348.6534
  -3775346.37746   -686447.63446  22258932.8774   22258936.4634
     -1539.3754      -1199.5134
   9943435.86145   7748127.20445  23136495.5334   23136499.9394
     -3419.3444      -2664.4244
  -6631890.04545  -5015364.30445  23227191.8384   23227194.9794
      2100.7344       1636.9364
  -4621199.51946  -3553367.96146  20843461.6434   20843464.7484
     -1124.6874       -876.3804
 98  6 25 16 28  0.0020000  0  7G10G 4G 5G 8G 9G30G24
  -3654544.59443  -2705770.08943  24337322.3854   24337328.3854
      2353.7034       1834.0544
   8910004.39646   6955512.01946  22326348.2134   22326350.6504
     -3330.1254      -2594.9034
  -9346719.57946  -6304991.50746  21240504.6434   21240507.2794
       440.4694        343.2224
  -3752174.89846   -668391.94646  22263341.5104   22263345.4364
     -1549.9374      -1207.7444
   9994770.57945   7788128.25145  23146264.1114   23146268.1894
     -3425.1414      -2668.9414
  -6663375.09346  -5039898.06145  23221200.7134   23221203.4674
      2097.4694       1634.3914
  -4604263.48146  -3540171.03346  20846684.7524   20846687.9164
     -1133.2034       -883.0154
 98  6 25 16 28 15.0020000  0  7G10G 4G 5G 8G 9G30G24
  -3689836.88743  -2733270.47142  24330607.4004   24330612.6504
      2352.0634       1832.7764
   8960001.81346   6994471.04346  22335862.2994   22335864.7254
     -3336.1254      -2599.5784
  -9353272.24046  -6310097.46446  21239257.7754   21239260.5414
       433.2814        337.6224
  -3728847.89946   -650215.07346  22267780.7914   22267784.5884
     -1560.2194      -1215.7554
  10046193.17145   7828197.78945  23156049.2994   23156053.6354
     -3431.0784      -2673.5674
  -6694813.21445  -5064395.24545  23215218.4084   23215220.9164
      2094.4534       1632.0414
  -4587201.84146  -3526876.24646  20849931.2524   20849934.3814
     -1141.5624       -889.5294
 98  6 25 16 28 30.0020000  0  7G10G 4G 5G 8G 9G30G24
  -3725105.07943  -2760752.13242  24323895.3224   24323901.0534
      2350.3914       1831.4734
   9010089.88246   7033500.70346  22345394.0334   22345396.4714
     -3342.2974      -2604.3874
  -9359715.92346  -6315118.50046  21238031.7524   21238034.4364
       425.7974        331.7904
  -3705367.46146   -631918.62746  22272248.4714   22272252.1624
     -1570.5624      -1223.8154
  10097703.21945   7868335.47045  23165851.2444   23165855.3574
     -3436.9374      -2678.1334
  -6726206.90845  -5088857.81845  23209243.8074   23209246.8544
      2091.2974       1629.5824
  -4570014.63146  -3513483.60446  20853202.1114   20853205.1824
     -1150.0944       -896.1774
 98  6 25 16 28 45.0020000  0  7G10G 4G 5G 8G 9G30G24
  -3760353.69143  -2788218.59043  24317188.1744   24317192.9084
      2349.2664       1830.5974
   9060266.21146   7072599.14546  22354942.2834   22354944.6744
     -3348.0004      -2608.8314
  -9366051.18546  -6320055.05546  21236826.1274   21236828.5414
       418.7974        326.3354
  -3681737.17046   -613505.41646  22276745.9084   22276749.4944
     -1580.2664      -1231.3764
  10149293.19346   7908535.41245  23175669.2994   23175673.2134
     -3441.8284      -2681.9444
  -6757558.03845  -5113287.22945  23203278.6664   23203282.3464
      2088.6724       1627.5374
  -4552702.97646  -3499993.99246  20856496.7364   20856499.9004
     -1158.3124       -902.5814
 98  6 25 16 29  0.0020000  0  7G10G 4G 5G 8G 9G30G24
  -3795580.51444  -2815667.98543  24310485.2684   24310489.9434
      2347.5784       1829.2824
   9110529.65546   7111765.46046  22364507.2444   22364509.6584
     -3353.7504      -2613.3124
  -9372280.11446  -6324908.75446  21235640.8544   21235643.2684
       411.7344        320.8324
  -3657959.83646   -594977.62346  22281270.4164   22281273.9554
     -1589.9844      -1238.9494
  10200959.05346   7948794.50645  23185500.9944   23185504.9794
     -3446.9374      -2685.9254
  -6788865.33545  -5137682.47445  23197320.7994   23197324.5144
      2085.5944       1625.1384
  -4535263.22246  -3486404.56546  20859815.2604   20859818.3544
     -1166.9534       -909.3144
 98  6 25 16 29 15.0020000  0  7G10G 4G 5G 8G 9G30G24
  -3830782.08844  -2843097.72143  24303785.7684   24303789.1664
      2345.6724       1827.7964
   9160876.46146   7150996.73346  22374087.7054   22374090.3894
     -3359.4374      -2617.7444
  -9378405.08146  -6329681.44846  21234475.1974   21234477.7524
       404.6254        315.2924
  -3634040.69246   -576339.34846  22285821.8074   22285825.2294
     -1599.5004      -1246.3644
  10252699.25546   7989111.51845  23195346.8074   23195351.0374
     -3452.0944      -2689.9434
  -6820127.98645  -5162042.96445  23191371.2684   23191374.8304
      2082.4694       1622.7034
  -4517696.50446  -3472716.20846  20863157.9324   20863160.9904
     -1175.5164       -915.9864
 98  6 25 16 29 30.0020000  0  7G10G 4G 5G 8G 9G30G24
  -3865954.96644  -2870505.09243  24297093.0104   24297099.0104
      2344.0164       1826.5064
   9211308.07946   7190294.09046  22383684.5184   22383687.0614
     -3364.8444      -2621.9564
  -9384423.78446  -6334371.34046  21233330.0644   21233332.7134
       397.8914        310.0454
  -3609977.95146   -557589.15246  22290401.3144   22290405.1704
     -1608.9064      -1253.6934
  10304516.82046   8029488.79845  23205207.3304   23205211.0924
     -3456.9694      -2693.7424
  -6851343.48245  -5186366.69745  23185430.5334   23185434.3894
      2079.5314       1620.4144
  -4500002.79046  -3458928.89646  20866524.9004   20866528.1004
     -1183.7034       -922.3664
 98  6 25 16 29 45.0020000  0  7G10G 4G 5G 8G 9G30G24
  -3901105.31644  -2897894.96144  24290404.2914   24290408.9904
      2342.7034       1825.4834
   9261818.38346   7229652.76646  22393296.3694   22393298.4794
     -3369.9064      -2625.9014
  -9390344.99246  -6338985.25546  21232203.2834   21232205.9434
       391.5784        305.1264
  -3585777.43046   -538731.61046  22295005.7604   22295009.4514
     -1617.8754      -1260.6824
  10356405.52446   8069921.52845  23215081.2134   23215084.9864
     -3461.5944      -2697.3464
  -6882516.55345  -5210657.37445  23179499.0494   23179502.7054
      2076.9384       1618.3934
  -4482188.04446  -3445047.26946  20869915.1434   20869918.1664
     -1191.6724       -928.5754
 98  6 25 16 30  0.0020000  0  7G10G 4G 5G 8G 9G30G24
  -3936231.55945  -2925266.01544  24283720.2684   24283726.1624
      2340.9064       1824.0834
   9312408.82846   7269073.87846  22402923.7524   22402926.1544
     -3375.3754      -2630.1624
  -9396166.41946  -6343521.42146  21231095.3854   21231098.0924
       384.6414        299.7204
  -3561436.39946   -519764.59346  22299637.6354   22299641.6194
     -1627.5314      -1268.2064
  10408369.10546   8110412.60145  23224969.8144   23224973.7874
     -3466.7664      -2701.3764
  -6913647.61945  -5234915.31945  23173574.3854   23173577.7014
      2073.9694       1616.0804
  -4464248.46846  -3431068.37746  20873328.8934   20873331.7054
     -1200.1564       -935.1874
 98  6 25 16 30 15.0020000  0  7G10G 4G 5G 8G 9G30G24
  -3971331.29444  -2952616.41643  24277040.4554   24277046.2794
      2339.3594       1822.8774
   9363081.07546   7308558.75146  22412566.2524   22412568.5844
     -3380.6874      -2634.3024
  -9401882.04246  -6347975.14546  21230007.8464   21230010.4244
       377.7814        294.3754
  -3536950.77346   -500684.89746  22304297.5024   22304301.5104
     -1636.9224      -1275.5244
  10460410.45746   8150964.27145  23234872.9794   23234876.4244
     -3471.7194      -2705.2354
  -6944734.16945  -5259138.58345  23167659.0334   23167661.9754
      2071.1724       1613.9004
  -4446182.53046  -3416991.01546  20876766.6114   20876769.5884
     -1208.3444       -941.5674
 98  6 25 16 30 30.0020000  0  7G10G 4G 5G 8G 9G30G24
  -4006408.30144  -2979949.09944  24270365.5104   24270371.1584
      2337.6254       1821.5264
   9413834.14146   7348106.58646  22422224.1974   22422226.6234
     -3386.3914      -2638.7464
  -9407496.29046  -6352349.87246  21228939.4164   21228941.8424
       370.8134        288.9454
  -3512323.91646   -481495.13546  22308984.4474   22308987.7054
     -1646.6564      -1283.1094
  10512523.64346   8191571.92145  23244789.5644   23244793.7604
     -3476.6724      -2709.0954
  -6975777.47145  -5283328.12345  23161751.5964   23161754.6664
      2067.9384       1611.3804
  -4427993.72146  -3402817.91446  20880227.9474   20880230.7834
     -1216.8124       -948.1664
 98  6 25 16 30 45.0020000  0  7G10G 4G 5G 8G 9G30G24
  -4041461.75144  -3007263.44843  24263694.7914   24263701.2954
      2336.0474       1820.2964
   9464669.95846   7387718.90646  22431897.9474   22431900.2094
     -3391.8284      -2642.9834
  -9413010.81946  -6356646.90246  21227889.9244   21227892.4084
       364.3134        283.8804
  -3487552.89646   -462193.04746  22313697.7994   22313701.1864
     -1656.2974      -1290.6214
  10564707.88146   8232234.91945  23254720.1434   23254724.2684
     -3481.3914      -2712.7724
  -7006773.31745  -5307480.72145  23155853.0884   23155856.0534
      2064.7194       1608.8724
  -4409680.06746  -3388547.52946  20883712.8144   20883715.8144
     -1225.1874       -954.6924
 98  6 25 16 31  0.0020000  0  7G10G 4G 5G 8G 9G30G24
  -4076489.64744  -3034557.84344  24257029.5724   24257035.6074
      2334.0944       1818.7744
   9515588.48746   7427395.67846  22441587.3304   22441589.6394
     -3397.5004      -2647.4034
  -9418426.59346  -6360866.97646  21226859.2684   21226862.0804
       357.5164        278.5844
  -3462635.26646   -442776.72846  22318439.4794   22318443.0064
     -1666.3124      -1298.4254
  10616965.55346   8272955.15145  23264664.9084   23264668.5534
     -3486.5624      -2716.8024
  -7037718.79845  -5331594.05645  23149964.3544   23149967.6354
      2061.0784       1606.0354
  -4391238.89746  -3374177.78046  20887222.0724   20887225.1074
     -1233.8124       -961.4124
 98  6 25 16 31 15.0020000  0  7G10G 4G 5G 8G 9G30G24
  -4111487.17944  -3061828.62244  24250370.0024   24250374.7834
      2332.0784       1817.2044
   9566591.30146   7467138.12646  22451292.8934   22451295.4124
     -3403.1094      -2651.7744
  -9423739.04846  -6365006.54346  21225848.4864   21225850.9244
       350.5314        273.1414
  -3437565.93446   -423242.19046  22323210.0644   22323213.3934
     -1676.5474      -1306.4004
  10669302.59846   8313737.23645  23274624.4634   23274628.2834
     -3491.9224      -2720.9784
  -7068608.28046  -5355663.75045  23144086.6504   23144090.0144
      2057.2664       1603.0644
  -4372669.11546  -3359707.81646  20890755.6824   20890758.5414
     -1242.3594       -968.0724
 98  6 25 16 31 30.0020000  0  7G10G 4G 5G 8G 9G30G24
  -4146456.40844  -3089077.33344  24243714.3694   24243719.5024
      2330.4694       1815.9504
   9617679.63046   7506947.20246  22461014.6274   22461016.8894
     -3408.7194      -2656.1444
  -9428944.27046  -6369062.54946  21224858.0644   21224860.5724
       343.4694        267.6384
  -3412340.31346   -403585.86346  22328010.0184   22328013.5104
     -1686.9694      -1314.5214
  10721720.67746   8354582.46145  23284599.0104   23284602.7254
     -3497.1414      -2725.0454
  -7099440.05046  -5379688.47345  23138219.3304   23138222.0024
      2053.5784       1600.1914
  -4353969.14746  -3345136.40046  20894314.2524   20894317.3344
     -1251.0314       -974.8304
 98  6 25 16 31 45.0020000  0  7G10G 4G 5G 8G 9G30G24
  -4181404.02444  -3116309.16044  24237064.7754   24237069.9794
      2329.2974       1815.0374
   9668851.00146   7546820.99346  22470752.3384   22470754.5534
     -3414.0314      -2660.2844
  -9434045.67746  -6373037.66546  21223887.1664   21223889.9434
       336.7504        262.4034
  -3386958.96046   -383808.20046  22332840.0884   22332844.2954
     -1697.1094      -1322.4234
  10774212.93946   8395485.47945  23294587.2444   23294590.9004
     -3501.7504      -2728.6364
  -7130216.46746  -5403670.08045  23132362.6974   23132365.4864
      2049.9694       1597.3784
  -4335139.29446  -3330463.78746  20897897.4864   20897900.4514
     -1259.5784       -981.4894
 98  6 25 16 32  0.0020000  0  7G10G 4G 5G 8G 9G30G24
  -4216328.59344  -3143523.08244  24230418.8614   24230424.8264
      2327.5004       1813.6364
   9720106.87746   7586760.62946  22480505.8464   22480508.1664
     -3419.8754      -2664.8384
  -9439038.74146  -6376928.35746  21222937.0884   21222939.7834
       329.1724        256.4984
  -3361420.59946   -363908.19146  22337699.8774   22337703.5334
     -1707.7664      -1330.7264
  10826779.75746   8436446.60945  23304591.1274   23304594.9244
     -3506.9534      -2732.6914
  -7160932.01245  -5427604.23645  23126517.6274   23126520.6624
      2045.6254       1593.9944
  -4316175.40346  -3315686.72646  20901506.1504   20901509.2794
     -1268.6874       -988.5884
 98  6 25 16 32 15.0020000  0  7G10G 4G 5G 8G 9G30G24
  -4251234.63944  -3170722.55944  24223775.6584   24223780.4394
      2326.4064       1812.7844
   9771442.51246   7626762.41146  22490274.8384   22490277.1934
     -3425.1564      -2668.9534
  -9443925.91846  -6380736.54546  21222007.1894   21222009.9084
       322.1564        251.0314
  -3335731.74746   -343890.90646  22342588.2604   22342592.2914
     -1717.6564      -1338.4334
  10879414.95546   8477461.00645  23314607.7914   23314611.8814
     -3511.2974      -2736.0754
  -7191589.83045  -5451493.43345  23120683.1974   23120686.5614
      2041.7974       1591.0114
  -4297084.49746  -3300810.69046  20905139.1044   20905142.1274
     -1277.0314       -995.0894
 98  6 25 16 32 30.0020000  0  7G10G 4G 5G 8G 9G30G24
  -4286122.20244  -3197907.62044  24217137.5334   24217142.4434
      2324.9844       1811.6764
   9822860.03046   7666827.99846  22500059.2294   22500061.6784
     -3430.7814      -2673.3364
  -9448705.17246  -6384460.63846  21221097.5024   21221100.1864
       314.8444        245.3334
  -3309892.70946   -323756.60346  22347505.2604   22347509.0574
     -1727.8444      -1346.3724
  10932116.58445   8518527.16545  23324635.9244   23324640.1194
     -3515.8124      -2739.5944
  -7222187.07345  -5475335.41845  23114861.8224   23114864.8344
      2037.5474       1587.6994
  -4277865.39946  -3285834.77346  20908796.2134   20908799.6004
     -1285.7344      -1001.8714
 98  6 25 16 32 45.0020000  0  7G10G 4G 5G 8G 9G30G24
  -4320983.15644  -3225071.96244  24210503.7994   24210510.5144
      2322.8134       1809.9844
   9874364.77246   7706961.56046  22509860.1894   22509862.2294
     -3436.7504      -2677.9874
  -9453369.78546  -6388095.39546  21220209.6744   21220212.2874
       306.8284        239.0874
  -3283894.95946   -303498.63246  22352452.3544   22352455.9284
     -1738.8124      -1354.9194
  10984890.14746   8559649.38245  23334678.3934   23334682.3304
     -3520.9224      -2743.5754
  -7252716.36545  -5499124.45045  23109051.3464   23109055.0844
      2032.7974       1583.9984
  -4258512.84546  -3270754.85546  20912478.9474   20912482.3224
     -1294.8754      -1008.9944
 98  6 25 16 33  0.0020000  0  7G10G 4G 5G 8G 9G30G24
  -4355814.48944  -3252213.22944  24203875.1354   24203880.5254
      2321.3284       1808.8274
   9925954.32346   7747161.20446  22519677.1664   22519679.2404
     -3441.8594      -2681.9684
  -9457917.96446  -6391639.42746  21219344.4324   21219347.1274
       299.5004        233.3774
  -3257736.14446   -283115.15746  22357430.2134   22357433.7994
     -1749.1094      -1362.9424
  11037735.36445   8600827.43945  23344734.1274   23344738.0884
     -3525.1254      -2746.8514
  -7283179.50645  -5522861.93345  23103254.7444   23103258.3424
      2028.9224       1580.9784
  -4239026.45546  -3255570.66146  20916187.0024   20916190.2714
     -1303.3124      -1015.5684
 98  6 25 16 33 15.0020000  0  7G10G 4G 5G 8G 9G30G24
  -4390622.84344  -3279336.54144  24197251.0644   24197256.2094
      2319.5634       1807.4514
   9977619.71246   7787419.94646  22529508.6434   22529510.6354
     -3447.0784      -2686.0354
  -9462355.12646  -6395096.95246  21218500.0024   21218502.5924
       291.9384        227.4844
  -3231422.64146   -262611.13446  22362437.9084   22362441.4474
     -1759.5314      -1371.0634
  11090643.24845   8642054.33145  23354802.7604   23354806.5574
     -3529.4224      -2750.1994
  -7313583.60845  -5546553.42145  23097468.0184   23097471.4394
      2024.8134       1577.7764
  -4219415.39646  -3240289.31146  20919918.8614   20919921.7324
     -1311.7034      -1022.1064
 98  6 25 16 33 30.0020000  0  7G10G 4G 5G 8G 9G30G24
  -4425403.48744  -3306438.33544  24190632.5334   24190638.7914
      2318.2974       1806.4654
  10029365.28946   7827741.16046  22539355.8614   22539358.1354
     -3451.9224      -2689.8094
  -9466678.93946  -6398466.15546  21217677.0724   21217679.6154
       284.9384        222.0294
  -3204952.77246   -241985.28146  22367474.7444   22367478.7404
     -1769.3594      -1378.7224
  11143616.42045   8683332.09445  23364883.2294   23364887.5764
     -3533.2194      -2753.1574
  -7343926.74045  -5570197.38545  23091694.8074   23091698.0414
      2021.4224       1575.1344
  -4199676.46746  -3224908.32746  20923675.0254   20923678.0964
     -1319.7974      -1028.4134
 98  6 25 16 33 45.0020000  0  7G10G 4G 5G 8G 9G30G24
  -4460165.68044  -3333525.68944  24184017.8384   24184023.1464
      2316.3754       1804.9684
  10081183.04546   7868118.63246  22549216.4244   22549218.7564
     -3457.3754      -2694.0584
  -9470897.61646  -6401753.43046  21216874.3144   21216876.8694
       277.3134        216.0884
  -3178337.04346   -221245.76446  22372539.4394   22372543.0144
     -1779.6094      -1386.7094
  11196644.92745   8724652.96145  23374974.0414   23374978.2014
     -3537.5164      -2756.5064
  -7374220.79345  -5593803.11645  23085929.6974   23085933.2484
      2017.5314       1572.1024
  -4179815.85946  -3209432.52346  20927454.1894   20927457.4714
     -1328.4534      -1035.1584
 98  6 25 16 34  0.0020000  0  7G10G 4G 5G 8G 9G30G24
  -4494899.30144  -3360590.79744  24177407.2294   24177413.1234
      2314.7034       1803.6654
  10133081.44146   7908558.93546  22559092.1504   22559094.6234
     -3462.4844      -2698.0404
  -9475003.22646  -6404952.59846  21216093.3224   21216096.0414
       269.9844        210.3774
  -3151570.19246   -200388.47646  22377633.2364   22377637.1974
     -1789.3284      -1394.2824
  11249737.57245   8766023.81845  23385077.6504   23385082.2214
     -3541.6564      -2759.7324
  -7404456.55045  -5617363.41045  23080176.8464   23080180.2564
      2013.8284       1569.2174
  -4159828.48846  -3193857.94946  20931257.9634   20931261.1044
     -1336.5784      -1041.4894
 98  6 25 16 34 15.0020000  0  7G10G 4G 5G 8G 9G30G24
  -4529608.39844  -3387636.81544  24170803.0414   24170807.9284
      2313.3284       1802.5934
  10185056.33046   7949058.84946  22568982.8854   22568985.4044
     -3467.3914      -2701.8634
  -9479000.71846  -6408067.52546  21215332.3384   21215335.0104
       263.1564        205.0574
  -3124659.30546   -179418.96946  22382754.0024   22382757.6114
     -1798.7344      -1401.6114
  11302892.59945   8807443.28645  23395192.2684   23395196.6394
     -3545.5784      -2762.7884
  -7434640.09045  -5640883.02045  23074432.3694   23074436.1544
      2010.7814       1566.8434
  -4139721.76246  -3178190.36046  20935083.9004   20935086.9124
     -1344.1724      -1047.4074
 98  6 25 16 34 30.0020000  0  7G10G 4G 5G 8G 9G30G24
  -4564294.05344  -3414664.53644  24164202.3074   24164207.6624
      2311.5164       1801.1814
  10237106.25146   7989617.22746  22578887.5414   22578889.7914
     -3472.5164      -2705.8564
  -9482894.68546  -6411101.77646  21214591.4244   21214594.3544
       256.0944        199.5544
  -3097604.02246   -158336.93446  22387902.8614   22387906.7054
     -1808.6414      -1409.3304
  11356108.23845   8848909.98145  23405318.7604   23405323.4944
     -3549.8124      -2766.0884
  -7464776.65545  -5664366.03845  23068698.0184   23068701.4984
      2007.5314       1564.3104
  -4119499.70346  -3162432.91146  20938932.0964   20938935.2014
     -1352.0474      -1053.5434
 98  6 25 16 34 45.0020000  0  7G10G 4G 5G 8G 9G30G24
  -4598952.97744  -3441671.43743  24157607.3774   24157613.1074
      2309.6724       1799.7444
  10289232.34446   8030234.95946  22588806.8224   22588809.3424
     -3477.5784      -2709.8014
  -9486683.27146  -6414053.91446  21213870.5254   21213873.2794
       249.1094        194.1114
  -3070399.79346   -137138.83646  22393079.5724   22393083.4164
     -1818.5784      -1417.0744
  11409388.72745   8890427.20345  23415457.8384   23415461.9984
     -3554.2504      -2769.5454
  -7494864.58645  -5687811.13645  23062971.9794   23062975.8114
      2004.2194       1561.7294
  -4099160.51046  -3146584.18346  20942802.4554   20942805.4554
     -1359.7974      -1059.5824
 98  6 25 16 35  0.0020000  0  7G10G 4G 5G 8G 9G30G24
  -4633586.26244  -3468658.39344  24151015.9794   24151020.7484
      2307.8594       1798.3324
  10341429.30546   8070907.91046  22598739.6044   22598742.1234
     -3482.3124      -2713.4904
  -9490370.73146  -6416927.25746  21213168.8384   21213171.6044
       242.3134        188.8154
  -3043050.47446   -115827.69646  22398283.5884   22398287.6544
     -1828.1724      -1424.5504
  11462732.75945   8931993.94745  23425608.7054   23425612.7954
     -3558.5314      -2772.8814
  -7524906.07645  -5711220.06045  23057255.6274   23057259.4594
      2001.0314       1559.2454
  -4078708.57546  -3130647.60546  20946694.5804   20946697.6504
     -1367.4064      -1065.5114
 98  6 25 16 35 15.0020000  0  7G10G 4G 5G 8G 9G30G24
  -4668193.62444  -3495625.11144  24144430.2294   24144433.4634
      2306.1884       1797.0294
  10393697.60546   8111636.45746  22608686.0414   22608688.3964
     -3487.0164      -2717.1554
  -9493956.51046  -6419721.36146  21212486.0804   21212488.8694
       235.5164        183.5194
  -3015561.12546    -94407.43046  22403514.6504   22403518.1194
     -1837.2974      -1431.6604
  11516140.68045   8973610.47645  23435771.8774   23435776.1664
     -3562.8124      -2776.2184
  -7554899.71545  -5734591.69745  23051547.7684   23051551.1784
      1997.8284       1556.7494
  -4058143.98146  -3114623.24146  20950607.7294   20950610.8224
     -1374.7664      -1071.2464
 98  6 25 16 35 30.0020000  0  7G10G 4G 5G 8G 9G30G24
  -4702774.73544  -3522571.37544  24137850.6274   24137854.7054
      2304.5314       1795.7394
  10446036.74946   8152420.20446  22618645.7834   22618648.1744
     -3491.6414      -2720.7594
  -9497440.27246  -6422435.97346  21211823.1744   21211826.0574
       228.9064        178.3694
  -2987936.60046    -72881.82246  22408771.6274   22408775.5884
     -1846.0004      -1438.4424
  11569615.09745   9015278.82345  23445948.1584   23445952.2714
     -3567.1724      -2779.6144
  -7584845.07846  -5757925.70945  23045849.4244   23045852.6704
      1994.8754       1554.4484
  -4037468.22846  -3098512.25846  20954542.5024   20954545.6434
     -1382.0944      -1076.9564
